GFSMA_700_spd_000.txt.gz
Wind_Speed
8 10 10 11 12 12 12 14 15 15 16 18 18 18 17 14 13 11 10 10 8 8 8 9 8 7 5 4 5 6 7 6 5 5 4 4 5 6 6 6 6 5 5
9 11 13 14 15 14 14 15 16 18 20 21 22 21 20 19 16 15 13 12 11 10 10 11 10 9 8 8 7 7 9 8 8 7 7 6 6 7 7 7 7 7 7
11 12 14 15 16 14 17 17 18 18 20 23 22 20 19 20 19 16 16 15 15 13 11 11 13 12 11 11 10 9 10 10 11 11 10 9 8 8 8 8 7 8 8
13 14 15 16 16 18 20 21 23 23 22 21 19 18 17 17 16 15 15 16 18 18 17 14 16 15 14 15 12 12 13 12 13 13 13 12 12 11 11 10 9 9 9
13 13 14 17 18 22 24 23 22 20 18 17 16 16 14 13 14 13 12 12 15 18 19 19 17 17 17 17 17 16 15 15 15 15 14 14 14 14 14 13 13 12 12
15 16 14 17 19 21 20 18 18 18 17 15 12 12 12 12 12 12 13 13 11 13 17 20 22 21 19 19 20 21 21 18 18 18 18 17 17 17 17 17 16 15 14
15 15 16 18 20 17 16 15 16 16 17 12 10 10 10 12 13 12 12 13 13 12 12 15 21 24 25 23 23 22 24 23 22 22 21 20 20 20 20 20 20 18 17
9 9 9 11 12 13 13 14 14 14 13 12 10 8 11 12 13 12 12 12 13 13 13 14 16 19 25 27 27 26 27 28 27 27 26 25 24 24 23 23 22 22 21
9 9 9 10 12 13 15 15 14 13 11 10 10 10 8 9 10 14 14 14 14 15 16 16 16 17 19 23 27 29 31 31 31 30 30 30 29 28 27 26 25 25 24
12 10 11 11 12 14 14 15 14 12 11 11 11 11 10 8 8 10 13 14 15 15 16 16 18 18 18 20 22 25 29 32 34 35 35 35 34 32 31 30 29 29 28
18 15 13 13 14 15 14 14 13 13 13 13 12 12 13 13 12 9 10 13 16 17 18 20 20 21 21 23 24 26 28 31 32 36 38 39 39 37 36 35 34 33 32
19 20 20 18 17 16 14 13 12 11 12 13 14 13 13 14 16 18 16 13 13 14 17 18 21 23 24 24 26 28 29 31 34 36 37 41 43 43 41 41 39 38 36
16 19 22 22 19 18 15 13 12 11 12 13 14 15 15 17 19 21 21 21 17 16 17 18 22 24 26 26 27 29 29 30 31 33 36 39 41 45 46 44 44 42 41
15 17 19 22 19 17 15 14 13 13 14 15 16 17 17 19 21 21 22 23 24 21 19 21 22 25 25 25 28 29 29 31 33 33 34 37 41 42 45 48 47 47 45
14 16 19 22 21 19 18 16 14 15 15 16 17 18 18 19 19 21 21 24 27 28 28 24 25 25 27 26 28 27 29 31 33 34 36 37 38 42 45 46 50 50 50
17 18 19 19 21 18 17 17 15 16 15 15 15 17 17 19 21 23 25 27 30 32 33 30 28 26 25 29 29 29 30 32 34 37 38 39 40 42 43 47 50 52 53
21 21 20 17 19 17 17 17 17 17 17 17 17 19 19 21 22 24 26 29 31 33 34 28 31 28 26 27 29 30 30 32 34 35 39 43 43 43 45 48 51 52 53
23 24 19 18 18 17 17 16 17 16 15 15 17 19 19 23 24 25 28 31 32 31 33 33 30 34 32 28 30 31 33 33 35 35 36 40 46 47 46 47 53 55 53
25 23 21 17 16 17 17 16 18 15 15 16 19 20 21 24 22 25 27 30 32 32 32 34 34 33 33 28 32 33 35 38 38 41 43 42 47 50 51 49 51 57 55
25 23 20 15 14 15 15 16 17 16 16 17 18 20 23 26 25 25 27 31 33 34 33 36 36 35 35 32 36 38 40 41 44 45 46 47 46 51 53 51 49 55 58
27 24 20 15 13 15 16 18 17 18 19 18 19 23 24 27 28 27 26 25 28 30 31 33 36 35 33 35 36 38 41 45 45 46 48 42 40 47 52 52 52 51 58
28 24 19 16 15 17 21 22 21 23 22 23 24 23 25 31 30 29 30 32 31 32 32 33 34 33 33 36 37 41 46 49 56 55 53 42 37 41 49 51 52 51 57
28 25 21 17 16 21 23 26 26 26 26 29 30 28 32 32 31 30 32 37 36 34 35 36 37 34 36 34 40 44 43 49 54 59 53 44 44 39 44 50 48 49 55
27 23 22 20 20 23 27 27 26 26 28 30 30 34 34 32 28 32 37 37 27 29 34 34 36 35 34 36 40 40 44 47 59 59 59 59 45 36 39 47 46 47 52
25 22 22 25 25 28 29 28 31 27 32 30 32 33 33 33 30 33 34 29 26 29 33 32 33 32 36 39 36 42 44 53 64 61 57 57 40 34 38 44 43 44 50
28 28 30 32 31 31 25 33 30 28 31 31 32 33 33 35 35 37 33 31 29 30 33 29 28 32 36 34 32 38 44 53 62 63 50 43 29 21 32 40 37 40 44

GFSMA_700_spd_003.txt.gz
Wind_Speed
8 8 8 9 10 12 13 14 15 16 16 18 20 21 20 17 15 14 11 10 9 9 10 10 9 9 7 5 5 6 7 6 6 6 6 5 5 5 6 6 6 6 6
10 10 9 11 11 13 13 13 16 18 19 19 20 19 19 16 14 14 14 13 12 12 11 12 12 11 10 8 7 7 8 8 8 8 7 7 6 6 6 7 8 8 7
9 10 12 13 13 15 14 16 17 19 20 20 17 16 14 13 13 11 12 14 14 14 13 14 14 14 14 12 10 9 9 10 10 11 10 9 9 8 8 8 9 9 9
12 13 14 15 15 16 17 19 20 18 18 17 16 14 11 10 9 9 8 9 12 15 17 16 16 16 16 15 15 13 13 12 13 12 13 13 12 12 11 10 10 10 10
14 13 15 17 18 16 15 19 20 17 16 15 13 13 11 8 7 7 7 7 8 10 15 19 19 18 18 18 17 17 16 15 15 16 15 15 15 15 15 14 13 13 12
14 16 17 18 17 14 18 17 16 15 15 13 12 12 10 8 9 9 8 8 9 8 10 15 19 21 20 19 19 19 20 22 19 19 18 18 17 17 18 18 17 17 16
13 13 14 16 17 18 15 14 15 14 14 11 11 12 9 10 10 8 9 9 9 9 10 10 14 20 23 24 24 22 21 24 24 23 22 21 20 20 20 20 20 20 19
4 4 6 7 8 11 13 14 15 13 11 9 9 11 11 11 11 10 10 9 9 9 10 11 13 14 17 22 26 28 27 25 26 27 26 26 25 24 23 23 22 23 23
5 6 6 7 8 10 11 11 11 10 9 9 9 9 9 10 11 11 11 11 12 12 13 13 14 15 15 17 19 23 27 30 30 29 31 31 30 29 28 27 26 26 26
11 10 10 10 11 11 11 11 10 9 9 9 9 8 7 8 9 11 13 14 15 15 16 17 17 17 18 18 19 20 22 24 29 31 33 33 33 32 32 32 31 30 30
12 12 13 12 12 12 12 11 11 10 10 9 9 8 9 9 9 8 9 12 16 17 18 18 19 21 21 22 22 23 24 26 28 29 31 34 36 35 36 36 35 34 34
8 11 12 14 15 14 14 13 12 12 10 10 9 8 9 11 13 14 12 13 14 16 18 20 20 20 22 24 26 26 27 27 28 31 32 35 36 37 39 40 39 39 38
6 9 12 14 16 16 15 14 13 12 12 11 11 10 11 13 14 16 18 18 18 18 18 20 23 27 26 26 27 28 28 29 29 30 31 33 36 39 41 42 44 44 43
9 12 14 17 17 19 18 16 13 12 12 13 13 11 13 16 16 18 19 20 20 19 21 21 21 25 28 28 30 30 29 28 31 31 31 32 34 35 38 41 43 46 47
15 16 17 17 18 18 19 16 15 14 13 14 15 14 16 18 18 19 21 23 24 25 26 26 24 26 26 25 25 27 28 31 31 33 33 34 35 35 37 39 41 45 47
17 18 19 18 19 19 18 17 16 15 14 16 17 18 19 20 20 19 20 23 24 27 25 27 29 25 24 26 26 28 29 30 32 33 36 37 38 39 39 40 41 42 47
27 20 22 21 20 19 19 16 15 15 14 14 16 17 18 18 20 22 23 24 25 28 30 24 30 30 24 25 27 30 31 31 32 32 33 36 38 41 44 43 43 44 44
20 24 25 24 23 23 19 15 14 14 14 13 15 18 19 20 20 22 24 24 27 28 32 35 26 28 31 28 29 29 29 31 30 31 32 34 38 42 44 47 46 46 46
24 23 26 27 26 25 21 16 15 14 13 13 16 18 18 20 21 25 25 26 29 29 33 35 33 29 31 30 31 29 30 32 33 34 32 31 38 44 47 49 51 49 48
38 29 29 27 29 28 22 17 16 17 14 17 19 19 20 24 24 25 28 30 31 31 32 34 35 32 31 30 32 32 33 34 35 35 38 42 38 39 46 50 52 55 51
40 36 38 29 30 27 22 19 19 20 22 23 23 23 22 28 28 30 33 32 31 33 35 36 38 37 33 35 36 37 37 37 39 42 44 40 41 46 44 42 48 55 54
26 27 37 31 27 25 23 23 22 24 27 30 28 28 28 30 30 35 33 32 30 33 37 38 36 34 32 35 37 37 39 39 45 43 47 44 49 53 44 36 40 49 53
33 20 34 28 30 25 24 28 27 28 31 35 35 30 31 32 34 36 34 33 30 34 39 36 34 32 35 33 36 38 37 43 45 42 48 52 58 58 46 39 41 46 51
32 20 30 27 26 28 28 32 32 31 31 35 35 30 34 33 35 37 35 33 32 36 37 37 36 36 34 32 36 40 42 46 46 45 49 64 61 53 45 38 40 45 50
21 21 30 32 33 32 35 39 30 36 36 32 34 30 37 36 36 35 35 37 37 36 36 37 35 35 34 33 37 43 43 45 47 48 50 60 63 48 33 29 33 42 48
22 29 35 32 30 33 37 35 39 40 39 35 31 34 38 38 35 35 36 36 37 34 32 31 33 34 34 35 37 40 40 43 46 53 52 58 54 38 33 25 23 30 39

GFSMA_700_spd_006.txt.gz
Wind_Speed
7 8 9 9 9 11 13 13 13 14 16 18 19 19 19 17 14 13 12 10 10 10 9 10 9 9 5 3 4 5 5 5 6 6 6 6 7 6 6 6 6 6 6
10 11 11 10 11 11 13 15 14 17 18 18 20 19 17 14 11 10 12 13 12 12 12 10 11 10 10 6 7 6 7 7 7 7 7 7 7 7 7 7 7 7 7
10 10 11 12 12 14 14 16 18 18 18 15 16 15 12 11 9 7 8 12 13 13 14 14 12 13 13 13 11 8 8 8 9 9 10 9 9 8 8 9 9 9 9
12 12 14 14 15 14 16 17 16 19 18 15 13 12 10 7 6 4 4 6 10 14 15 17 15 15 16 16 16 14 11 10 11 11 12 13 12 11 11 11 10 10 11
13 14 15 16 17 17 16 17 21 18 17 15 14 13 8 6 5 5 3 5 6 9 14 17 18 18 18 18 18 18 18 15 13 14 15 15 15 15 14 14 13 12 12
14 15 15 17 18 17 19 18 21 19 17 15 14 13 9 6 6 6 5 4 7 9 10 12 16 21 20 19 19 19 19 22 24 21 18 18 18 17 17 17 17 16 15
14 15 15 14 15 17 19 19 16 16 16 15 14 13 11 9 7 7 7 6 5 8 10 11 13 17 21 22 24 22 21 22 23 21 23 22 21 20 19 19 19 19 19
11 10 8 9 9 11 12 13 12 13 13 13 13 11 6 13 8 8 8 7 5 7 9 10 13 14 16 20 23 26 28 27 25 27 26 26 25 24 23 22 22 22 22
7 4 2 0 2 5 8 9 10 9 10 11 9 9 8 4 12 12 10 9 9 10 10 11 12 13 16 18 21 21 21 26 30 30 29 30 28 28 28 27 27 26 25
8 6 5 5 7 9 11 12 11 10 10 11 10 8 10 11 8 4 11 14 13 13 12 13 14 15 16 18 19 19 20 20 23 27 30 32 32 33 31 33 31 30 30
7 7 8 10 11 12 13 14 13 12 11 11 10 10 9 9 9 9 7 9 16 18 17 15 15 17 17 19 21 21 22 23 23 25 27 29 32 34 36 37 36 34 33
3 5 8 10 13 14 15 15 14 12 11 9 9 10 11 10 9 9 11 12 15 17 19 18 18 19 19 21 22 23 25 26 27 27 28 30 32 34 35 36 38 38 37
2 4 7 9 12 15 17 16 14 12 11 11 11 11 11 13 14 15 15 13 12 14 17 15 19 20 23 24 25 25 26 28 29 30 29 31 32 33 35 37 38 39 40
8 8 7 9 12 14 16 18 15 14 13 12 11 11 11 13 14 14 15 16 16 13 12 23 21 20 21 25 27 25 25 26 29 30 31 30 32 34 34 35 36 38 41
12 10 12 14 15 15 16 18 17 15 15 14 14 13 13 14 15 15 16 17 19 21 17 16 19 23 22 23 24 25 26 28 27 30 33 34 34 35 35 36 36 36 38
17 14 12 18 22 21 18 20 19 17 15 16 16 15 14 15 15 14 17 19 22 22 22 20 23 26 28 26 28 26 25 26 27 29 32 34 37 39 39 39 38 38 38
24 18 18 25 28 25 21 21 21 18 17 16 15 15 16 16 17 17 17 20 22 23 22 18 23 26 31 35 31 30 30 30 29 29 31 33 35 36 40 41 42 42 41
32 24 23 25 22 25 27 23 23 21 18 16 15 14 17 19 18 17 20 22 23 26 27 32 23 26 31 35 35 32 29 31 33 31 30 32 33 33 36 39 41 43 45
40 46 36 37 42 32 31 25 24 24 21 17 15 16 17 20 19 19 23 24 26 30 28 29 31 30 30 33 32 31 32 30 31 32 34 34 34 35 35 35 35 38 42
54 56 48 50 39 35 29 25 26 25 23 20 18 19 20 21 21 25 27 27 32 34 30 29 28 26 34 29 27 29 26 27 30 30 33 34 33 34 38 42 44 44 41
54 56 53 39 40 38 36 29 27 27 24 24 23 22 24 26 29 28 32 31 32 33 32 32 29 29 36 30 28 33 34 29 32 31 32 36 38 38 36 42 44 45 48
41 40 31 34 37 37 37 32 29 29 28 27 27 26 28 29 31 29 32 33 33 36 35 33 33 36 37 33 32 35 39 39 38 34 38 40 41 40 42 43 50 52 56
33 33 31 34 32 30 34 30 30 31 32 32 31 32 32 31 32 31 31 33 35 36 35 35 38 38 34 37 38 38 39 39 40 36 40 41 43 47 47 52 58 55 55
30 27 26 29 29 29 34 33 36 34 34 33 32 34 39 38 37 31 32 37 37 35 37 36 39 42 41 37 36 38 39 40 40 40 40 44 44 52 55 61 58 48 48
30 27 28 26 26 31 34 31 33 33 34 31 35 42 40 44 45 30 33 37 36 36 36 38 38 39 37 34 37 40 38 41 42 40 37 44 50 54 63 52 32 32 35
27 23 23 26 27 29 33 28 29 31 32 35 40 42 42 35 35 30 34 36 37 35 36 36 37 33 31 33 33 36 36 38 39 41 38 47 49 56 61 36 25 25 29

GFSMA_700_spd_009.txt.gz
Wind_Speed
7 10 7 8 8 10 9 13 14 16 17 12 17 19 16 16 12 10 16 11 11 10 8 9 8 9 5 2 1 2 4 5 5 5 5 5 5 5 5 5 5 4 4
10 10 10 10 10 12 12 13 15 17 18 18 19 16 12 11 9 8 10 11 13 12 11 9 11 10 10 8 5 4 4 5 6 6 6 5 5 7 7 6 6 6 5
10 10 10 12 12 13 12 14 14 17 15 13 15 15 12 10 7 6 6 9 10 13 13 13 12 12 12 12 11 9 7 6 7 8 8 7 7 7 8 7 8 8 8
12 12 11 15 14 15 15 16 16 9 22 18 15 13 11 8 4 4 7 6 10 9 13 15 15 14 13 14 13 12 12 10 8 8 8 10 10 10 9 9 9 9 9
13 13 12 15 14 16 18 18 18 16 24 19 15 13 10 7 2 7 5 4 6 7 9 12 16 17 16 16 17 16 16 15 12 10 9 11 12 12 13 13 12 12 11
13 14 15 16 16 17 16 13 16 21 22 21 10 11 9 7 4 3 4 3 6 8 10 12 8 18 21 20 19 19 19 18 19 19 18 16 15 15 15 15 15 15 14
14 15 16 17 15 16 16 19 20 20 17 17 10 6 10 9 8 1 4 4 6 9 11 10 13 12 14 20 23 21 22 21 20 21 23 23 20 18 18 18 17 17 17
14 13 13 14 12 13 14 14 14 15 14 13 7 5 2 10 10 7 9 5 7 8 10 12 13 12 17 17 16 23 24 24 24 24 26 26 23 22 21 21 21 20 20
9 9 7 5 4 7 10 10 11 10 10 13 6 4 3 3 6 14 14 8 7 10 10 12 13 12 15 18 19 17 20 23 24 28 30 29 29 29 25 25 23 24 23
5 3 3 1 3 6 10 13 14 13 10 9 13 7 7 9 11 2 10 21 18 10 6 9 14 12 13 18 17 17 19 19 20 21 22 27 31 32 32 32 30 28 28
7 5 3 1 4 7 9 12 13 13 11 9 9 9 8 7 7 9 6 7 9 16 19 13 12 14 13 14 19 13 18 20 21 23 23 24 25 28 32 34 35 35 34
8 4 1 3 6 9 11 11 11 12 13 12 10 10 8 5 4 6 8 9 10 13 16 21 18 16 15 16 17 19 20 20 22 24 25 27 27 28 30 32 33 35 40
9 7 6 6 9 12 14 15 13 10 11 11 10 12 10 9 9 9 8 7 8 8 16 20 20 28 24 20 22 20 20 23 24 26 26 27 29 30 31 32 33 35 36
14 11 8 8 10 12 15 19 21 16 12 12 12 10 11 13 11 10 9 11 12 10 10 15 18 22 23 24 22 22 25 25 23 27 27 28 29 30 32 32 33 34 35
16 13 11 13 16 17 17 18 22 22 17 13 13 11 10 11 11 10 10 12 14 14 11 10 17 18 26 20 28 23 22 24 24 27 30 29 29 31 32 34 35 34 34
18 24 19 22 27 25 33 32 24 26 21 17 14 13 12 11 12 13 13 11 11 13 16 13 16 20 26 26 26 30 26 25 26 26 28 31 32 32 34 35 37 38 37
25 29 26 29 29 29 27 40 29 23 27 21 16 16 13 12 14 15 13 12 17 15 17 17 21 24 28 29 32 33 32 33 30 28 30 28 29 34 35 36 36 38 40
35 32 32 36 36 37 43 41 29 27 28 26 19 18 17 16 15 14 13 19 22 24 26 28 28 24 25 25 30 31 32 30 29 27 27 30 30 32 34 35 36 36 39
40 40 43 40 46 46 48 49 45 32 31 26 21 18 18 17 15 13 14 18 22 25 26 28 27 25 22 24 27 33 30 30 29 29 26 31 35 29 28 33 35 38 39
39 41 44 46 49 49 51 53 51 33 31 27 23 22 20 22 24 22 20 22 25 26 28 27 30 33 30 24 25 36 33 27 32 31 28 32 30 34 31 31 35 35 37
35 38 42 41 43 48 50 50 47 36 35 27 25 25 23 24 26 27 28 30 25 26 29 31 33 33 32 27 31 36 34 34 33 25 37 33 32 34 37 39 38 37 36
35 36 39 38 39 36 39 36 43 35 34 31 29 29 27 26 29 32 32 34 35 30 28 32 33 33 33 34 32 34 37 40 40 38 39 39 39 38 39 41 38 36 38
28 26 27 30 35 38 36 35 34 31 36 35 31 29 28 25 27 30 37 43 45 32 29 33 34 34 35 35 37 38 38 38 37 37 40 41 39 41 37 37 36 40 41
16 19 25 32 34 31 37 35 30 32 34 34 31 32 30 26 30 35 40 37 41 40 34 34 36 36 35 38 38 35 33 33 34 34 36 36 36 38 37 40 44 44 49
20 27 30 38 30 29 32 29 28 31 33 34 33 32 29 32 33 38 44 36 33 33 31 35 36 33 35 34 29 31 32 33 33 35 30 33 34 38 42 45 46 43 55
24 30 30 31 27 28 28 26 25 30 31 33 30 28 29 33 37 36 35 32 36 34 34 33 34 36 34 27 27 31 33 33 36 37 30 34 38 39 42 42 48 54 61

GFSMA_700_spd_012.txt.gz
Wind_Speed
6 5 5 10 9 9 10 10 11 12 15 17 17 16 12 13 10 8 11 4 6 6 6 7 7 7 4 1 2 1 1 2 3 4 4 5 5 4 4 4 4 4 4
7 6 7 7 8 8 9 12 13 12 14 16 18 20 15 11 10 6 9 3 7 8 7 8 8 8 9 7 4 2 3 4 4 4 4 4 5 5 4 4 5 5 5
8 9 9 10 10 13 11 10 12 12 12 17 15 20 14 11 8 7 5 7 4 9 10 10 10 9 10 10 10 7 4 4 5 5 5 5 5 5 6 5 6 6 6
9 9 9 8 11 9 16 13 15 14 11 18 18 16 12 9 6 7 5 4 7 4 10 12 13 12 11 11 11 11 10 12 10 7 6 5 6 7 8 8 7 7 7
10 10 10 12 14 14 16 13 13 11 16 19 17 14 11 9 1 6 6 5 7 6 7 7 12 14 14 14 13 13 13 13 14 15 9 8 6 7 9 10 11 10 9
11 11 12 12 14 15 16 15 13 19 20 19 13 10 6 9 6 4 3 8 2 4 9 5 7 12 14 16 16 15 16 16 15 16 18 15 12 12 10 10 11 13 13
11 11 11 14 13 12 14 15 17 17 17 15 10 9 7 10 10 4 6 9 6 8 9 7 12 7 9 12 15 18 18 17 17 17 17 20 19 18 16 13 13 14 14
14 11 9 11 9 9 9 9 11 12 12 11 6 1 1 5 8 14 15 7 10 11 8 6 7 12 12 13 12 12 15 19 21 21 21 21 21 21 19 18 18 16 16
10 7 5 5 2 4 7 8 9 9 10 9 5 1 8 5 2 8 15 10 8 10 12 11 7 11 14 15 12 14 16 17 18 21 23 26 27 27 25 23 22 21 19
6 4 4 1 2 4 7 9 12 11 10 9 9 1 9 12 9 5 8 13 15 5 6 9 11 8 14 15 14 14 15 17 17 18 19 20 23 26 29 30 29 27 26
8 6 3 1 1 4 7 10 12 13 12 12 8 8 5 7 13 15 7 6 9 14 20 14 11 12 12 13 14 12 15 16 18 20 21 22 22 23 24 25 28 31 31
9 7 7 3 4 6 8 10 11 13 13 12 10 7 6 7 4 6 11 17 15 9 13 19 20 18 11 11 14 12 13 18 18 20 22 23 25 25 26 26 27 28 30
13 13 9 7 7 9 11 13 16 18 17 15 13 9 10 7 6 10 11 10 12 11 14 11 15 19 22 23 16 15 13 16 17 19 21 23 25 27 28 29 29 30 31
15 10 11 9 11 11 15 16 23 35 34 18 16 14 11 11 9 6 12 11 9 8 14 16 13 16 19 22 24 18 16 18 18 17 19 21 22 25 27 29 31 31 31
19 12 13 15 16 16 15 14 24 30 27 20 15 17 16 13 11 7 10 12 11 12 7 11 15 18 23 22 29 25 25 21 20 21 20 23 26 24 23 25 29 30 32
24 18 16 19 19 22 21 27 27 30 31 24 23 19 18 16 11 9 9 10 9 11 16 13 12 15 21 26 31 33 32 30 29 23 22 24 25 27 27 27 26 30 32
22 27 24 20 25 26 26 28 34 36 38 37 34 28 20 20 13 11 13 9 9 12 15 14 17 17 21 23 26 26 28 27 28 29 27 22 20 22 25 29 30 30 33
28 30 30 29 32 33 34 34 36 40 40 41 39 36 23 20 15 13 13 12 13 15 17 20 20 22 22 21 24 26 32 31 29 28 27 23 22 24 23 26 28 33 34
30 31 33 34 36 38 41 41 43 41 42 42 40 33 26 21 22 21 17 16 17 19 23 27 22 25 26 23 23 25 26 30 25 26 29 29 31 28 27 30 29 32 32
29 32 32 35 37 38 40 42 44 42 42 40 42 34 32 28 26 22 19 19 20 23 25 24 37 32 30 30 27 29 29 30 30 30 28 32 34 29 33 36 35 31 31
29 31 32 32 32 34 35 38 43 45 44 41 41 32 33 29 24 22 24 24 24 26 30 33 35 33 28 28 28 29 33 33 32 34 37 38 37 35 34 36 37 37 37
29 30 31 30 30 31 34 38 42 45 44 35 37 34 31 29 21 26 24 23 26 31 30 34 35 36 33 30 29 30 32 36 38 33 36 36 33 36 36 36 36 37 38
31 29 28 25 26 24 31 35 41 40 35 38 34 33 31 29 26 27 25 26 30 36 36 36 28 26 27 28 31 31 34 36 32 28 31 32 31 36 33 33 31 33 37
27 26 24 25 24 25 31 32 34 35 36 34 31 33 30 28 29 29 25 28 32 29 29 29 32 31 30 29 30 33 33 31 29 30 30 31 30 35 31 29 29 32 33
24 20 22 25 28 29 31 30 29 30 31 29 31 31 30 28 28 26 25 30 31 28 27 30 33 33 32 29 31 34 31 32 31 29 26 28 30 32 30 30 30 31 31
20 18 21 25 30 27 27 24 25 27 27 26 26 27 29 26 24 24 29 28 27 26 28 30 31 33 30 29 32 29 29 28 30 32 30 33 35 32 36 28 28 32 38

GFSMA_700_spd_018.txt.gz
Wind_Speed
2 1 3 3 3 3 4 3 7 9 12 9 16 13 10 8 5 4 2 5 5 6 6 8 8 6 5 5 5 6 7 4 2 3 3 3 2 2 2 2 2 2 2
1 1 3 4 7 7 9 7 13 9 11 14 15 15 10 8 4 4 2 3 6 7 8 7 7 9 8 6 6 4 5 6 4 2 2 2 3 3 3 2 3 2 2
3 4 4 6 3 6 8 8 13 7 10 9 13 12 8 7 6 3 3 3 5 7 8 8 8 8 10 10 10 7 5 5 4 3 2 3 3 2 2 3 3 3 3
6 5 6 7 8 10 10 8 9 8 6 7 12 8 7 4 3 3 2 3 3 5 8 8 8 9 9 11 11 10 9 10 8 4 1 3 4 5 4 4 3 3 4
7 8 8 8 8 10 8 7 5 4 5 9 10 5 3 2 3 4 4 1 1 2 4 7 9 9 10 11 9 10 10 12 11 10 14 9 7 6 5 4 5 5 5
8 8 7 8 9 9 6 7 9 11 10 9 8 1 2 3 4 2 5 3 1 1 3 5 6 7 8 10 12 12 11 13 14 15 17 16 13 12 10 9 8 8 8
12 10 9 8 5 6 10 13 15 16 14 14 8 3 3 2 7 4 6 8 5 1 3 4 5 4 6 6 9 11 12 14 14 16 17 17 17 16 17 16 15 13 11
10 10 7 2 8 9 9 11 14 15 17 17 14 7 3 5 3 0 5 8 7 6 4 3 4 5 5 7 10 10 9 10 13 17 17 17 18 17 17 17 17 16 16
8 5 3 7 8 7 7 10 15 19 24 17 14 11 7 5 5 4 4 7 10 3 5 3 4 5 6 8 10 12 13 14 14 14 16 18 20 21 23 22 21 21 20
9 7 9 7 7 7 8 10 14 15 23 23 9 10 10 7 7 8 6 9 11 9 1 8 6 5 7 9 10 11 13 13 13 14 15 17 18 18 20 20 21 23 25
10 11 10 9 8 7 6 9 12 15 25 20 9 10 11 10 11 11 10 11 13 11 9 8 8 8 6 6 10 12 12 13 13 13 15 17 18 19 20 20 21 21 21
14 14 12 10 7 5 5 6 8 11 19 24 19 17 15 15 14 12 11 13 13 14 15 12 10 9 11 9 6 9 10 12 13 15 17 18 18 20 21 22 22 23 24
15 15 13 10 8 5 5 1 8 14 15 21 21 19 16 16 17 15 13 12 13 14 14 13 11 12 12 10 8 5 7 9 11 13 14 17 18 19 20 22 24 25 26
17 16 14 10 8 8 8 7 10 15 16 20 22 21 20 15 17 14 14 12 10 11 13 15 15 11 11 9 9 10 7 9 12 16 18 21 21 22 23 22 25 26 27
18 17 15 13 12 10 11 10 13 17 19 22 21 22 21 20 18 13 13 12 12 12 12 12 10 10 12 13 13 12 14 13 13 15 16 18 18 21 23 24 27 28 27
19 16 15 15 14 12 13 13 15 19 21 24 24 23 21 21 20 15 14 14 13 12 14 10 9 10 12 13 14 16 17 19 17 16 17 19 20 21 24 25 24 25 27
20 16 14 16 17 18 17 17 18 21 23 25 27 26 23 22 20 17 15 15 15 11 12 14 12 10 13 14 13 18 20 24 25 22 19 19 19 20 22 25 27 26 25
19 15 14 13 15 18 20 20 21 24 26 27 29 30 24 22 18 19 17 17 18 16 19 18 15 14 17 17 19 25 22 21 22 23 25 25 24 24 25 26 28 29 28
17 15 15 14 15 18 21 22 23 26 29 30 31 32 29 23 19 20 18 18 20 19 16 15 19 16 18 18 22 24 24 25 23 25 27 27 28 30 32 32 31 31 33
20 19 18 18 20 22 22 24 25 28 30 32 33 32 33 27 23 21 20 19 20 21 20 20 24 21 24 24 27 28 27 27 28 32 33 31 31 31 32 36 37 38 36
25 24 25 25 24 24 23 24 25 28 27 28 30 31 32 29 25 22 23 21 23 24 24 23 26 25 24 27 29 28 29 28 28 30 32 32 33 35 35 33 31 31 32
29 28 28 29 28 27 25 25 26 26 25 29 33 32 29 27 25 24 23 23 23 28 30 30 29 26 27 28 27 28 30 32 32 29 35 30 34 31 30 29 30 31 31
29 28 29 29 28 28 26 27 25 24 26 30 32 31 27 25 26 26 22 27 24 31 31 33 27 25 28 27 29 30 31 33 33 30 34 34 32 32 29 29 29 30 31
31 31 31 28 25 26 27 24 21 26 29 32 33 32 30 28 27 27 24 31 25 30 32 31 23 27 28 27 31 34 35 36 35 32 34 39 28 29 29 30 30 31 32
34 31 29 25 22 23 25 21 23 28 33 32 32 30 26 23 24 25 26 27 29 25 23 21 24 25 27 30 33 36 36 40 37 34 27 32 28 31 32 32 32 31 33
33 30 24 25 23 24 24 23 26 33 34 30 28 24 22 21 23 24 25 26 21 18 22 24 24 25 31 35 38 38 37 35 34 34 20 30 30 32 36 34 33 31 33

GFSMA_700_spd_021.txt.gz
Wind_Speed
2 2 0 3 5 4 4 4 9 8 6 7 10 12 9 5 5 6 6 8 11 10 10 10 7 6 6 6 6 5 5 6 4 3 3 2 2 3 2 1 2 2 2
4 2 0 3 4 5 10 5 11 11 9 9 11 12 8 3 4 2 5 8 8 10 9 10 10 9 7 6 6 6 5 6 6 5 4 3 2 3 2 2 2 3 2
4 2 2 3 5 6 6 9 12 10 10 10 11 11 7 2 2 4 6 8 8 7 9 9 9 10 11 10 9 6 6 7 6 6 4 4 4 3 4 2 3 3 4
4 2 5 6 8 9 11 11 12 12 11 11 11 11 7 2 3 5 3 5 7 7 8 10 11 10 11 11 11 12 12 10 9 7 5 3 3 4 5 4 4 4 4
4 4 6 6 8 9 9 8 6 8 8 9 9 7 4 4 2 4 3 2 5 6 9 10 10 11 11 11 10 11 12 11 11 10 8 8 5 5 6 6 6 7 7
7 7 6 5 6 5 6 9 11 12 13 12 7 4 2 3 1 4 5 3 0 3 3 7 8 11 11 13 13 12 12 13 14 15 15 15 12 12 11 9 7 8 8
11 9 6 4 1 7 9 12 13 14 14 14 11 6 2 1 1 2 2 5 4 2 3 4 5 6 9 10 12 13 14 14 15 16 16 16 17 17 16 17 15 14 13
13 12 7 1 8 8 12 12 16 17 17 12 9 7 6 3 5 3 6 6 6 4 3 4 4 5 6 9 10 11 12 13 15 17 16 17 17 18 17 17 17 17 17
13 7 6 10 9 10 11 11 12 16 19 7 6 7 8 9 8 8 8 4 7 5 5 4 3 3 5 9 11 12 14 14 15 15 16 18 20 21 22 21 22 21 20
11 10 12 12 11 10 9 9 8 17 19 13 10 11 10 9 8 8 9 9 10 9 6 7 7 8 7 7 8 10 11 12 13 14 15 16 17 18 19 19 19 20 21
12 15 16 15 13 10 8 5 7 13 20 18 14 12 11 10 10 10 9 9 10 12 10 8 8 6 3 5 7 8 10 11 12 13 14 15 16 17 18 19 20 21 21
15 18 19 17 14 11 8 5 6 11 14 19 18 16 12 11 11 9 9 11 12 13 12 13 13 9 8 6 6 7 9 9 10 12 14 16 17 19 20 20 21 22 22
18 20 21 18 14 11 8 5 4 7 10 15 17 17 17 14 14 13 8 9 11 12 12 12 13 13 10 8 7 6 7 8 11 13 16 18 17 17 17 19 20 22 23
20 22 22 19 15 12 10 9 8 9 11 14 16 18 17 18 16 12 10 11 11 11 13 13 12 10 11 9 10 11 11 12 12 15 18 20 20 20 20 19 21 22 23
24 25 23 20 17 15 12 11 12 12 13 15 18 18 18 18 18 16 10 11 12 10 12 12 12 10 9 10 10 11 13 14 14 16 18 19 20 23 23 22 22 23 22
27 27 24 20 17 14 14 13 12 13 15 18 20 22 22 20 17 16 14 12 12 12 11 9 9 10 12 11 12 12 13 16 20 22 23 22 22 23 25 26 25 24 26
28 28 24 20 17 15 16 16 16 16 17 19 21 23 26 24 20 18 15 16 12 14 13 12 10 12 15 16 17 18 20 22 25 26 26 25 24 25 26 27 30 29 28
30 27 25 23 20 18 18 18 18 20 20 21 22 24 25 28 24 21 18 18 14 16 16 17 16 13 16 20 19 20 21 25 28 29 29 29 28 28 29 28 30 31 31
31 29 26 24 22 21 20 20 20 21 22 23 25 26 24 27 28 23 21 19 20 19 19 18 18 14 18 21 23 25 27 27 30 30 30 32 34 34 33 33 32 31 31
31 29 27 23 22 21 21 21 21 21 23 24 25 25 25 25 25 24 24 23 22 23 22 22 21 22 23 24 27 30 33 31 29 27 28 29 32 33 33 35 35 35 36
29 29 28 26 24 23 21 21 21 22 24 24 24 25 26 27 24 22 25 24 24 24 23 26 27 30 30 30 32 32 31 32 28 31 32 32 34 34 34 37 36 36 35
31 30 30 28 26 25 23 22 23 25 27 24 23 28 30 28 24 20 24 26 28 26 27 27 33 33 35 36 33 33 30 31 33 31 34 33 35 37 34 33 32 34 36
35 35 33 31 29 27 25 22 24 26 29 26 26 30 31 29 27 24 25 28 27 28 33 32 34 33 35 34 27 30 30 34 35 34 38 40 36 36 36 37 32 29 29
39 37 35 32 30 27 24 24 24 24 25 28 29 33 32 31 30 26 24 24 25 27 29 27 29 30 25 23 31 30 31 36 38 37 39 43 38 36 34 32 30 30 31
41 39 36 34 31 26 25 24 23 25 28 28 30 34 32 31 28 24 22 23 26 24 27 25 24 23 26 27 29 32 34 40 42 41 38 41 38 36 31 29 30 32 34
42 40 38 36 31 30 27 22 27 29 27 32 36 32 30 26 23 20 21 23 22 24 24 25 25 27 27 27 33 37 40 40 39 37 33 36 33 33 36 32 31 30 32

GFSMA_700_spd_024.txt.gz
Wind_Speed
1 1 1 3 5 6 8 4 8 11 10 10 9 10 8 2 4 5 8 11 10 9 9 7 7 7 6 6 5 5 4 5 5 5 4 3 3 2 3 2 2 1 3
3 2 0 2 4 6 8 9 10 14 10 9 11 9 8 2 3 5 8 11 11 10 8 9 8 6 6 5 5 5 3 3 4 5 6 6 5 3 3 3 3 2 2
4 2 1 2 5 6 9 11 12 13 11 10 10 10 7 3 1 4 7 9 10 10 10 10 10 9 8 6 7 6 3 4 5 6 5 4 5 4 3 4 4 3 3
3 3 1 3 5 7 9 10 9 9 8 7 8 9 6 2 4 2 4 7 9 10 10 11 10 10 10 10 10 10 8 9 10 6 3 6 5 5 5 5 5 4 4
4 4 2 3 6 6 6 7 8 10 10 8 7 7 4 1 3 2 4 4 6 8 10 9 10 11 11 11 11 12 12 11 9 9 6 10 5 5 6 7 8 7 6
6 4 2 3 3 6 8 8 9 10 10 8 6 3 2 2 3 3 3 2 2 4 5 10 12 11 11 12 13 12 12 12 13 14 13 14 13 10 9 11 11 10 8
9 7 2 1 3 8 9 10 11 11 13 9 9 7 5 5 4 5 5 3 4 1 3 3 6 10 12 12 13 15 15 14 13 15 16 17 17 17 18 16 18 18 15
10 8 5 4 9 10 10 10 9 10 10 6 9 11 9 9 7 4 6 5 7 5 4 2 3 5 6 9 9 12 13 14 14 16 18 18 18 18 18 18 19 18 14
10 9 8 14 14 12 10 7 11 11 8 8 10 12 11 9 9 7 6 6 6 8 7 5 3 2 3 7 9 11 13 15 15 16 16 18 21 21 21 20 21 21 20
10 12 15 18 16 13 10 6 12 16 15 13 12 12 12 11 9 8 7 8 8 7 6 7 8 8 6 5 5 7 9 11 13 15 17 19 20 21 21 21 21 21 22
12 16 21 20 17 14 11 7 9 16 17 16 16 14 13 12 11 9 7 7 8 9 8 8 8 7 5 8 9 8 7 7 10 12 14 16 17 18 19 20 21 21 21
13 21 23 21 19 16 14 9 8 7 9 13 15 14 14 13 12 12 7 6 7 9 10 10 10 8 5 7 7 7 7 7 8 10 13 15 16 18 20 20 21 22 22
16 23 24 21 19 18 15 10 4 1 4 8 12 14 13 14 13 13 8 6 7 8 8 9 10 11 10 8 8 7 8 9 11 12 14 16 17 18 20 21 21 21 21
18 25 26 24 21 18 15 12 8 5 5 8 11 12 14 15 17 18 13 9 8 7 7 9 9 8 7 8 9 10 9 10 11 11 13 15 16 17 18 18 19 21 24
23 29 30 27 24 20 17 14 12 11 9 9 11 13 13 13 14 15 16 17 12 10 8 8 10 10 9 8 9 11 13 14 15 16 17 19 20 20 21 21 21 21 20
26 31 33 29 26 22 19 18 15 13 11 12 13 15 16 17 15 13 13 13 15 13 10 11 11 11 10 12 13 13 15 18 19 21 24 26 27 26 26 25 26 26 26
29 33 33 31 28 23 21 19 17 15 13 14 15 15 16 18 20 17 15 13 13 17 11 14 15 13 14 15 16 17 19 20 22 24 28 29 31 30 28 28 28 28 28
30 35 35 32 28 24 21 20 18 16 16 16 17 18 18 18 18 18 17 16 16 16 17 18 17 17 18 19 19 21 22 22 23 26 29 30 30 29 31 32 32 31 29
32 36 37 34 30 25 22 21 21 19 18 17 18 20 21 21 20 18 19 19 19 20 21 16 18 21 22 24 23 25 27 29 29 31 30 30 29 29 28 29 30 31 32
33 36 37 35 31 27 25 25 22 20 20 20 20 21 22 24 22 23 23 21 22 23 23 21 22 24 25 27 28 28 31 33 33 33 32 29 30 33 34 34 34 34 32
32 37 39 37 33 30 26 24 22 23 23 23 22 22 24 23 24 24 24 26 26 26 28 28 24 26 29 30 32 34 34 35 31 31 33 31 31 31 31 33 33 34 36
33 37 40 38 35 32 28 25 25 25 24 25 23 21 26 28 24 24 25 27 28 29 29 29 26 27 23 30 32 35 38 29 26 31 34 29 31 33 34 37 35 34 34
39 36 38 39 36 34 31 27 27 27 28 27 25 25 26 28 30 27 27 27 30 31 31 29 29 27 26 29 28 30 30 28 31 31 36 37 36 37 35 36 33 33 30
42 41 39 39 38 36 33 30 29 30 30 28 26 26 28 33 30 28 30 32 30 29 23 28 29 24 25 23 24 26 30 30 31 33 38 42 39 36 33 31 31 29 28
43 44 44 42 40 37 35 33 31 33 28 22 25 30 30 31 29 30 32 31 28 26 25 27 26 25 24 23 27 29 31 33 35 35 35 37 36 35 32 28 27 29 32
46 45 45 45 43 42 39 36 37 34 31 27 29 29 32 32 31 32 31 28 28 24 27 28 26 24 24 25 28 30 30 33 34 34 33 32 31 33 35 30 29 29 31

GFSMA_700_spd_027.txt.gz
Wind_Speed
2 1 1 2 3 4 8 7 9 14 12 11 10 7 6 1 1 4 8 11 10 9 8 6 5 5 4 4 4 5 5 4 4 3 3 2 2 2 2 2 3 3 2
2 1 1 3 4 6 7 8 9 12 12 10 9 8 6 1 1 3 6 9 9 9 8 9 7 6 5 4 4 4 3 2 3 4 4 4 4 3 3 3 4 4 3
4 2 1 3 4 5 6 9 9 12 9 9 3 6 6 2 3 5 7 7 9 9 9 9 9 8 7 5 6 5 2 5 5 5 5 5 4 4 5 4 4 5 5
7 4 1 1 3 5 6 7 5 5 7 7 6 6 5 2 4 5 8 9 9 10 10 10 9 10 10 9 8 9 7 8 8 6 6 5 4 6 5 6 6 6 6
7 5 1 1 3 4 5 5 7 8 9 8 7 6 1 2 6 3 6 7 7 9 9 10 10 10 11 11 10 11 11 12 11 11 8 9 14 6 5 5 7 9 9
8 5 2 1 1 4 5 6 6 8 10 9 7 5 4 3 1 3 4 4 4 5 6 10 11 10 11 12 13 12 11 12 12 11 13 12 13 12 10 10 10 11 10
10 8 4 2 5 6 5 4 5 8 9 7 7 8 9 8 5 5 3 4 3 2 4 4 7 10 11 14 14 14 14 14 13 13 15 18 18 17 16 18 19 18 17
10 9 6 5 10 9 7 5 9 8 3 7 9 11 11 11 8 6 6 6 6 5 2 1 3 5 7 9 11 12 13 14 15 16 16 18 19 20 20 23 24 24 18
12 10 8 11 14 11 8 8 10 9 10 10 11 11 11 10 10 9 8 7 7 7 5 4 3 3 3 6 9 11 13 14 15 17 17 17 17 18 21 22 22 24 23
14 14 11 17 17 14 10 9 12 11 10 11 11 11 11 10 8 6 5 5 5 5 6 7 8 6 2 3 5 8 10 12 14 15 17 18 19 20 20 21 22 23 23
14 15 17 21 20 17 12 9 12 13 14 14 13 13 13 12 11 6 3 4 5 5 5 5 6 7 7 8 7 6 6 7 9 11 14 16 17 17 18 19 20 21 22
12 16 23 23 22 19 16 12 9 8 9 11 12 13 14 14 14 13 8 4 4 5 6 6 6 7 6 7 8 8 8 7 8 10 11 13 15 17 19 19 19 20 21
12 19 26 25 22 20 20 15 11 5 3 5 7 9 11 12 12 12 12 9 8 7 6 6 7 7 8 8 9 9 9 10 11 11 11 12 13 14 16 19 20 20 21
14 20 27 27 26 24 21 18 13 9 5 3 3 6 8 10 11 10 9 9 9 9 10 10 9 8 9 9 9 9 10 11 12 13 13 13 14 16 16 16 17 18 18
19 24 29 28 28 27 23 19 16 13 10 8 6 7 8 8 10 10 10 9 9 8 10 12 13 11 11 12 12 11 12 14 14 16 18 19 19 21 22 23 22 20 18
20 26 33 33 31 28 25 21 18 15 12 10 9 9 11 12 12 10 9 10 10 12 14 13 15 16 15 15 17 17 15 16 18 20 21 22 25 26 25 24 24 23 23
22 26 35 36 34 31 27 24 21 18 14 13 12 13 14 14 14 13 11 10 11 12 14 15 17 18 18 18 20 20 20 20 24 24 22 24 27 28 28 25 24 25 26
24 27 33 40 37 33 31 27 23 20 17 17 17 17 18 17 16 15 15 14 14 14 14 16 15 19 20 23 23 23 24 24 22 24 28 29 29 31 30 26 24 25 27
28 30 34 40 39 36 34 29 25 23 21 20 21 20 21 21 19 17 18 18 19 20 17 18 17 19 22 24 26 27 28 29 29 28 31 31 33 34 30 29 29 30 29
29 32 34 39 40 38 36 32 28 25 23 23 23 22 23 24 25 23 19 20 22 24 23 21 22 23 23 25 28 29 30 31 33 34 33 36 31 30 33 34 31 30 30
29 33 36 39 43 42 39 35 31 27 26 26 25 26 27 27 28 24 23 22 25 25 25 25 26 24 23 24 28 28 27 31 32 34 35 28 32 32 33 33 34 34 34
29 34 37 39 45 45 41 38 35 31 29 29 29 28 30 30 32 27 27 25 25 26 25 26 28 27 25 22 29 26 27 28 27 27 26 30 30 30 33 36 34 32 30
32 35 38 38 43 45 43 41 37 35 33 32 32 32 32 32 33 32 29 25 27 26 24 25 27 26 23 25 26 28 29 29 27 29 28 29 30 32 31 31 31 29 28
36 37 39 39 39 46 46 44 41 39 38 37 36 33 33 34 31 33 31 26 28 26 25 25 25 27 26 28 26 26 24 26 27 28 30 35 33 30 28 27 26 27 28
37 40 41 43 41 43 48 47 45 44 43 41 40 35 32 33 27 34 29 25 27 26 25 24 26 29 26 27 25 25 26 27 29 30 32 31 31 30 29 27 27 28 28
41 39 42 45 45 44 45 46 47 47 48 44 43 36 34 33 29 30 26 26 27 25 24 24 26 28 26 27 25 24 27 29 30 31 30 27 28 29 29 25 23 26 29

GFSMA_700_spd_030.txt.gz
Wind_Speed
3 3 2 3 3 4 5 7 7 9 9 8 8 5 3 2 2 3 8 10 8 6 5 4 3 4 4 4 3 4 4 3 3 3 3 3 2 2 2 3 3 4 4
3 3 2 2 3 5 7 7 6 9 11 7 5 4 4 2 3 5 5 10 8 7 6 5 5 4 3 3 4 4 4 3 3 5 4 4 3 4 4 4 3 3 4
3 2 1 3 4 5 3 4 6 7 7 8 2 2 3 5 0 5 5 4 9 7 7 8 8 6 6 5 5 5 4 3 4 4 5 5 4 4 5 5 5 4 5
5 2 2 2 4 5 2 4 5 6 6 7 4 4 3 2 3 3 5 5 7 5 9 9 9 10 10 8 8 9 9 7 6 6 6 8 4 3 5 5 5 6 6
9 7 3 1 3 2 2 3 4 6 7 7 6 3 2 3 7 2 4 6 7 7 7 9 10 10 11 10 12 11 12 11 11 11 13 12 12 11 7 6 6 7 7
10 8 5 2 1 2 2 2 4 7 6 5 4 2 5 3 5 4 2 1 6 7 8 9 9 11 11 12 12 13 12 12 13 12 11 14 12 10 11 12 12 10 10
11 9 5 2 3 3 1 3 5 4 4 6 7 8 6 5 5 4 5 4 2 4 5 6 9 12 12 12 13 13 14 15 14 13 12 15 17 18 19 18 15 16 16
11 11 7 5 6 5 2 5 5 4 6 8 10 8 5 6 4 4 4 4 2 1 1 4 6 7 10 10 11 13 13 13 14 15 16 16 17 19 21 21 20 21 22
11 11 10 9 11 8 3 5 8 9 9 8 8 10 7 3 4 4 3 3 3 4 3 1 1 2 5 7 9 11 13 14 14 15 16 16 17 18 19 21 22 22 22
12 13 13 13 15 11 6 5 7 8 9 9 9 10 9 6 6 3 1 1 2 0 1 3 4 3 2 4 6 8 10 11 13 14 15 16 17 18 19 20 20 20 21
14 14 16 18 19 16 11 9 11 12 12 11 11 12 12 11 9 4 3 6 4 3 4 3 4 5 4 5 6 6 6 8 9 10 12 13 14 14 15 16 17 17 18
14 14 17 23 23 19 15 12 11 10 10 9 9 10 10 10 10 10 6 1 4 9 8 8 7 7 8 8 8 9 10 10 10 11 11 12 13 13 13 13 14 15 15
14 13 18 24 24 23 19 17 13 9 6 5 4 6 7 7 7 7 6 6 5 6 8 9 10 10 10 10 12 11 10 11 11 11 11 10 10 12 13 14 14 14 15
17 17 20 26 26 26 24 20 16 12 8 5 2 1 2 4 5 5 5 5 8 10 11 11 13 12 13 12 13 12 11 11 11 11 11 13 15 15 15 16 17 18 17
19 20 22 27 29 28 28 24 21 16 12 9 8 7 6 6 6 7 6 6 6 6 8 14 12 14 15 17 17 15 14 14 15 16 17 19 19 19 20 21 21 20 20
20 22 24 30 31 32 30 26 24 20 16 14 12 11 11 11 10 9 8 8 9 9 10 10 11 13 16 19 19 19 19 19 19 18 20 20 23 25 25 24 23 22 20
22 23 25 32 34 33 33 30 27 24 20 18 15 13 14 15 16 14 13 12 12 12 12 14 16 18 17 18 20 21 21 21 23 21 22 23 23 26 27 27 27 23 22
25 24 26 32 37 36 34 32 30 28 23 20 18 17 17 19 18 18 16 15 16 15 16 18 21 20 19 18 20 22 22 24 23 28 26 28 29 28 28 29 27 27 26
27 28 28 31 37 40 39 35 32 31 27 24 22 21 21 23 22 22 18 17 18 18 18 21 22 23 22 21 22 24 23 26 26 28 28 31 31 31 31 27 30 32 29
26 28 31 31 33 41 42 39 36 34 31 28 26 24 24 25 25 25 24 21 21 21 20 22 23 25 25 23 21 23 26 27 27 26 30 32 33 34 27 26 26 31 34
30 26 29 33 34 37 42 42 39 37 35 32 30 28 27 27 26 28 29 28 27 24 25 23 23 25 26 26 25 26 24 28 27 26 25 28 27 28 30 28 30 29 33
32 30 27 30 35 37 37 41 42 40 37 36 34 32 31 31 30 31 31 33 33 28 25 25 24 25 25 24 26 25 24 27 27 30 27 26 30 29 27 29 31 32 31
35 32 32 29 31 34 36 40 42 43 41 40 38 37 36 36 32 33 34 35 37 30 25 26 24 24 24 23 25 25 28 27 25 26 26 26 26 28 29 29 31 29 30
39 36 34 35 33 32 35 37 45 46 46 45 44 42 40 39 37 36 35 37 37 32 24 27 23 22 22 24 25 27 25 24 24 25 30 28 28 30 27 25 31 29 30
43 42 42 38 38 36 36 37 42 48 50 50 47 47 46 44 41 38 39 37 37 31 25 27 25 25 22 23 24 25 22 23 24 24 32 29 28 30 28 26 27 31 29
43 46 47 43 39 40 42 43 42 48 53 54 53 51 49 48 45 41 42 40 39 28 26 26 26 25 23 24 25 23 22 24 25 26 32 27 27 29 31 27 27 30 32

GFSMA_700_spd_033.txt.gz
Wind_Speed
2 6 1 3 4 3 5 6 6 6 3 5 6 9 2 9 11 9 6 7 5 4 2 2 2 2 2 1 2 2 2 2 1 1 2 3 4 4 4 3 3 4 4
5 3 2 4 3 4 4 7 6 2 5 4 2 1 5 4 10 11 2 6 5 4 4 2 2 2 1 1 1 2 2 2 2 3 3 4 4 5 5 5 5 5 6
4 7 2 2 1 4 4 2 3 7 13 9 4 9 5 5 1 10 5 7 6 6 5 5 6 4 4 4 3 4 3 2 4 4 4 4 5 5 4 5 5 5 6
5 2 3 3 4 6 3 5 2 6 3 2 3 7 7 4 2 8 8 5 7 3 8 7 7 7 7 7 6 6 7 7 5 6 7 7 6 5 5 9 7 6 6
6 4 1 4 5 4 4 2 3 5 3 5 14 4 3 6 12 5 9 6 4 5 7 8 8 8 8 9 10 10 10 10 11 10 11 11 8 11 10 6 9 9 9
7 6 5 4 4 3 1 2 4 4 1 3 10 7 6 6 5 3 13 4 8 3 9 11 9 3 9 10 11 11 12 12 12 11 12 11 11 11 7 9 13 13 13
10 9 6 5 3 6 3 5 7 5 3 2 8 5 4 5 9 9 5 2 5 4 6 7 6 9 5 11 12 12 12 12 14 14 13 12 13 14 15 17 16 14 15
10 10 10 7 5 6 3 6 4 5 3 2 11 5 6 4 5 3 5 3 6 3 3 2 4 6 8 10 9 10 11 12 12 13 14 15 15 16 17 17 17 18 18
12 11 11 10 8 7 4 1 5 5 4 4 6 14 7 3 1 6 5 5 3 3 4 4 4 3 6 8 8 9 10 12 13 14 14 15 16 17 17 18 19 19 19
12 12 13 12 12 11 6 4 4 5 6 8 8 8 11 11 9 3 5 7 4 3 4 7 9 4 5 7 8 9 10 10 11 11 11 12 13 14 14 14 15 16 17
15 14 15 14 13 14 8 6 6 8 10 11 10 9 9 9 7 8 5 8 15 10 8 3 1 10 7 9 9 9 9 9 8 8 9 9 11 11 11 11 12 13 14
15 14 14 15 16 19 13 9 11 10 9 9 9 8 8 9 7 8 3 7 8 10 8 10 10 7 10 11 10 10 10 10 9 9 9 9 9 10 12 12 12 12 13
14 12 14 15 19 22 18 15 13 10 8 7 6 5 5 6 5 5 5 2 1 3 11 7 9 9 7 9 10 12 11 11 11 11 11 11 13 15 16 16 17 17 16
16 17 14 17 20 25 23 19 17 13 9 6 3 1 2 3 5 6 6 5 7 10 15 10 14 11 13 12 13 15 15 12 12 12 11 13 15 15 16 17 18 19 19
18 18 17 18 22 27 27 23 21 17 13 10 8 5 4 4 6 8 8 7 6 2 6 17 11 13 11 17 15 16 17 16 16 16 15 14 14 15 18 21 21 20 21
19 20 18 20 23 27 28 27 26 22 18 15 13 11 10 10 8 8 10 10 9 8 6 9 16 13 16 17 20 15 15 14 16 17 16 17 19 21 23 24 22 21 20
23 23 21 22 22 27 29 29 28 26 21 20 19 17 14 16 14 11 12 13 13 12 12 12 14 18 16 17 21 17 18 17 16 16 14 18 21 23 24 25 25 24 20
26 24 25 23 25 27 31 31 30 29 26 23 22 21 18 19 18 17 15 15 16 16 15 17 17 25 20 19 19 21 20 20 18 23 23 23 23 26 26 26 27 22 21
31 29 29 27 26 26 29 33 32 33 31 27 26 24 22 22 21 21 20 20 18 17 17 18 20 22 25 24 22 21 21 20 20 24 27 22 23 25 25 23 22 21 27
30 28 29 29 28 28 28 30 33 33 33 31 29 29 27 26 25 23 25 23 24 21 20 21 21 22 27 28 26 23 24 24 22 22 23 28 29 27 25 25 24 23 24
25 25 25 26 28 30 31 30 32 36 36 36 35 34 33 31 28 27 27 28 28 27 24 26 25 24 25 26 25 25 25 23 21 25 23 24 25 31 34 34 33 29 23
28 29 28 28 27 29 31 31 31 35 38 39 40 39 36 36 34 31 30 31 32 31 28 24 26 27 26 29 26 25 25 24 24 20 26 24 24 28 30 26 32 33 31
35 34 34 34 32 30 28 30 33 33 38 41 42 43 42 40 38 37 35 34 36 34 33 29 24 26 27 29 28 25 25 25 25 23 24 22 22 27 27 29 29 26 27
40 41 41 41 38 33 32 30 33 35 36 42 44 45 47 45 44 41 40 39 39 39 36 32 26 26 27 29 27 24 26 25 24 21 22 24 24 26 27 23 28 28 27
44 43 43 42 40 36 34 34 33 37 38 41 45 50 50 50 49 47 45 45 43 42 40 35 28 30 27 28 25 25 24 24 23 23 26 26 25 27 27 25 25 29 33
38 43 45 46 41 37 37 35 36 39 43 42 43 48 53 54 52 52 51 47 48 44 43 40 30 30 29 30 28 25 25 23 23 26 22 25 27 28 27 24 25 29 33

GFSMA_700_spd_036.txt.gz
Wind_Speed
6 3 6 4 6 5 5 10 9 6 6 2 5 6 5 10 10 4 1 3 1 2 3 3 3 2 2 3 2 1 1 1 2 2 3 5 6 6 6 6 6 7 7
3 3 7 4 9 9 3 5 6 7 4 5 2 5 2 5 12 2 4 2 2 2 1 1 1 1 2 2 2 1 1 2 2 3 3 3 4 6 6 6 7 7 7
3 3 3 3 6 6 3 3 6 9 7 10 6 11 7 3 5 4 5 5 3 2 1 1 1 2 3 3 2 2 2 2 5 5 4 4 5 5 5 5 6 8 8
3 2 1 4 4 6 4 3 5 5 8 14 10 3 6 6 12 4 4 6 2 1 4 4 2 3 4 4 5 4 5 6 6 5 6 7 8 4 5 6 6 6 8
5 5 3 3 6 3 5 7 6 4 6 9 8 9 7 10 8 9 7 5 4 2 2 3 5 5 6 6 6 7 8 8 9 9 11 10 8 7 8 2 6 9 9
4 4 3 1 5 6 6 6 6 5 1 6 5 4 4 4 6 13 9 4 12 7 1 5 4 6 6 6 8 8 9 9 9 9 10 10 9 9 8 6 9 11 14
5 5 5 4 5 4 5 7 10 5 6 6 5 0 7 6 11 13 6 6 11 8 7 10 9 4 6 6 7 9 11 11 10 10 11 11 11 12 12 12 14 15 15
6 7 6 5 5 3 5 8 7 5 8 4 13 9 10 12 8 7 6 9 1 7 5 8 8 7 8 8 9 8 8 8 9 10 10 11 11 12 12 14 15 14 15
8 9 10 8 5 4 1 3 4 3 8 6 6 11 9 1 1 6 6 8 6 7 6 8 9 10 10 9 9 8 6 7 7 8 9 10 10 11 12 12 13 14 16
9 10 10 10 6 6 2 2 2 2 7 9 7 8 11 5 0 2 5 10 13 12 9 12 10 9 10 7 5 7 9 10 10 9 8 8 8 8 9 9 11 12 13
12 11 11 11 9 8 6 3 3 4 8 9 12 10 7 5 5 3 2 9 9 13 12 7 12 9 8 9 9 9 10 11 10 9 9 10 11 11 11 11 10 10 11
13 13 11 12 12 10 9 6 8 7 8 7 8 11 7 6 4 2 3 8 12 12 12 14 9 9 9 12 10 9 12 12 11 11 9 9 9 10 11 13 14 15 15
12 12 12 12 13 13 14 11 10 10 8 7 6 6 6 5 5 3 5 3 5 8 12 12 16 12 8 11 13 12 11 9 9 10 11 10 12 13 14 14 14 15 15
12 12 12 11 14 16 18 17 15 13 10 7 4 2 1 3 4 4 4 4 3 8 13 13 17 16 13 11 13 14 11 9 9 9 9 10 11 13 13 15 18 19 18
15 15 12 12 13 16 19 21 19 17 13 10 7 5 4 4 4 4 5 6 6 6 7 11 14 14 14 18 17 15 14 10 11 11 11 11 11 13 17 18 18 18 20
16 17 14 13 15 15 18 23 24 22 20 15 12 10 9 10 9 7 7 7 7 7 7 12 14 14 12 16 17 17 17 14 13 12 12 10 12 15 17 19 20 18 20
18 20 20 15 15 17 18 22 25 26 24 21 17 14 13 15 14 12 10 11 11 10 9 10 14 19 18 20 21 20 19 17 17 16 11 12 15 15 16 19 18 19 19
21 19 22 20 18 18 19 22 23 26 26 24 21 19 17 17 18 17 15 14 15 15 13 12 14 18 20 20 21 22 21 20 18 19 16 14 12 13 16 18 17 20 22
22 22 22 24 20 21 21 22 25 27 29 25 25 25 23 21 21 20 20 20 19 19 17 15 14 18 22 23 23 21 20 20 19 20 14 17 15 18 17 18 20 23 21
26 26 25 25 27 24 25 24 25 28 30 31 29 28 27 27 24 23 24 24 25 24 21 21 17 16 20 25 26 24 22 19 14 21 20 21 13 17 19 20 24 21 15
20 22 24 26 24 25 25 26 24 25 27 31 33 32 29 29 29 27 28 28 28 30 28 26 24 22 20 22 25 27 27 29 26 17 21 23 18 22 22 24 26 27 26
24 24 24 24 23 21 21 22 25 26 27 28 32 35 35 33 33 32 32 32 32 32 32 31 30 28 24 23 24 26 27 28 27 23 24 22 20 19 21 24 26 25 23
26 25 25 25 24 22 22 23 23 24 27 30 30 34 39 38 38 37 37 36 37 37 35 33 33 30 27 26 26 26 26 28 28 27 26 23 21 21 23 23 24 23 20
31 29 29 27 27 25 25 24 26 28 29 29 33 33 38 41 42 41 41 42 40 41 40 39 36 33 29 29 27 25 26 27 30 27 27 22 21 22 19 20 22 23 20
35 35 34 34 33 32 32 31 33 34 34 34 34 35 37 40 43 44 45 46 45 45 43 43 41 38 35 31 30 26 26 28 32 27 28 25 24 22 17 18 21 22 21
40 41 40 39 38 38 38 38 40 43 44 40 40 42 42 41 41 44 48 49 49 48 46 45 46 44 39 35 32 26 27 31 34 30 29 28 25 20 17 17 21 22 21

GFSMA_700_spd_039.txt.gz
Wind_Speed
6 10 6 3 7 7 3 10 9 12 6 2 2 1 2 3 4 4 1 5 5 6 5 5 5 5 5 4 3 3 4 4 3 3 3 4 4 5 6 6 7 7 7
5 6 5 7 8 5 6 8 11 8 4 10 6 4 2 2 3 1 2 4 3 3 3 4 4 4 3 3 3 3 3 4 5 4 4 4 5 5 5 6 7 8 9
4 3 3 4 5 7 7 7 3 4 12 13 12 5 5 2 11 4 3 1 3 1 1 1 0 1 1 1 2 3 2 2 4 3 3 5 6 4 4 5 5 7 6
3 3 2 4 7 8 4 7 6 11 11 12 15 7 6 5 10 1 3 4 3 7 1 2 2 2 2 3 2 1 2 3 3 4 4 6 7 3 5 4 3 5 6
5 4 1 1 6 7 9 7 6 6 6 5 9 13 11 10 7 14 9 5 6 2 3 3 3 1 3 3 3 4 4 5 6 7 7 6 6 4 4 2 2 6 9
5 6 4 2 6 8 8 6 4 5 2 2 3 7 4 8 8 10 11 9 7 4 3 3 4 4 3 4 5 5 5 5 6 5 6 7 6 5 5 5 8 11 13
5 6 4 1 5 6 7 9 6 4 3 5 15 8 4 12 7 6 6 8 12 6 7 10 8 7 8 6 3 3 4 3 5 6 5 6 7 7 7 8 10 12 12
6 6 6 3 1 6 5 6 9 7 9 16 14 17 15 11 10 8 11 11 14 12 12 10 11 12 9 6 8 9 7 6 5 6 7 6 6 7 9 10 11 12 13
7 5 5 5 1 4 3 4 8 7 6 9 8 13 11 5 6 8 8 8 16 12 12 10 10 11 9 11 11 12 11 9 8 8 8 8 7 7 7 6 8 10 11
7 7 7 6 4 3 3 3 7 7 6 8 9 7 7 7 8 4 11 13 13 11 11 8 9 9 10 9 8 9 9 10 10 10 9 9 9 9 9 9 9 9 9
9 8 7 7 7 3 6 3 5 8 7 7 10 9 8 9 7 10 11 10 13 12 13 14 12 10 9 8 8 8 8 8 7 7 8 8 9 10 10 10 10 10 11
10 8 8 8 8 4 6 5 7 10 9 8 7 8 9 9 9 8 8 5 8 14 14 17 19 15 15 11 8 8 8 7 6 6 5 4 4 5 7 8 10 11 11
9 9 8 8 8 8 8 8 8 11 10 9 6 6 6 7 7 8 9 9 9 10 12 12 15 14 15 15 14 11 7 6 5 5 4 4 5 6 6 8 11 13 13
9 10 8 7 11 10 9 12 11 11 10 9 7 5 5 4 6 8 8 8 9 10 9 11 13 14 15 16 16 14 12 9 8 7 7 6 6 7 9 11 13 14 15
12 11 11 10 10 9 10 13 14 14 12 10 8 5 3 1 3 5 6 7 7 9 9 10 9 11 12 14 14 15 15 13 12 10 10 9 7 8 10 12 14 13 14
13 12 11 10 10 10 10 12 17 17 17 14 11 9 7 5 3 4 5 6 7 8 10 10 12 13 11 13 15 14 14 16 15 13 11 10 9 10 10 12 12 10 11
16 16 13 10 10 10 11 12 15 21 20 19 17 15 12 11 9 8 8 8 7 8 10 13 12 13 14 13 15 16 16 17 18 16 12 10 10 9 9 12 13 11 15
18 18 16 13 12 12 14 14 14 19 22 22 21 21 18 17 15 14 12 10 11 12 10 10 17 15 15 16 15 15 17 17 16 15 14 12 12 10 10 12 14 14 15
19 19 20 18 15 13 14 15 14 15 19 21 23 24 23 22 19 18 18 17 15 15 15 15 14 18 19 18 17 16 16 16 16 16 15 13 13 11 10 13 14 16 11
21 20 20 20 18 15 16 18 18 17 18 20 22 23 24 24 22 22 24 22 23 22 20 20 18 18 19 19 20 18 16 18 17 16 18 19 17 15 9 15 18 16 11
22 22 22 21 19 18 15 17 19 20 19 20 23 23 24 26 26 25 27 27 27 28 27 26 25 24 21 21 23 21 19 19 19 18 18 18 21 18 14 16 20 19 14
20 20 21 19 19 17 16 15 16 19 20 21 24 26 26 26 28 30 30 31 32 32 33 31 31 30 27 25 26 23 20 20 21 19 20 19 21 21 18 20 19 19 14
24 22 21 21 19 18 17 17 17 19 19 19 21 25 29 30 30 31 33 35 37 37 36 37 37 35 33 30 32 30 24 22 21 21 20 22 23 27 26 21 21 18 14
29 26 25 23 22 21 21 21 21 23 25 26 25 25 27 30 33 35 36 38 40 40 40 41 41 40 37 34 37 35 30 26 24 18 20 22 24 35 31 23 23 19 14
33 32 30 28 27 25 25 28 31 32 32 32 33 34 34 33 34 35 39 41 41 43 41 43 43 43 42 40 40 38 35 29 26 23 19 13 18 36 34 24 23 19 15
37 36 34 32 31 29 30 32 35 39 39 39 40 40 41 41 43 42 41 43 44 44 43 42 43 46 45 44 44 40 36 32 30 30 23 21 18 22 36 26 21 21 16

GFSMA_700_spd_042.txt.gz
Wind_Speed
8 5 2 6 6 7 8 6 4 7 6 6 7 6 5 5 7 6 7 6 6 7 8 6 5 5 5 5 4 4 5 5 4 4 4 5 5 5 6 7 7 7 8
5 6 5 9 9 5 6 6 9 4 1 5 2 3 0 7 7 8 6 5 5 5 5 4 4 5 5 4 5 4 4 5 5 5 5 5 6 4 5 5 6 6 7
7 4 5 6 6 6 4 8 8 11 7 9 7 4 8 9 11 7 4 3 4 3 3 2 1 2 3 3 2 2 2 2 4 3 3 4 5 3 3 2 3 4 5
6 5 5 7 7 5 6 6 9 7 11 11 7 10 12 15 7 6 3 6 5 2 3 1 1 1 1 0 1 1 2 2 1 1 3 3 2 2 3 3 2 2 4
5 4 2 4 6 4 6 7 3 4 9 10 8 16 13 9 10 10 8 5 2 1 2 2 1 1 2 1 2 2 4 3 3 3 4 4 3 3 5 4 5 6 9
5 4 3 4 6 5 8 6 1 4 3 8 7 8 9 8 11 10 8 9 5 7 5 4 2 3 3 1 2 4 4 4 4 5 5 5 5 4 5 6 8 11 12
6 6 5 2 4 5 9 8 5 5 4 9 6 11 9 4 11 9 14 14 12 12 10 10 10 8 5 4 2 2 1 1 1 3 4 5 5 5 6 7 8 10 11
7 6 4 2 2 4 6 9 5 6 10 13 14 14 15 10 11 11 11 14 13 12 11 12 11 9 11 9 8 7 7 6 6 4 2 2 3 4 5 6 7 9 9
8 7 6 5 3 3 5 7 5 6 7 7 8 12 10 7 8 13 12 13 15 12 11 11 9 9 9 10 9 9 10 8 8 7 7 6 5 4 4 4 5 7 8
9 8 8 6 5 5 6 6 5 6 8 9 11 13 12 7 10 13 15 12 14 14 13 9 8 8 9 8 7 7 7 7 7 7 6 6 6 5 5 5 6 7 8
10 9 8 7 7 6 6 6 5 7 10 11 13 13 12 10 12 9 8 13 14 16 17 14 12 9 8 5 5 5 5 5 5 4 4 4 4 5 6 6 7 9 10
11 9 8 6 6 8 9 8 9 9 13 12 12 11 11 11 9 9 9 10 13 15 13 14 14 12 10 7 5 3 3 3 3 3 4 4 4 5 5 7 8 10 10
9 8 9 8 7 10 11 10 12 10 11 11 11 9 9 9 10 10 11 10 9 11 12 11 13 14 12 12 11 10 8 5 5 5 6 5 5 5 6 8 10 10 11
12 13 11 11 10 10 13 14 14 13 10 9 9 9 8 8 8 8 9 8 8 7 8 10 11 12 10 9 10 10 10 9 8 8 7 6 6 8 9 10 12 13 13
15 14 11 11 11 10 13 17 16 16 13 11 9 8 6 5 5 5 6 7 6 7 7 8 7 8 8 8 8 9 9 9 9 9 10 9 8 10 12 10 11 12 13
16 15 12 11 12 11 11 15 19 19 18 15 13 10 8 5 3 1 1 2 4 6 8 10 10 9 8 8 8 8 9 10 10 9 10 11 11 12 13 11 11 11 14
18 17 15 13 14 13 13 12 17 21 20 19 17 14 13 11 7 5 5 5 6 7 8 10 11 12 11 11 13 14 13 13 11 10 9 11 11 11 13 13 12 12 15
20 18 16 15 15 15 12 8 10 16 21 21 21 20 17 16 13 12 11 9 9 9 10 12 13 14 14 13 13 13 15 15 13 13 10 10 9 12 14 15 13 12 15
22 22 20 17 12 11 11 10 10 12 15 20 22 23 21 22 19 18 17 16 16 16 16 14 14 17 17 17 16 14 15 16 17 13 13 12 11 10 12 13 12 14 14
22 23 21 17 14 14 15 14 13 13 13 15 20 23 24 25 25 24 24 24 23 23 23 23 21 21 20 20 21 18 17 16 17 16 15 15 13 11 10 13 16 15 14
23 21 21 19 18 18 17 16 16 15 16 17 18 19 22 25 26 27 28 27 29 29 30 29 28 28 27 26 25 23 25 21 22 21 16 17 17 12 10 28 23 20 17
22 22 20 19 19 19 17 16 16 16 17 19 19 19 20 21 24 28 30 31 32 35 36 36 35 36 33 32 31 30 28 29 26 23 21 17 18 14 12 21 24 23 22
21 22 23 22 21 19 19 17 16 17 18 18 18 18 19 20 22 24 25 28 33 35 39 40 42 42 41 37 35 36 37 36 31 25 27 24 22 18 14 15 22 25 23
25 25 24 24 25 23 22 21 19 20 22 21 21 20 22 21 23 23 25 27 29 31 33 35 39 40 43 41 41 39 41 41 41 36 31 29 26 24 19 16 14 26 24
29 29 28 28 27 25 25 25 26 27 28 28 28 28 28 29 30 32 34 36 37 37 39 39 39 39 40 41 39 41 46 48 49 41 35 32 32 28 27 18 18 22 33
33 34 34 34 33 33 33 32 34 35 34 35 33 31 30 30 33 37 40 42 42 38 43 44 45 47 46 47 46 47 46 50 49 47 42 39 32 34 33 21 26 32 30

GFSMA_700_spd_045.txt.gz
Wind_Speed
8 4 5 6 4 5 6 7 6 5 6 10 9 6 5 6 10 9 7 7 7 7 8 7 6 7 7 6 5 4 4 4 4 4 4 4 4 4 3 4 4 4 4
8 7 6 7 2 3 4 5 3 3 1 7 5 4 3 10 12 10 7 6 5 5 6 5 6 5 5 4 5 4 3 4 3 3 3 4 6 4 4 4 4 6 6
9 5 5 2 5 6 3 5 6 7 6 4 5 6 9 12 10 9 5 5 3 3 4 3 3 3 3 2 2 1 1 0 1 1 2 5 6 5 4 4 4 4 6
7 6 2 5 6 5 5 7 9 11 11 9 6 11 14 10 9 8 5 4 2 2 2 2 2 2 2 2 2 3 2 3 4 4 4 5 5 5 5 7 4 4 6
6 6 1 3 5 4 5 7 7 8 8 8 15 15 12 10 10 7 7 4 0 1 3 1 2 3 2 3 4 4 4 5 5 6 6 6 6 6 6 7 6 8 10
6 5 3 4 4 4 4 4 5 9 9 6 13 12 13 14 11 9 9 8 4 5 4 3 5 4 4 3 3 4 4 6 6 7 6 7 7 8 8 9 10 12 13
6 5 2 3 4 5 7 6 4 4 7 8 7 11 12 12 12 12 13 9 10 11 10 8 7 4 2 1 1 1 1 1 2 4 6 6 6 7 8 9 10 12 13
6 7 5 1 3 5 5 6 7 5 9 9 8 9 12 11 11 12 13 13 12 10 10 11 10 8 7 6 5 5 4 4 3 3 3 5 5 5 6 7 7 8 8
7 7 7 4 3 3 4 6 8 6 9 9 13 13 12 10 10 11 11 11 12 11 10 10 9 8 8 7 6 5 5 5 5 5 5 6 6 5 5 6 7 8 9
8 7 6 6 5 4 4 3 8 8 8 8 11 11 11 11 11 11 11 11 11 11 9 7 8 8 7 5 5 5 5 5 6 7 6 5 5 7 8 9 9 10 11
11 9 8 9 8 6 6 6 7 8 8 9 9 10 11 11 10 11 11 11 10 11 11 9 7 7 5 4 4 5 4 4 5 5 6 5 6 7 9 10 11 12 13
12 10 9 10 10 9 8 8 9 9 10 10 10 10 10 9 9 11 12 11 10 11 10 8 8 7 7 6 6 5 5 4 5 5 5 6 7 8 10 11 13 14 14
12 11 10 9 10 11 11 11 12 12 11 11 11 10 10 9 9 10 10 10 11 11 11 8 8 8 9 8 8 7 6 5 4 5 7 8 9 9 9 11 13 16 16
14 14 12 11 12 15 15 14 15 15 14 12 11 11 11 11 10 9 8 8 8 8 8 6 7 8 9 8 7 6 4 4 5 5 6 8 9 12 13 13 14 16 17
17 16 14 13 13 15 16 17 17 16 15 14 12 11 10 10 8 6 5 5 4 4 5 4 4 4 6 7 8 10 10 10 9 8 8 10 10 12 14 14 15 17 18
20 17 15 14 14 15 18 19 19 18 17 16 14 12 10 8 7 5 3 1 1 3 3 3 4 4 5 7 9 10 11 11 11 11 10 11 12 13 13 16 15 17 19
22 20 18 16 16 15 16 18 21 21 20 18 17 14 12 10 9 8 6 5 5 5 6 8 7 7 7 9 10 11 12 13 13 14 14 12 13 14 14 14 16 17 18
24 22 21 19 17 15 13 14 18 23 23 22 21 19 16 16 15 14 13 11 11 12 13 11 14 14 12 12 12 12 13 14 15 14 16 16 15 15 15 16 14 14 22
27 24 23 20 17 16 14 13 15 17 20 24 24 23 21 22 20 20 19 19 18 18 19 19 17 19 20 20 20 18 18 18 19 19 19 18 19 17 15 15 11 11 18
27 25 24 21 20 19 19 17 15 14 14 16 21 25 25 25 25 24 25 25 26 26 26 26 25 24 26 25 25 25 24 26 26 25 25 23 24 21 16 12 10 9 14
25 23 24 23 22 22 22 19 17 15 14 15 16 18 20 23 26 29 30 29 30 31 32 32 32 32 32 32 31 31 33 33 33 32 31 27 26 27 20 19 16 11 13
26 24 23 22 22 22 20 19 18 18 17 17 18 18 20 21 22 24 27 29 31 33 36 37 37 38 36 37 38 39 39 42 44 37 38 34 31 30 27 24 20 16 11
23 24 23 22 20 20 19 18 18 19 19 19 19 19 20 20 20 22 24 26 29 31 33 35 38 38 38 37 36 39 41 44 45 41 41 43 40 37 32 29 27 23 17
20 21 22 22 23 22 21 20 19 20 22 20 20 20 21 20 21 23 24 26 27 29 31 33 37 36 37 38 41 41 40 45 46 47 47 50 47 44 38 34 31 30 25
22 22 22 23 25 24 24 23 23 24 24 24 23 24 25 26 27 29 32 34 36 35 39 41 43 45 46 47 49 51 52 52 54 52 48 50 50 46 44 40 36 35 36
30 29 29 29 29 29 29 29 30 30 31 31 30 30 30 30 31 33 35 36 34 33 37 38 39 40 42 43 46 52 54 59 59 60 57 53 53 49 48 46 48 45 46

GFSMA_700_spd_048.txt.gz
Wind_Speed
8 7 5 3 2 4 3 3 7 7 8 8 8 7 6 8 9 10 10 10 9 8 9 9 8 7 6 5 5 4 4 4 4 4 5 8 8 7 7 6 6 7 7
7 6 5 6 2 4 3 2 3 6 6 5 5 7 9 10 11 10 8 8 8 6 7 7 6 5 4 3 3 2 2 3 3 3 2 5 7 5 4 3 4 4 5
9 7 7 7 3 4 4 4 4 6 8 4 5 8 12 11 11 8 7 7 6 5 4 3 2 2 1 0 0 0 1 2 3 3 4 6 6 6 5 6 4 4 5
7 7 6 7 3 3 4 7 8 13 9 6 5 11 11 10 10 6 5 5 4 3 3 3 3 3 3 3 3 3 3 4 5 6 6 7 7 7 7 7 6 7 9
7 4 4 6 3 2 3 4 7 11 11 13 16 12 9 11 9 7 5 4 4 4 4 3 5 5 3 3 5 5 6 6 7 7 8 8 8 9 9 9 10 10 13
7 5 4 3 2 1 3 3 5 8 5 8 10 9 13 10 9 6 7 7 5 5 3 5 6 5 3 3 4 5 7 7 7 8 8 9 9 9 10 10 11 13 15
7 6 5 2 2 3 3 2 4 9 9 8 5 11 12 6 8 9 10 11 11 8 5 5 3 2 1 1 1 2 2 4 4 5 6 7 7 7 8 9 10 11 13
7 7 5 3 3 4 3 3 2 7 7 9 9 9 11 9 8 8 10 10 10 10 10 9 8 7 5 5 6 6 5 5 6 6 6 6 7 8 9 9 10 10 11
6 6 5 5 4 3 3 4 3 5 6 7 10 12 10 7 6 5 7 8 7 8 9 9 8 7 5 5 6 5 5 6 7 6 6 7 8 9 9 11 12 13 13
7 7 7 6 4 4 3 4 4 6 8 9 11 11 11 10 8 6 5 5 5 6 6 6 6 5 4 4 5 5 5 6 8 8 7 7 7 8 9 10 11 13 15
9 9 9 8 7 5 5 4 5 7 10 12 11 10 10 10 9 8 7 7 6 6 7 7 6 6 5 5 5 4 4 6 6 7 7 7 8 8 11 12 13 16 17
11 10 10 10 9 8 7 7 8 8 9 10 11 11 11 10 10 10 10 10 9 9 9 10 9 10 9 9 8 8 7 7 7 8 9 9 10 10 11 12 14 17 20
11 10 11 10 10 10 10 10 11 11 10 10 10 10 10 10 10 11 11 10 9 10 10 11 11 11 11 11 11 11 11 10 9 10 11 12 12 12 13 14 15 16 17
13 13 14 13 14 15 15 14 14 13 13 11 10 10 11 11 11 10 9 9 7 6 6 6 7 8 9 10 11 11 12 12 11 11 11 12 12 13 14 15 16 17 20
18 18 17 17 16 17 17 17 17 16 14 13 12 11 10 10 11 9 7 6 5 4 3 3 5 6 8 10 10 10 11 11 12 13 13 13 14 15 16 16 17 17 17
20 20 19 18 16 18 19 20 19 19 18 16 14 13 11 9 8 7 6 5 3 2 1 1 2 4 6 8 9 10 12 13 14 16 16 16 16 17 17 18 18 19 18
23 23 21 19 17 17 18 20 22 22 21 20 19 17 15 13 11 9 7 6 5 6 5 6 6 6 6 9 12 12 13 15 16 18 19 21 19 19 20 19 18 18 17
25 24 24 21 18 17 17 17 21 24 23 23 21 20 18 17 15 14 13 11 11 12 13 12 12 14 14 14 15 17 18 19 19 21 23 24 24 24 23 22 20 17 18
27 26 26 23 20 18 17 19 19 22 25 25 25 24 22 22 20 19 18 18 18 19 20 21 19 20 21 24 25 23 24 25 26 26 28 29 29 28 27 26 23 20 18
28 27 25 23 21 21 19 19 20 21 21 22 26 26 25 26 25 24 24 23 24 25 27 28 28 27 27 27 31 30 31 32 34 35 35 37 37 35 30 29 27 26 20
28 26 26 25 24 24 22 22 21 19 19 19 19 20 22 25 26 27 28 26 28 30 31 32 33 34 31 32 34 35 38 37 40 39 41 41 41 41 37 33 34 32 31
27 25 25 25 25 25 24 22 20 19 18 18 17 17 19 20 21 22 25 26 29 31 33 34 34 36 35 35 34 37 39 40 43 39 40 42 41 43 42 39 35 36 36
27 26 24 24 23 22 22 22 22 22 21 20 19 19 19 20 21 22 23 25 27 29 31 32 31 31 31 33 36 39 40 42 45 45 48 50 46 45 44 46 42 39 42
25 25 24 22 21 20 20 21 21 23 23 21 21 20 21 20 21 22 22 23 23 27 30 33 37 36 39 40 44 47 49 52 52 53 55 60 54 56 48 46 47 46 46
19 19 19 20 20 19 20 20 21 23 24 23 21 22 22 22 22 24 27 30 31 33 36 38 41 43 43 42 46 49 48 51 52 52 51 53 52 56 56 55 52 47 50
19 20 20 20 21 22 22 23 24 26 27 27 25 26 26 26 28 31 33 35 34 32 35 34 33 33 36 36 38 43 48 51 53 52 51 54 50 51 55 50 51 53 51

GFSMA_700_spd_051.txt.gz
Wind_Speed
7 9 7 5 4 5 6 7 7 8 5 6 9 6 6 8 10 10 9 9 9 8 7 6 6 6 6 5 5 5 5 6 6 6 6 8 8 8 9 8 9 10 10
8 8 8 5 2 5 5 5 5 5 6 6 6 5 7 10 9 9 7 6 8 7 6 5 4 5 4 4 4 3 2 3 4 4 5 7 8 8 7 8 8 7 8
7 8 10 7 6 6 6 3 3 4 5 3 5 9 8 10 10 9 8 5 5 5 3 2 1 1 1 1 2 2 4 5 6 6 7 7 8 8 7 8 8 8 9
6 8 9 8 6 8 7 7 8 9 6 3 8 11 9 9 9 8 8 5 5 4 4 2 2 2 3 3 2 3 5 6 7 8 9 9 10 9 9 9 10 10 12
6 7 7 6 7 6 5 5 6 8 6 10 11 9 8 7 7 6 6 6 5 5 4 2 4 3 3 4 4 5 6 6 7 8 10 10 10 10 11 11 11 12 14
6 5 5 6 6 3 3 2 5 6 8 9 7 5 7 7 4 4 4 4 4 4 4 4 5 4 4 5 5 5 5 7 7 7 8 8 9 9 9 10 11 12 13
5 5 4 4 5 4 1 1 2 6 6 5 3 7 4 2 4 5 6 4 4 3 3 3 3 2 2 2 4 6 6 7 7 7 7 7 7 8 9 10 11 12 12
7 6 4 3 4 3 3 2 1 4 6 8 6 7 4 4 4 4 6 6 6 5 6 6 6 6 6 5 6 7 8 9 9 8 8 9 10 10 11 11 11 13 15
7 7 6 5 4 3 3 2 1 3 4 7 8 8 6 2 3 4 4 6 7 6 5 5 6 5 5 7 8 8 8 7 7 7 8 9 9 10 10 11 12 14 16
8 8 7 5 3 4 3 3 3 4 5 9 11 11 8 6 5 3 3 5 5 5 5 5 5 4 4 4 6 6 6 8 10 10 10 10 10 10 11 12 12 14 16
9 8 7 7 5 4 4 4 4 5 7 9 10 10 9 9 6 5 5 6 7 7 8 8 8 7 7 8 8 9 9 10 10 11 10 9 10 10 11 12 14 16 18
11 10 9 8 7 6 6 5 6 7 8 8 9 10 10 9 8 8 8 8 10 11 13 12 12 12 14 15 15 14 13 13 13 13 13 14 13 13 13 14 15 16 17
11 10 10 10 10 10 9 8 9 9 8 9 9 10 10 10 10 10 9 10 11 11 11 11 12 13 14 14 13 14 14 14 14 15 16 16 16 16 16 16 16 17 18
14 14 13 12 13 13 12 11 11 11 10 9 10 10 10 11 11 10 9 8 7 7 7 8 8 9 9 10 11 12 12 13 14 15 17 16 16 17 18 18 17 18 19
18 18 16 15 15 14 15 15 15 14 13 11 11 10 11 10 10 10 9 7 5 5 2 2 4 5 6 8 9 10 11 13 15 16 17 19 19 20 20 20 20 19 18
21 20 18 16 16 15 17 18 18 18 16 14 13 12 11 11 10 9 8 6 5 3 2 2 3 5 7 9 10 12 14 15 17 19 21 22 23 23 24 24 23 22 22
24 22 19 18 19 17 18 20 21 21 21 19 17 15 14 14 12 11 8 7 7 7 6 7 7 8 9 12 14 16 17 19 20 22 24 26 28 28 27 27 28 27 24
26 23 22 22 20 19 20 20 23 24 24 25 22 20 18 17 15 14 13 12 12 13 13 12 14 15 15 18 19 21 23 24 26 27 29 30 34 34 33 32 30 31 29
28 26 25 24 21 21 21 20 21 24 26 28 27 26 23 23 20 19 18 17 17 19 21 21 19 22 21 23 26 28 29 31 33 33 36 36 40 41 41 39 37 35 34
30 28 27 25 24 23 23 22 22 22 24 27 28 28 27 27 25 24 23 23 23 24 27 28 27 27 28 28 31 32 36 36 38 39 41 42 43 43 44 44 42 41 38
31 29 28 27 26 25 25 23 21 21 21 21 24 27 28 28 27 27 28 26 28 29 30 32 32 32 31 31 33 34 37 37 38 41 40 41 44 44 45 45 47 46 44
32 31 29 28 28 26 24 22 21 22 21 20 20 20 21 23 25 27 28 28 29 30 31 31 31 30 28 31 32 33 37 39 41 43 48 45 49 51 52 51 50 48 46
31 30 28 27 26 24 24 23 22 23 22 21 19 19 19 19 20 21 22 24 26 27 28 28 25 27 29 32 36 38 42 44 44 47 54 51 52 53 50 53 55 55 53
30 28 26 24 23 23 21 21 23 25 25 24 23 22 22 22 22 22 23 24 25 26 27 29 32 32 35 38 41 41 41 41 41 43 49 51 47 51 50 50 45 43 42
28 27 26 25 23 22 21 22 24 26 26 24 23 24 24 23 23 24 27 27 25 28 31 33 35 38 40 41 43 44 43 44 43 45 45 52 51 55 54 54 52 46 42
25 26 26 24 23 22 22 24 26 28 28 25 23 24 24 25 25 26 29 32 33 32 35 37 37 34 34 34 35 39 39 41 45 53 48 53 55 55 60 57 55 52 50

GFSMA_700_spd_054.txt.gz
Wind_Speed
7 7 8 7 8 7 7 6 6 4 5 6 6 5 6 5 7 8 6 6 6 5 5 6 6 5 5 4 4 5 5 6 6 6 7 10 10 9 9 10 11 10 10
8 7 5 6 6 6 6 6 5 5 5 5 9 5 6 7 5 8 6 6 5 5 4 4 5 4 4 3 3 3 4 5 6 7 8 10 11 10 9 9 10 9 9
9 8 8 8 7 6 5 4 4 4 5 5 7 6 7 7 6 7 6 5 4 2 3 2 1 2 2 3 4 5 5 6 8 8 9 10 11 11 10 10 10 11 12
7 7 8 9 8 7 5 5 6 5 4 5 7 7 7 7 6 5 5 4 4 3 2 1 2 2 3 4 5 6 7 8 8 10 10 11 11 10 10 10 11 12 13
5 5 7 8 8 7 7 6 6 7 5 5 7 7 6 6 4 4 4 4 4 4 5 3 4 5 5 5 7 7 7 7 8 9 8 8 8 8 8 9 9 11 12
5 4 5 6 6 6 3 5 4 9 9 10 4 5 4 3 2 2 2 3 4 3 4 5 4 4 5 6 6 6 6 5 6 7 8 7 7 8 10 11 11 12 13
6 5 4 5 5 6 4 3 2 2 5 5 4 5 5 2 0 1 2 3 4 5 5 6 5 6 7 8 9 9 9 9 9 9 9 8 9 11 12 11 12 13 15
5 6 5 4 4 3 4 1 3 4 4 4 7 4 4 6 4 3 3 3 5 6 7 7 8 9 8 8 8 8 9 10 10 11 10 10 10 10 11 12 13 14 15
7 5 4 3 2 3 4 3 2 2 3 6 5 10 4 3 2 4 4 3 4 6 7 7 7 8 8 8 8 9 9 10 10 11 11 11 11 11 12 13 13 14 15
10 8 6 4 3 3 3 2 2 3 5 5 7 9 13 11 6 3 4 5 6 6 7 7 8 8 8 7 8 8 9 10 12 14 14 14 12 12 13 14 15 16 17
11 9 8 6 5 4 3 3 2 4 6 7 8 7 7 8 8 11 3 4 10 10 11 12 12 11 11 12 13 13 14 16 16 16 16 16 15 15 16 16 16 17 18
11 10 9 8 7 6 5 4 3 5 7 7 8 9 8 5 1 4 3 5 9 11 13 14 13 13 13 14 15 15 15 16 16 17 18 19 19 19 19 19 19 18 18
14 11 10 10 9 8 6 6 5 6 7 8 9 9 9 8 10 10 10 9 10 9 10 11 11 11 11 11 12 13 14 15 16 17 17 18 19 19 20 20 21 21 21
17 16 14 13 11 9 8 9 9 8 9 9 9 9 10 11 12 11 12 11 8 4 6 7 7 7 8 9 11 12 13 13 13 14 16 16 18 19 21 23 23 24 24
21 19 17 14 13 12 11 11 11 11 10 9 9 10 10 11 11 9 9 7 5 5 1 2 3 4 6 8 9 10 12 14 16 17 19 21 23 24 24 26 26 27 27
24 21 18 16 15 13 12 13 14 14 13 11 10 10 11 12 11 9 7 6 4 3 1 2 5 7 9 10 12 13 16 19 20 24 25 26 30 31 32 32 32 32 32
27 23 20 18 17 16 14 14 16 17 17 15 13 13 12 13 12 11 10 8 7 7 6 7 8 10 12 15 18 20 21 24 27 28 30 33 35 37 39 39 38 37 37
28 25 23 21 19 19 17 15 17 20 21 20 19 17 15 15 14 14 13 11 11 12 12 11 14 16 18 20 23 26 29 31 34 36 37 36 40 43 45 45 45 44 43
31 28 26 24 22 21 20 18 18 20 24 23 24 22 20 20 18 17 16 16 16 17 18 20 19 22 23 26 28 29 33 35 37 39 40 41 42 44 45 46 46 47 47
33 31 29 26 25 25 24 21 20 20 24 26 26 27 27 26 24 22 21 21 22 24 25 26 26 26 27 27 30 30 31 35 37 38 39 42 42 43 45 46 48 50 50
34 32 31 29 28 28 26 24 22 22 22 23 25 29 29 29 28 27 27 26 27 27 28 29 29 30 29 28 30 31 33 34 36 41 43 45 47 50 51 46 44 43 41
35 34 32 31 30 30 28 25 24 24 23 22 22 23 26 28 29 28 29 29 29 30 30 31 30 28 27 29 29 32 35 38 37 42 44 43 49 45 45 46 44 45 44
36 35 33 32 31 30 27 25 25 25 24 24 23 22 22 22 22 24 24 25 26 27 27 26 22 24 27 30 34 36 38 40 39 40 48 41 45 45 42 45 45 45 45
37 36 34 32 31 29 28 27 26 27 27 25 24 23 22 21 21 21 21 23 25 26 27 27 25 26 30 33 37 39 39 40 39 39 42 45 46 49 51 52 50 47 46
36 35 33 31 30 27 27 26 27 29 28 25 24 24 23 23 22 21 24 25 26 26 28 29 30 33 35 38 42 45 43 44 40 35 39 47 50 54 56 58 53 49 48
32 32 32 30 28 27 28 27 28 30 28 25 25 25 24 23 23 24 26 27 29 31 32 34 36 38 41 42 41 42 42 40 40 36 37 47 51 54 64 58 55 52 50

GFSMA_700_spd_057.txt.gz
Wind_Speed
5 6 7 6 4 7 5 6 8 3 8 5 2 5 3 7 10 2 4 3 3 4 4 4 5 6 6 6 6 7 8 10 10 9 10 11 11 11 10 11 11 10 10
6 3 7 3 5 5 6 5 7 7 6 4 10 3 3 5 5 5 6 3 3 3 3 3 4 5 6 7 7 8 8 9 9 9 9 10 11 11 10 9 9 10 11
8 7 4 4 5 6 3 4 5 12 4 3 7 7 4 5 4 3 0 1 2 2 2 2 3 4 6 7 7 7 7 8 8 9 10 10 10 10 10 10 10 10 12
8 8 6 6 7 4 1 5 11 10 6 2 8 7 1 2 2 1 2 2 1 2 1 3 4 5 6 6 7 7 7 7 8 9 9 9 10 10 10 10 10 11 12
6 5 8 5 3 12 5 10 6 10 8 5 5 1 6 0 7 5 2 3 5 7 3 3 4 5 6 7 7 6 6 7 7 8 9 9 10 10 11 12 12 12 13
5 5 2 6 5 11 5 4 9 6 13 12 6 5 4 1 3 7 6 5 3 2 6 3 3 4 5 8 9 9 9 10 9 10 10 10 12 12 13 13 12 13 15
5 3 2 5 8 1 8 1 9 11 10 11 8 4 10 4 6 4 3 1 7 6 8 9 9 10 10 10 9 10 11 11 12 11 11 11 12 13 12 13 14 15 15
5 3 3 3 3 6 3 3 10 6 6 12 14 5 8 14 3 3 1 3 4 3 6 10 10 9 9 10 10 11 12 12 13 13 13 12 12 13 14 15 16 17 17
6 5 4 2 3 3 4 3 4 11 7 6 11 12 9 7 4 8 7 5 5 8 4 8 10 10 10 11 11 12 12 13 14 15 16 17 16 17 16 17 17 18 20
7 7 6 3 1 5 1 2 2 12 8 4 8 13 13 12 9 7 8 4 4 6 8 8 8 10 10 11 14 14 15 16 18 19 18 18 19 20 20 21 20 19 20
8 8 8 6 3 2 0 1 3 2 12 13 2 1 11 10 12 13 7 7 11 7 10 12 14 13 14 15 16 16 17 17 17 18 18 20 21 22 22 22 23 24 24
10 9 8 6 5 4 2 2 1 2 5 13 15 9 3 5 5 7 3 5 6 6 10 12 11 12 13 14 14 15 15 15 16 18 18 18 19 21 22 23 23 25 26
11 11 10 9 9 8 5 3 1 3 3 5 7 12 14 15 13 10 11 3 6 3 7 8 8 9 11 11 11 12 12 13 15 16 17 19 21 22 23 25 26 27 28
15 18 13 11 10 8 7 7 6 4 4 4 6 5 8 6 8 10 11 12 7 2 6 6 6 8 8 9 11 12 13 14 16 17 19 21 23 25 27 28 30 31 32
19 20 14 13 12 11 10 9 8 7 6 6 6 7 8 10 10 9 7 6 4 8 3 4 5 5 7 9 10 13 15 17 20 23 25 27 30 32 34 35 36 37 38
22 21 17 16 14 12 11 10 10 10 8 8 8 9 9 10 10 8 6 5 3 1 0 2 6 8 9 12 16 17 20 24 26 27 30 33 36 38 39 40 41 41 41
25 23 20 19 17 15 14 13 13 13 12 11 9 10 11 10 10 9 8 6 4 4 6 7 9 12 13 15 18 23 28 31 34 36 37 38 37 39 41 41 41 41 41
28 24 23 22 20 18 16 15 16 17 15 15 13 12 12 12 12 11 10 9 9 10 11 12 14 17 20 23 25 26 27 29 32 34 37 38 38 36 36 38 40 40 41
30 27 26 24 22 21 18 16 16 17 18 18 18 18 16 16 14 14 13 13 14 15 17 19 19 21 23 25 28 28 30 30 31 31 34 39 41 41 40 40 39 39 38
32 29 27 26 24 24 21 19 17 18 20 19 21 21 21 21 19 18 18 17 19 21 22 24 24 24 24 24 27 27 28 30 34 36 39 42 45 44 43 42 40 39 39
33 30 29 28 26 26 25 22 20 19 20 19 19 23 24 24 23 23 24 23 25 25 26 26 26 26 27 27 28 28 30 32 35 39 42 42 45 45 42 42 42 42 42
34 32 32 30 29 28 27 24 22 22 22 21 20 22 21 24 24 25 25 26 26 26 26 27 27 27 26 26 26 29 32 33 37 44 44 42 43 38 38 40 42 46 44
35 34 33 32 31 29 29 26 24 25 25 24 23 23 23 22 21 22 25 25 25 25 24 23 24 22 24 26 29 32 35 38 39 43 47 40 38 38 42 46 46 48 46
35 35 33 33 31 30 30 28 26 26 28 27 25 24 24 23 23 22 21 23 22 22 22 23 22 24 28 31 35 37 40 43 43 43 47 43 37 41 45 48 49 50 48
34 35 33 32 33 31 29 28 29 29 31 29 27 25 24 24 23 21 22 22 22 22 23 25 28 30 32 35 38 43 44 48 49 45 38 40 38 44 47 49 51 51 51
30 31 31 32 32 30 29 28 30 31 33 30 27 26 24 23 21 21 23 23 24 24 27 30 33 36 38 41 43 47 48 47 44 37 34 35 38 44 50 52 55 54 56

GFSMA_700_spd_060.txt.gz
Wind_Speed
6 9 9 8 4 11 7 5 9 7 6 6 9 9 13 10 5 4 6 6 6 6 7 8 9 9 10 9 8 7 8 10 10 9 9 9 9 9 8 8 8 8 9
8 8 5 5 3 6 10 7 10 8 8 4 3 5 6 7 4 6 5 6 5 5 5 6 7 8 9 8 8 7 9 9 8 9 10 9 9 9 9 9 9 11 12
8 3 8 5 3 4 6 5 14 9 7 3 6 1 1 2 2 5 4 3 3 3 4 5 6 7 7 7 7 7 8 8 8 9 9 9 10 11 11 12 12 13 13
9 6 4 8 3 4 4 7 13 11 2 6 5 3 5 4 3 4 4 3 2 3 3 4 5 5 6 7 8 7 7 8 9 10 10 11 12 13 14 14 14 14 14
2 4 8 4 5 6 6 8 5 13 7 11 7 3 2 4 4 5 5 6 5 5 3 2 5 5 6 8 10 9 10 10 11 11 13 14 15 15 16 16 15 15 15
5 5 6 7 6 6 7 7 12 9 8 2 9 9 11 7 8 13 9 10 12 8 10 7 5 7 10 11 11 11 11 12 12 13 14 14 15 16 16 16 16 18 19
5 5 4 7 7 1 5 9 15 14 10 9 8 10 16 8 14 16 8 12 8 14 13 13 10 11 12 12 12 12 13 14 15 17 16 18 18 19 19 18 20 23 24
5 5 5 5 4 7 6 6 12 8 13 13 11 6 4 12 12 5 6 2 10 5 10 9 13 14 12 13 13 15 16 17 18 18 20 21 21 21 21 21 21 21 22
5 5 4 4 3 7 8 5 7 5 12 15 13 8 4 5 8 6 7 10 4 5 8 10 11 14 15 16 18 18 18 19 20 20 21 21 22 23 24 25 25 25 25
4 5 5 4 3 5 5 7 6 11 7 12 7 11 8 6 7 3 13 16 7 10 10 11 17 16 17 16 18 18 18 19 19 19 21 22 22 23 24 24 25 25 26
5 4 4 3 2 2 4 6 6 8 10 10 10 7 10 9 10 10 6 11 10 13 14 15 18 18 18 17 17 18 18 18 19 20 20 21 23 24 25 25 26 28 28
8 6 6 5 3 1 3 4 4 5 6 9 10 15 12 10 14 12 3 5 7 9 12 14 14 12 14 14 14 15 15 16 17 19 21 23 24 25 27 28 30 30 30
13 9 7 6 5 4 2 2 3 4 4 5 8 18 15 6 15 9 12 6 7 7 7 8 9 10 10 11 11 12 14 15 17 20 22 24 26 29 31 32 32 33 32
6 7 9 7 6 5 4 3 2 4 4 5 6 7 9 17 15 14 20 10 13 6 6 10 6 5 7 9 11 12 14 16 19 23 25 28 31 33 34 35 36 35 34
14 17 11 9 8 7 7 7 4 3 5 4 5 6 7 9 15 12 10 10 6 10 7 2 4 6 9 12 11 13 17 20 22 26 30 32 33 34 35 36 36 36 36
18 17 12 12 10 9 9 8 7 6 6 5 5 5 7 8 8 10 7 5 5 4 1 4 5 8 10 14 19 22 26 30 32 33 32 32 33 33 33 32 32 31 33
20 22 15 12 12 11 10 10 10 9 8 7 6 6 7 8 8 6 6 5 2 2 2 4 7 10 14 18 20 23 24 25 26 27 29 30 32 36 35 33 30 30 30
24 23 20 16 15 13 12 11 12 12 9 10 10 9 8 9 9 8 7 6 6 7 9 8 10 13 17 20 23 24 24 23 24 25 30 36 39 41 40 36 31 34 34
28 24 23 21 17 16 15 14 13 15 14 13 13 13 12 11 11 11 11 11 11 13 14 15 14 17 18 21 23 22 23 23 27 30 34 38 40 41 39 35 34 34 36
30 27 24 23 21 20 19 17 16 16 17 14 15 15 15 15 14 14 15 15 16 17 18 19 20 20 22 20 21 23 25 27 30 33 36 39 40 42 37 33 33 34 37
32 30 27 26 24 23 22 20 18 18 18 16 15 15 16 17 17 18 19 20 21 21 22 22 21 21 21 21 22 24 26 28 29 35 39 39 41 41 34 32 35 38 41
33 32 31 29 27 26 23 22 20 20 20 19 17 17 16 17 17 18 20 21 23 23 22 21 20 21 20 22 23 25 28 32 36 36 40 39 42 37 33 32 37 43 44
33 33 33 32 30 27 25 24 22 21 22 22 20 20 20 18 17 16 19 21 22 22 22 21 20 17 19 21 25 28 32 35 38 41 46 44 39 33 31 33 38 41 43
33 34 33 32 32 29 27 26 25 24 24 25 24 22 23 21 19 19 18 20 20 20 20 20 19 19 22 25 29 33 36 39 39 40 40 37 30 30 29 32 36 42 46
30 33 33 32 32 30 28 27 28 27 27 27 26 24 23 23 21 21 22 21 20 18 17 19 22 24 25 27 31 36 40 45 44 40 30 34 30 31 31 34 40 45 47
27 30 31 31 31 31 29 27 28 29 29 29 27 26 25 24 22 22 23 22 21 18 20 22 25 28 30 33 35 38 40 39 37 38 31 31 27 32 36 41 44 45 49

GFSMA_700_spd_063.txt.gz
Wind_Speed
11 10 11 10 13 10 9 7 11 10 11 10 7 4 7 6 4 7 7 8 8 9 10 10 9 9 9 9 8 8 9 9 8 8 8 9 9 8 8 8 9 11 12
11 6 6 7 13 10 12 8 16 13 10 8 6 3 4 3 5 6 7 7 6 7 7 8 7 8 8 7 7 8 8 8 9 9 11 11 11 11 12 12 12 13 13
8 8 5 3 7 10 11 6 9 9 7 8 5 2 2 5 4 7 7 6 5 5 6 6 6 7 7 8 8 9 9 10 12 13 14 14 14 13 13 14 15 16 16
6 6 8 6 2 7 12 9 14 5 12 11 10 10 6 7 5 6 8 3 4 4 3 4 6 7 8 9 10 10 11 13 13 13 14 15 16 15 16 19 21 20 18
5 6 7 6 6 9 11 9 5 9 13 12 13 10 6 7 5 7 7 6 6 6 4 5 7 9 9 11 12 12 12 13 13 16 18 19 19 19 21 22 23 24 22
7 8 6 7 9 11 11 10 15 12 10 6 12 15 12 14 14 13 14 15 14 14 16 12 12 11 11 12 13 14 15 17 19 19 19 19 20 21 22 23 23 23 22
7 9 6 10 9 4 12 17 15 11 10 9 12 15 14 16 13 18 15 14 13 15 15 13 12 12 12 13 15 18 21 21 20 20 21 22 23 23 24 25 24 23 21
5 5 7 6 8 8 6 15 14 13 13 8 7 10 9 10 12 12 13 10 14 13 14 15 13 13 15 16 20 22 22 22 21 21 22 23 24 24 24 24 24 23 22
6 6 6 8 7 8 9 17 12 5 14 14 11 1 8 5 13 17 18 15 12 11 17 18 17 17 19 20 21 21 20 20 20 21 21 22 23 24 24 23 22 22 22
6 5 4 7 8 8 8 6 11 11 12 11 10 12 9 10 7 13 16 14 13 10 18 17 20 21 20 20 19 18 19 19 20 20 21 23 24 24 24 24 23 22 22
8 7 6 5 6 7 5 6 12 10 9 12 14 14 11 14 11 9 12 14 14 16 20 19 18 18 18 16 16 16 17 18 19 20 22 23 24 26 26 26 26 26 25
9 9 5 6 6 6 6 5 7 6 7 13 13 15 16 16 16 11 7 10 14 15 14 13 13 14 13 13 13 14 15 17 19 21 23 25 27 28 29 29 28 28 28
10 9 8 7 6 6 6 5 6 7 7 9 13 21 20 19 17 11 8 11 15 15 14 9 9 11 10 9 10 12 14 17 21 23 25 28 28 27 27 27 28 28 28
8 11 11 9 6 5 4 5 6 6 8 10 14 18 14 18 16 16 15 15 14 12 12 11 8 6 6 8 10 12 16 19 22 24 26 26 25 26 26 26 27 27 29
10 12 12 10 8 6 5 5 6 6 6 7 9 11 6 7 9 16 13 12 9 8 7 7 5 5 8 11 14 17 20 23 24 24 23 23 27 28 27 24 23 23 26
11 8 10 9 7 7 6 6 6 7 7 7 7 7 8 9 11 14 14 10 6 5 4 3 4 7 10 13 16 20 24 23 21 20 23 26 32 33 32 28 20 21 23
17 13 9 8 7 6 6 7 7 8 9 8 8 8 9 11 13 12 9 8 7 5 3 1 3 7 10 15 18 21 21 18 18 19 24 30 32 33 33 28 22 23 26
21 18 13 12 11 9 8 8 8 8 9 10 9 10 10 10 10 9 8 7 5 5 5 4 6 8 11 15 17 17 18 17 20 24 29 31 33 34 32 25 23 24 27
24 23 19 15 14 12 11 11 11 10 10 10 11 11 11 12 12 11 9 9 8 9 10 10 9 11 13 15 16 19 18 19 23 27 30 33 34 33 29 25 23 25 29
27 26 24 21 17 15 15 14 14 14 11 11 12 13 14 14 14 14 13 13 14 14 14 15 15 15 14 15 18 18 18 21 24 26 31 33 35 34 29 23 21 26 32
28 27 26 25 24 21 19 18 16 15 15 13 12 14 16 16 17 18 18 18 18 18 18 19 18 19 17 16 16 17 20 23 25 30 34 36 34 27 20 18 23 29 34
29 29 29 28 27 26 23 20 19 18 17 17 16 14 15 16 17 19 20 20 20 20 19 19 19 18 15 15 17 19 23 27 31 31 34 32 28 23 23 22 26 32 35
29 30 31 30 29 27 25 24 23 21 21 19 18 18 17 16 16 17 18 19 19 19 19 19 18 15 15 15 19 21 24 28 33 36 34 30 27 23 19 21 27 30 33
30 29 30 31 31 29 27 26 25 25 24 23 21 20 20 19 18 18 18 19 18 17 16 17 17 15 16 18 21 25 28 30 32 31 35 31 25 20 18 21 26 31 37
25 29 29 30 31 30 29 27 27 28 25 24 23 22 22 21 19 20 21 20 19 17 16 17 18 19 19 20 24 29 31 34 31 30 28 28 24 21 18 22 27 33 38
26 22 27 29 30 30 29 28 28 28 28 26 24 23 23 22 20 20 22 22 20 14 16 17 17 18 20 23 27 31 34 32 32 31 26 26 23 24 22 25 29 34 39

GFSMA_700_spd_066.txt.gz
Wind_Speed
14 16 11 12 10 13 12 14 16 11 9 9 8 11 14 15 11 11 9 9 8 8 8 9 8 8 8 7 7 7 9 10 10 11 11 11 11 11 11 12 12 13 13
11 12 9 10 7 12 11 16 13 10 5 10 12 8 10 10 8 9 9 8 7 6 6 6 6 7 6 6 7 8 9 11 12 13 13 13 13 13 13 13 15 15 14
8 9 10 11 9 8 12 14 11 10 8 13 11 12 7 7 7 8 6 5 4 4 4 5 6 7 7 9 10 11 12 13 14 13 15 17 18 18 18 19 18 14 14
7 6 11 11 9 8 5 13 11 9 14 15 14 6 5 7 7 6 4 5 4 3 4 6 8 9 10 12 12 12 13 14 16 18 18 19 19 21 21 19 17 18 17
7 5 5 5 9 10 7 16 10 10 18 17 12 6 6 9 10 10 8 8 8 8 7 9 13 12 12 13 14 14 16 17 19 18 18 19 20 19 19 19 20 20 19
7 8 6 10 9 8 7 11 9 11 16 13 9 14 13 14 12 14 15 15 16 17 15 14 13 14 14 15 16 18 19 19 19 18 19 20 20 20 20 21 21 21 19
5 7 8 10 12 9 10 11 14 12 13 13 12 13 14 14 14 15 15 15 16 15 13 14 14 16 17 19 20 21 21 20 20 20 20 20 21 21 20 21 20 19 19
5 7 6 7 8 10 14 12 11 13 17 14 13 11 9 13 16 15 15 14 14 13 13 14 16 19 20 22 21 20 20 20 20 19 19 19 19 19 19 19 19 19 19
8 7 7 7 6 12 15 14 8 11 11 11 10 6 7 16 16 15 15 16 14 14 15 17 20 23 23 21 19 18 18 18 18 18 18 19 20 21 21 21 21 20 20
9 7 6 6 6 7 8 12 10 9 13 12 10 12 10 14 14 16 16 18 18 17 19 20 20 21 20 19 17 16 15 16 17 18 19 20 22 23 23 23 22 22 21
9 8 8 6 7 7 7 10 11 8 8 9 13 15 12 13 11 11 15 20 21 19 18 19 18 17 16 15 13 13 13 15 17 18 20 22 22 22 19 19 19 20 21
11 10 9 7 7 7 7 7 10 7 7 13 18 17 18 14 12 12 15 19 21 20 18 16 14 13 12 11 10 11 14 15 17 19 21 21 21 21 21 21 21 22 24
10 10 11 9 8 6 6 7 6 9 11 13 18 19 20 17 15 16 17 18 19 19 17 15 12 10 9 7 7 9 11 14 16 18 18 20 21 21 18 19 19 19 21
11 13 12 11 9 7 6 5 5 7 11 11 16 20 18 16 16 17 19 17 17 14 14 13 11 8 5 4 5 8 12 14 16 17 17 20 22 23 21 18 17 17 19
14 14 13 12 11 11 9 7 6 6 7 9 15 17 10 10 17 15 16 16 14 12 11 8 6 4 2 2 5 11 13 17 19 17 18 20 22 25 24 21 14 14 18
15 13 15 14 13 12 11 9 7 6 7 9 10 12 11 14 16 18 16 15 11 11 9 7 5 2 3 6 11 14 16 17 17 16 18 21 25 25 24 22 16 15 19
17 15 16 16 13 12 12 11 11 10 8 7 8 10 11 13 15 17 15 11 9 8 7 4 2 3 7 10 13 15 17 17 15 17 22 26 28 28 27 22 16 16 20
19 17 16 16 15 14 13 12 12 11 12 10 9 10 13 15 14 13 13 11 10 10 8 6 6 8 9 13 14 14 15 16 15 20 24 27 29 31 27 18 14 16 22
23 20 18 17 17 14 13 13 13 13 13 14 14 12 14 16 17 16 15 14 13 13 12 11 11 11 10 15 15 17 16 14 17 22 25 28 30 26 18 13 14 18 22
29 26 22 19 18 18 17 16 15 14 14 15 16 17 17 15 16 17 17 17 17 15 14 14 13 13 13 15 17 18 13 15 16 21 25 28 25 20 19 18 17 20 24
33 31 29 25 22 21 21 19 18 16 16 15 16 18 19 19 20 20 20 19 19 18 18 18 17 17 15 16 17 15 15 18 18 25 27 25 21 18 16 15 17 22 25
36 35 34 31 28 26 24 22 21 20 20 19 18 18 18 21 22 22 23 24 24 24 23 23 21 18 16 17 16 13 16 20 23 24 28 23 21 18 16 17 18 22 27
38 37 36 35 33 31 28 25 24 24 23 22 21 21 20 20 20 21 22 23 25 25 24 24 22 18 17 15 13 13 17 22 24 28 27 23 18 15 17 17 19 22 26
37 36 36 36 36 33 32 30 28 28 27 26 25 24 24 23 22 22 22 23 22 22 20 21 20 16 17 12 13 16 19 23 25 26 26 26 22 16 16 17 19 23 27
35 35 33 34 36 35 34 33 32 33 31 28 27 27 27 26 24 24 25 25 24 22 20 21 21 18 16 14 16 18 19 24 26 23 23 22 22 18 17 18 20 24 29
31 30 31 31 32 35 35 35 35 35 34 32 30 30 29 28 27 26 28 27 26 22 21 23 23 20 16 14 16 19 22 25 24 24 23 23 20 20 17 19 21 24 28

GFSMA_700_spd_069.txt.gz
Wind_Speed
13 13 13 12 11 10 8 8 9 11 13 14 11 12 11 13 11 12 11 10 9 9 8 8 8 8 8 7 7 9 10 12 13 13 13 13 14 13 12 14 15 15 15
10 10 11 9 10 11 11 11 8 7 10 11 9 8 9 10 10 9 9 8 8 7 7 6 7 7 8 8 10 12 13 14 14 15 18 18 17 17 17 16 14 12 13
9 6 6 8 9 7 8 10 9 10 13 11 10 10 10 10 8 8 7 5 5 6 7 8 9 10 11 12 12 14 15 16 16 18 19 19 19 18 17 15 13 12 12
5 5 7 8 8 8 8 8 7 8 11 12 8 8 8 9 8 7 6 6 6 7 9 12 12 12 12 13 15 17 18 19 19 19 19 18 17 16 15 15 15 16 16
5 7 7 5 8 7 11 10 9 13 12 8 7 6 7 9 10 10 10 8 9 11 13 13 14 13 14 15 17 19 19 19 19 18 16 16 16 16 16 16 17 18 18
4 7 7 8 8 10 8 11 11 10 12 8 10 9 8 10 11 14 14 14 16 16 14 13 13 15 17 19 20 20 20 19 18 16 16 15 15 16 17 18 19 19 19
5 4 7 9 9 6 8 14 14 9 10 9 12 12 13 12 13 14 15 14 14 14 15 15 16 18 20 21 21 20 19 18 16 15 15 16 17 18 18 19 19 19 20
5 4 5 6 4 5 6 9 12 12 11 12 12 10 9 11 13 13 13 13 13 14 16 18 19 22 22 21 19 18 17 16 15 14 15 16 17 17 18 18 18 18 19
6 5 4 4 6 7 9 6 12 15 13 11 9 9 12 13 13 12 11 12 14 16 18 21 21 22 21 19 17 16 14 14 13 13 15 16 17 17 17 16 17 17 18
7 6 5 5 5 7 9 10 8 11 13 11 7 10 11 13 13 12 12 14 16 20 20 21 21 20 18 16 14 13 12 11 13 15 15 16 17 18 18 18 18 19 20
9 9 7 4 2 3 5 13 8 8 7 10 12 11 12 13 13 14 17 19 21 20 19 19 19 17 15 12 10 9 9 12 14 13 15 17 18 18 16 17 18 20 20
9 9 8 7 4 2 2 5 9 8 9 11 15 14 14 13 15 17 18 20 22 22 20 18 15 13 10 8 7 7 9 11 11 11 13 16 17 16 15 18 18 19 21
10 9 9 7 6 4 2 2 6 7 7 11 17 15 16 15 16 17 18 19 18 18 18 16 13 10 6 4 4 6 9 9 8 10 13 16 17 17 18 19 18 18 20
11 10 11 10 10 8 6 4 4 7 8 11 17 17 17 18 17 17 18 18 17 16 14 13 10 7 4 1 3 6 8 9 9 11 13 17 20 21 22 22 20 18 18
16 14 12 12 11 10 9 8 6 4 7 9 16 16 17 17 17 18 18 17 16 14 13 12 10 7 5 4 5 7 8 11 13 13 15 18 21 22 24 24 21 17 17
19 18 16 15 14 12 10 9 8 7 7 8 12 16 15 14 17 19 19 18 16 14 11 11 10 8 5 6 8 8 11 13 14 14 17 20 25 27 27 23 18 15 17
18 16 17 17 16 15 14 12 11 11 10 9 10 13 14 14 18 21 20 17 15 14 13 11 10 8 7 7 10 13 14 14 14 16 20 23 26 28 25 21 16 15 19
19 16 16 17 18 16 16 15 14 13 12 10 10 11 12 14 16 19 19 17 15 15 14 13 11 10 9 11 13 13 13 15 14 17 21 25 27 27 22 20 17 16 19
23 21 19 19 18 17 15 15 15 15 14 13 13 12 13 16 18 19 19 18 17 17 15 15 14 12 12 15 16 17 16 13 14 19 22 26 28 26 21 21 15 15 19
27 27 25 23 22 20 18 16 17 17 16 17 17 16 16 17 19 20 21 20 20 19 19 18 17 16 16 17 19 19 14 15 12 19 21 26 25 23 22 17 14 15 19
31 30 29 28 26 24 22 21 20 19 19 19 20 20 20 20 20 22 23 23 24 23 23 22 20 19 17 19 22 20 18 14 12 21 21 26 22 23 22 16 15 16 20
36 35 34 32 31 29 26 25 24 24 23 22 22 22 23 24 24 25 26 25 25 25 25 25 24 23 21 21 22 21 18 17 15 20 24 23 22 21 19 17 17 18 21
37 38 37 37 36 34 31 29 28 28 27 26 25 24 25 24 25 26 27 28 29 29 29 28 28 25 25 23 23 19 17 18 18 21 26 22 20 20 18 17 17 18 22
35 37 39 38 38 38 35 33 32 32 32 30 29 28 28 27 27 26 27 28 28 27 27 27 27 23 24 21 22 19 17 19 17 21 26 24 22 19 16 17 17 19 22
32 32 35 37 37 36 36 36 36 36 36 35 33 31 31 30 29 28 30 29 29 27 26 26 25 24 23 21 20 20 18 21 21 20 23 24 23 20 18 17 18 18 22
26 28 30 33 34 33 34 35 37 39 40 38 36 35 33 32 30 31 32 32 32 28 28 27 28 28 25 21 20 22 21 21 21 23 22 23 21 21 18 17 18 19 21

GFSMA_700_spd_075.txt.gz
Wind_Speed
12 12 12 12 11 10 11 12 10 10 9 9 9 8 8 9 8 9 9 9 8 8 8 7 8 9 10 13 14 17 18 17 18 18 16 16 18 19 17 17 16 17 17
11 9 7 8 9 10 11 10 11 8 6 7 6 6 6 7 6 7 8 7 7 7 8 9 10 11 13 14 17 18 18 18 18 18 17 17 17 16 15 16 17 17 18
9 8 5 5 7 8 8 7 8 7 6 6 6 5 4 6 6 5 5 6 7 8 10 11 12 13 15 18 18 18 17 17 17 16 16 16 15 15 15 15 16 17 18
8 7 6 6 5 6 5 5 4 5 5 4 5 5 4 3 3 4 5 6 8 10 11 13 14 16 17 17 17 17 16 15 14 15 14 14 14 15 15 16 17 17 18
7 7 9 6 5 4 3 2 4 4 3 2 2 2 3 2 2 5 7 8 10 12 13 14 17 18 17 17 16 16 14 14 13 13 13 13 15 16 17 17 18 19 20
7 9 8 6 5 4 5 5 6 4 1 1 1 2 2 2 2 7 10 11 12 12 15 18 19 18 17 16 15 13 12 11 11 13 14 15 16 17 17 19 20 21 20
5 8 5 6 5 6 3 5 5 2 1 1 4 4 3 3 5 8 9 10 11 14 18 19 19 18 16 14 12 10 10 11 13 13 14 15 16 17 19 19 20 21 21
2 4 7 7 7 7 6 8 6 3 4 7 8 7 5 5 5 5 6 9 11 14 18 19 19 17 14 12 9 8 10 12 13 12 14 15 17 18 21 23 25 26 26
3 3 5 6 7 6 6 9 9 6 5 6 7 7 7 7 4 3 5 8 11 16 18 19 18 15 11 8 6 8 11 12 10 11 15 16 19 21 23 25 25 28 29
3 2 3 3 6 5 7 7 8 8 8 7 8 6 8 6 5 4 5 8 12 16 17 17 15 12 9 5 5 9 12 13 11 12 15 18 21 22 24 27 28 28 29
4 3 3 4 3 4 7 9 8 11 11 7 5 7 6 6 5 5 5 8 13 16 16 15 12 9 5 3 7 11 14 15 13 14 17 20 23 26 30 31 31 28 25
5 5 4 4 3 4 5 8 10 9 8 8 9 11 8 7 6 6 7 10 12 14 14 13 10 6 2 2 6 11 15 16 15 15 18 21 25 29 32 34 31 25 21
6 7 7 6 5 3 3 4 6 9 9 9 10 13 12 10 8 8 10 12 12 12 11 11 8 5 3 4 7 11 15 16 17 18 19 21 25 29 32 32 27 20 18
9 10 10 9 8 6 5 4 4 7 8 10 11 13 14 12 11 12 14 14 13 12 11 9 8 7 7 7 9 12 14 17 18 19 19 22 27 30 33 27 22 20 18
11 13 12 12 10 9 7 5 5 5 8 9 11 14 15 15 15 15 16 16 15 14 13 12 10 10 10 10 11 14 15 17 18 20 20 23 28 31 32 27 21 19 17
15 14 13 13 13 12 9 8 6 4 4 7 9 13 14 16 16 18 18 18 17 16 15 13 12 12 13 13 15 16 18 18 19 22 22 23 28 31 33 29 23 20 17
17 17 15 14 15 16 13 10 8 6 6 5 7 10 14 14 17 19 20 20 19 19 17 15 15 15 15 16 17 18 21 21 21 23 23 23 28 31 34 29 25 21 18
17 17 18 18 17 18 16 13 12 10 8 8 7 8 11 14 16 20 22 22 21 21 19 18 18 18 17 18 19 20 21 22 23 25 24 23 27 31 34 31 25 20 19
20 20 18 18 17 20 20 17 16 14 13 11 10 9 11 12 15 18 21 23 23 22 22 20 19 19 19 19 20 22 22 23 25 26 25 23 26 30 33 30 27 22 21
23 23 22 21 20 19 20 20 18 17 16 15 14 13 13 13 13 15 19 21 22 23 22 21 20 20 20 21 23 25 25 25 26 25 25 25 26 28 31 29 28 23 21
27 26 26 26 25 23 21 20 20 19 18 18 18 18 17 16 16 16 17 18 21 22 23 23 22 22 22 23 25 27 29 29 27 25 24 24 27 30 30 28 26 23 21
30 29 30 30 29 28 25 23 23 23 22 22 22 22 21 21 19 19 20 21 23 24 25 26 26 26 24 26 28 29 30 30 28 25 25 22 24 27 29 26 25 23 21
33 33 32 32 32 32 30 28 27 28 28 27 26 25 25 24 23 24 24 25 26 27 28 28 28 27 27 28 30 30 30 30 27 24 24 24 24 26 27 25 24 21 22
36 35 34 34 33 33 32 32 31 32 34 33 32 30 29 28 28 27 28 29 29 29 30 31 30 29 29 29 29 29 28 26 25 23 23 24 26 26 27 24 23 21 21
37 35 34 35 35 33 33 33 34 35 37 37 36 35 34 33 31 30 32 32 32 30 30 30 31 29 28 28 29 29 27 28 26 26 24 24 27 26 27 25 21 21 22
38 37 35 33 32 31 32 33 35 38 39 39 39 39 38 36 34 33 35 35 35 31 32 33 33 32 32 30 31 30 29 28 29 28 28 24 26 27 28 26 19 21 21

GFSMA_700_spd_078.txt.gz
Wind_Speed
15 13 12 12 12 11 11 9 8 8 8 8 8 7 7 7 7 7 8 8 7 7 7 8 10 12 13 15 17 18 18 17 16 16 15 16 15 16 16 16 17 19 19
14 12 11 9 8 10 9 9 7 6 6 6 6 7 5 5 5 6 6 6 6 7 9 10 13 16 17 18 18 17 16 15 15 15 15 15 15 15 16 18 19 20 21
9 10 11 10 11 9 7 6 4 4 5 6 6 6 5 5 4 4 4 5 7 8 11 13 16 19 18 18 16 15 14 15 14 14 15 15 16 17 19 20 21 22 22
6 7 10 10 10 8 6 6 5 4 6 7 6 6 5 4 3 2 3 5 8 10 12 16 19 18 17 15 14 13 13 12 14 15 16 17 19 20 21 21 22 22 22
5 6 7 8 8 7 4 3 3 5 7 6 6 5 5 4 3 3 5 7 10 11 14 18 18 17 14 13 12 11 12 13 15 17 18 19 20 21 22 24 24 24 24
5 7 7 6 6 5 4 3 4 4 3 3 4 1 4 4 4 5 8 10 10 13 17 18 17 15 13 11 10 11 12 14 17 18 18 20 22 23 25 27 29 29 27
4 7 6 6 5 6 5 4 4 3 2 3 7 4 4 7 6 7 8 8 10 14 17 16 15 13 11 9 10 11 14 16 17 18 19 22 23 25 26 28 29 30 30
3 4 6 8 7 7 5 5 4 3 6 6 5 10 5 9 4 5 6 8 10 15 16 16 14 11 8 8 9 13 17 19 17 18 20 23 25 27 30 31 32 31 30
2 3 6 6 6 6 5 8 6 5 3 6 7 13 8 3 8 3 4 7 11 15 16 15 12 9 6 7 10 15 18 20 18 19 21 24 27 29 31 33 33 31 28
2 3 3 5 4 6 6 7 9 8 8 2 6 7 9 8 10 3 1 7 12 14 15 14 10 7 4 6 10 14 18 20 19 20 22 26 28 30 33 34 32 26 23
2 3 3 3 4 6 7 8 11 11 11 6 5 4 4 7 6 10 4 4 10 14 14 12 9 5 2 4 9 14 18 21 22 24 26 26 28 31 33 33 28 23 22
3 4 3 3 2 4 7 9 9 11 13 11 9 8 4 7 4 5 5 6 8 11 12 10 8 5 1 5 9 13 17 20 21 24 26 27 28 30 33 31 25 23 21
5 4 5 4 3 3 4 6 8 9 11 10 10 9 11 8 10 8 8 5 9 9 10 9 8 6 4 5 8 12 16 19 22 23 26 26 26 30 33 33 26 23 20
9 6 6 6 5 5 4 3 5 7 7 8 10 13 12 13 12 13 10 9 5 5 8 10 9 8 7 8 10 13 17 19 21 22 25 27 26 30 33 34 29 24 21
10 8 7 8 7 6 5 3 4 4 6 7 9 13 13 13 14 15 16 16 13 7 5 11 10 11 10 11 11 14 16 18 21 23 24 25 26 29 33 35 30 25 22
14 11 9 9 9 8 7 7 5 5 5 6 9 11 14 14 15 17 17 19 18 16 12 10 13 13 13 14 16 16 18 19 20 22 23 23 26 27 33 35 30 25 23
16 15 13 11 10 10 10 9 8 7 6 6 6 9 12 13 16 18 19 20 20 19 18 17 16 16 15 16 18 19 20 21 23 23 24 22 26 27 31 33 31 27 24
16 16 16 16 14 12 12 12 11 10 9 8 7 7 10 12 14 18 19 22 22 22 21 20 19 18 18 18 20 20 20 21 23 25 26 25 28 27 29 33 32 29 24
18 18 17 16 16 15 16 16 15 13 13 12 10 9 10 10 13 17 19 22 23 24 24 23 21 20 20 21 20 22 23 23 24 26 27 27 25 27 28 31 31 28 25
21 21 21 20 19 17 17 18 19 16 15 15 15 12 13 12 12 14 18 21 23 25 25 23 22 21 21 21 22 23 24 25 26 26 26 26 27 28 25 27 31 28 25
24 24 25 25 24 23 20 19 18 17 17 17 17 17 16 15 15 15 15 17 20 22 23 23 23 22 22 23 24 24 27 28 27 28 25 25 25 28 27 26 29 27 26
29 28 29 29 29 28 26 24 21 21 21 20 19 19 19 19 19 18 18 19 19 20 20 22 23 24 24 26 27 27 28 28 28 28 30 24 23 22 26 25 29 28 27
33 34 33 32 32 32 30 28 26 26 26 25 24 23 22 23 21 23 22 23 23 23 23 24 25 25 26 26 28 29 30 28 27 24 25 26 24 23 24 22 27 28 27
35 35 34 34 34 34 33 32 31 31 32 31 30 28 28 27 26 26 26 27 26 27 27 26 27 27 27 28 28 29 29 26 26 25 24 24 25 24 23 25 23 27 25
36 34 33 34 35 34 33 33 33 36 37 36 34 33 33 31 29 29 30 31 30 28 29 29 28 28 28 27 29 29 27 28 26 26 27 26 25 26 25 26 22 25 26
40 40 39 36 35 33 33 33 34 38 40 39 38 37 37 36 34 32 34 34 35 30 31 31 34 31 31 32 31 31 29 29 29 29 27 27 24 27 28 27 26 23 23

GFSMA_700_spd_081.txt.gz
Wind_Speed
16 13 14 8 10 6 9 6 9 6 5 8 8 7 8 8 8 6 7 7 7 8 10 12 14 16 17 18 19 18 17 15 15 16 18 19 19 20 20 21 22 23 24
10 11 10 7 9 6 7 9 9 7 10 4 6 7 7 6 6 8 7 7 7 10 12 15 17 17 17 18 17 16 15 16 16 18 19 20 21 23 23 23 23 22 23
11 12 7 10 9 8 5 8 9 9 8 8 4 9 6 5 6 6 7 8 9 11 13 17 17 16 16 16 15 15 16 17 18 19 20 21 23 24 26 26 26 25 24
8 9 7 7 6 10 6 6 4 9 6 5 7 4 5 5 6 6 8 8 9 14 15 15 15 15 15 14 15 15 17 18 20 21 22 23 24 25 26 27 27 27 25
5 8 7 8 3 7 6 3 3 6 8 9 11 8 9 6 14 4 7 8 10 14 17 15 14 14 13 14 15 17 19 21 22 23 24 25 26 28 28 29 29 29 27
3 6 4 7 5 7 7 3 8 6 7 4 10 4 3 2 4 3 5 9 11 15 15 12 12 13 12 13 16 19 21 20 21 23 25 27 29 31 32 32 31 29 28
3 4 3 4 3 4 7 8 7 9 8 11 11 6 8 10 8 5 5 8 7 13 12 12 11 10 11 13 16 20 21 20 21 23 26 28 30 32 33 33 31 28 26
3 5 4 4 2 6 3 8 8 11 3 6 15 9 4 10 3 3 3 6 12 12 12 10 9 8 10 11 16 20 22 22 23 25 28 30 31 33 33 33 30 27 26
2 3 5 5 7 5 3 6 10 12 10 4 19 16 10 10 5 5 3 5 9 11 12 9 7 7 8 11 14 20 21 22 24 27 30 32 32 32 34 32 28 25 23
3 3 1 3 4 8 8 7 8 10 7 7 6 3 13 14 15 6 8 5 9 7 9 8 5 4 6 10 13 17 20 23 25 28 31 33 31 31 33 33 27 24 22
3 2 0 1 1 2 4 8 8 11 10 13 2 6 4 11 14 11 4 2 5 6 8 6 4 1 4 8 11 15 19 23 26 27 29 30 30 30 33 33 28 25 24
1 2 0 0 0 1 5 4 5 9 13 12 13 12 6 8 11 5 1 8 4 4 3 6 5 2 3 7 9 13 18 21 23 25 26 28 29 30 34 35 32 27 25
4 1 1 2 2 2 2 2 5 4 7 9 8 8 7 6 12 16 7 8 8 5 3 5 7 5 6 7 10 13 15 18 22 24 26 28 30 30 33 36 34 29 26
6 9 4 3 2 2 1 1 3 5 7 8 6 13 11 6 6 9 12 13 5 3 6 9 9 9 9 9 9 13 17 18 21 24 26 27 29 30 32 35 35 30 27
7 10 8 4 3 3 4 2 2 4 4 6 6 8 12 12 8 7 7 18 14 12 5 15 11 13 11 11 12 14 16 18 21 21 24 26 29 29 30 33 36 32 28
15 12 10 6 4 4 5 5 5 4 4 5 6 8 12 11 12 16 11 10 16 22 18 9 9 17 12 13 15 16 18 19 21 22 24 26 28 29 30 31 35 34 29
14 16 14 9 8 7 6 7 6 7 5 5 6 6 9 12 13 12 12 13 15 15 15 14 18 16 15 16 16 18 19 20 24 24 26 26 27 28 29 30 33 34 31
15 14 16 13 12 11 10 8 8 8 8 7 6 7 6 9 11 13 15 18 19 23 22 20 19 19 20 20 19 19 20 20 22 25 25 26 27 26 27 28 30 32 31
16 16 16 15 15 15 15 12 12 11 10 10 10 9 8 8 9 12 15 18 19 22 24 24 22 21 22 23 23 21 21 22 22 26 28 28 27 28 24 23 27 30 30
19 19 19 18 18 16 17 17 16 15 15 14 13 13 11 10 9 9 12 16 18 21 22 23 23 22 22 22 23 23 22 23 25 25 26 27 27 25 26 22 25 27 29
22 22 22 22 22 21 20 20 18 18 19 18 17 16 15 12 11 12 11 12 14 17 19 21 22 23 22 22 21 23 25 26 26 27 27 25 26 26 24 24 21 25 28
27 27 26 26 26 25 24 22 21 20 19 19 19 19 18 17 15 14 14 15 14 15 16 17 18 20 21 22 23 26 26 27 27 26 29 24 24 23 25 22 20 23 26
31 27 29 30 30 29 28 27 25 25 25 24 22 22 22 20 19 19 18 18 19 19 19 20 20 21 23 23 26 27 28 28 27 24 25 26 25 24 22 25 19 21 24
34 36 32 31 31 30 29 29 29 29 30 29 28 27 26 25 24 24 22 23 22 21 21 23 23 22 24 24 25 27 27 26 24 23 24 25 25 25 25 26 24 19 23
38 38 34 31 31 31 31 30 30 33 35 34 32 31 31 30 27 26 30 28 27 26 26 25 25 25 25 26 27 29 27 27 26 24 24 27 25 25 25 27 25 24 20
34 39 39 39 37 33 31 32 32 34 37 37 35 36 35 34 33 32 33 32 33 28 31 30 32 30 29 28 29 31 29 30 28 26 23 25 28 27 26 24 28 27 24

GFSMA_700_spd_084.txt.gz
Wind_Speed
13 10 9 10 8 9 8 6 17 11 13 12 8 10 9 6 11 8 9 10 10 11 12 15 17 19 21 22 21 21 20 20 22 21 23 24 24 24 23 23 23 22 22
14 12 10 11 12 8 10 10 11 12 9 11 9 9 11 9 8 10 9 10 11 12 14 16 17 20 21 21 20 21 21 21 22 23 24 25 25 25 25 25 24 23 23
12 10 10 6 11 10 6 13 10 12 12 13 9 9 9 12 7 9 11 11 12 13 15 16 17 19 20 20 20 21 22 23 24 25 26 27 27 26 26 26 26 25 24
6 9 8 9 7 5 6 10 8 9 14 12 11 12 12 12 7 12 12 12 11 15 16 16 17 18 20 20 21 22 22 23 24 25 26 27 28 28 28 27 25 24 23
3 4 5 4 4 4 11 8 7 13 13 10 12 16 15 12 9 15 9 10 11 13 14 15 16 17 19 20 21 21 21 22 24 26 28 28 29 30 30 29 26 23 22
3 4 4 6 6 1 8 7 11 10 11 16 12 17 8 2 8 7 12 13 8 11 14 13 13 16 18 20 21 22 23 25 26 28 29 30 31 32 31 28 26 24 22
6 5 4 5 3 8 4 6 7 10 8 10 13 8 16 15 17 9 10 3 5 11 11 11 11 15 17 18 21 23 25 27 29 31 31 30 32 32 32 28 24 24 22
3 5 5 4 2 1 8 5 13 11 9 11 10 10 8 14 10 5 2 8 8 9 11 11 10 11 13 15 20 23 25 27 29 31 32 32 31 33 33 30 24 22 21
2 6 6 3 3 6 7 10 7 11 11 11 13 14 13 11 5 12 5 8 6 8 9 9 7 8 11 13 17 21 23 26 29 31 33 33 31 33 34 32 26 23 22
3 5 5 3 2 2 11 10 12 10 12 16 13 10 11 12 9 6 10 2 6 6 6 6 6 4 9 11 17 19 21 25 27 29 31 32 32 33 35 35 30 25 23
4 2 5 5 3 3 1 6 13 13 14 12 17 17 12 17 14 12 7 6 4 4 3 2 1 3 7 10 14 16 20 23 24 27 29 31 33 33 35 37 34 29 26
6 4 4 3 3 6 3 4 9 14 14 10 13 18 21 19 16 11 10 5 5 4 3 4 3 2 5 9 12 14 17 20 22 25 28 29 31 33 34 36 36 31 25
7 6 2 1 1 4 4 6 5 6 10 8 7 16 14 18 18 12 11 10 5 4 5 7 5 5 7 9 11 14 17 19 20 23 25 26 29 31 33 34 36 33 28
8 7 1 1 3 1 3 4 4 4 5 6 8 11 17 14 22 18 18 17 15 5 3 9 13 10 8 8 9 13 16 19 21 21 23 25 29 29 31 32 34 35 30
9 6 7 4 5 4 3 1 1 1 1 2 4 9 13 11 14 24 20 21 15 13 8 5 12 16 11 9 10 12 15 18 20 22 22 24 26 27 29 30 31 34 31
13 5 11 7 7 6 4 3 2 4 1 1 3 7 10 13 11 11 19 23 23 20 15 6 8 17 9 9 12 14 15 18 18 19 21 23 24 25 26 28 28 32 31
13 13 9 6 6 6 6 6 4 2 2 2 4 3 7 13 15 15 15 15 26 26 26 20 19 13 12 12 13 15 17 18 19 20 21 23 24 26 25 26 25 28 31
13 14 12 11 9 10 9 6 7 6 6 6 4 4 4 7 11 14 14 15 15 24 30 27 21 18 17 17 18 17 17 19 19 21 22 25 25 26 25 23 22 23 28
14 14 14 12 12 13 13 10 9 10 10 9 7 7 6 5 6 10 13 15 15 16 18 20 20 19 19 19 20 19 18 18 19 21 24 25 26 25 26 23 20 20 24
16 16 16 16 14 14 13 13 13 12 13 13 12 11 9 7 7 8 8 10 12 15 16 17 18 18 20 20 21 20 18 19 21 21 21 25 25 24 23 23 19 18 20
21 20 19 18 17 16 15 14 15 14 14 16 15 14 13 11 10 11 10 9 9 10 13 15 16 17 18 18 19 19 21 22 21 22 22 20 23 23 22 21 18 16 17
23 22 23 21 21 21 17 17 16 17 17 15 15 17 16 15 13 15 14 13 13 13 12 14 14 15 14 17 18 21 22 23 22 20 22 19 19 22 22 18 17 14 15
26 26 24 24 24 23 22 21 20 20 20 21 20 18 19 19 18 18 18 17 17 17 17 17 17 16 18 18 22 23 23 24 22 20 22 20 19 19 20 19 20 18 13
29 29 29 26 27 27 24 24 24 25 25 25 25 25 24 22 22 23 21 20 20 20 20 21 21 18 20 20 23 24 25 24 22 19 22 24 21 20 19 21 22 20 17
34 32 30 28 28 26 27 28 28 29 30 28 28 28 29 29 25 24 28 30 26 24 23 24 25 24 22 23 24 26 25 28 25 21 20 25 23 23 21 22 20 21 21
37 35 34 34 32 33 32 32 32 33 34 33 32 32 31 31 30 31 33 32 33 31 33 31 30 28 27 26 25 27 27 28 29 25 18 25 25 26 25 23 21 20 21

GFSMA_700_spd_087.txt.gz
Wind_Speed
13 14 10 10 11 13 16 13 12 13 11 11 10 7 12 8 9 9 10 12 15 19 22 23 24 25 24 23 24 24 23 25 24 24 24 23 23 22 21 20 20 20 20
15 12 11 14 10 12 13 13 13 15 14 12 13 9 7 13 10 9 12 15 18 21 23 24 24 24 23 23 24 24 24 24 24 24 24 23 23 22 21 20 19 20 21
10 10 8 8 11 11 10 13 16 17 15 13 13 14 14 14 13 12 13 16 19 21 23 23 23 23 23 23 23 23 23 23 23 24 24 24 24 24 23 21 19 20 22
8 8 10 10 10 12 10 11 13 11 15 16 15 14 15 17 13 16 13 14 17 20 22 21 22 22 23 22 22 22 22 23 24 24 25 26 26 25 22 21 21 22 22
9 7 4 8 7 11 12 12 12 11 18 16 15 14 14 16 14 16 17 13 17 18 20 19 19 22 23 24 24 24 25 27 27 28 27 28 29 27 23 21 21 22 23
6 8 5 8 8 5 8 9 12 12 16 13 18 19 18 12 14 14 14 16 17 16 18 18 17 20 22 24 24 25 27 29 29 30 29 30 32 29 24 20 21 21 21
5 5 5 9 6 5 10 11 8 9 12 12 21 21 19 16 17 9 13 14 16 15 17 15 14 18 19 20 23 25 27 29 29 31 32 31 33 33 28 23 21 18 18
7 6 6 5 5 4 9 12 8 12 14 16 15 17 18 14 12 13 7 9 13 14 14 13 12 14 16 16 20 23 26 28 28 30 31 32 32 34 31 25 21 18 16
7 5 6 7 6 5 6 10 9 11 15 13 11 10 9 12 13 16 8 5 8 9 11 9 9 12 12 13 18 21 24 25 26 27 30 31 31 32 33 29 23 20 18
9 7 5 3 7 7 6 11 9 14 14 17 17 16 10 8 9 13 11 6 5 7 7 5 4 9 11 13 17 20 21 23 23 25 27 29 30 31 33 32 27 23 23
8 6 4 5 6 6 6 11 9 11 16 15 16 18 17 13 9 8 11 7 2 5 6 5 3 4 9 11 14 16 18 19 21 24 25 26 28 30 31 32 31 26 23
9 8 4 7 4 5 5 9 14 10 15 13 15 18 19 16 13 8 5 5 5 3 2 1 3 4 7 9 12 15 17 18 19 21 22 24 26 28 29 30 32 29 25
8 10 8 9 7 4 5 6 9 13 9 8 16 20 21 18 15 14 9 7 4 4 1 2 3 5 6 7 10 12 15 17 18 19 21 22 25 26 27 28 30 31 28
10 7 7 7 7 6 5 6 8 9 10 10 14 21 25 21 20 18 15 13 10 9 5 1 6 7 6 4 7 11 13 16 17 19 21 21 22 24 24 25 26 30 28
5 8 3 3 6 7 6 6 5 7 8 9 10 18 23 24 21 24 20 20 18 14 10 6 8 11 7 4 7 9 13 16 17 18 20 20 20 22 23 23 23 27 28
13 7 7 3 4 4 5 4 4 4 6 7 8 9 14 17 19 26 24 22 22 20 15 13 17 11 6 3 7 10 14 15 16 17 18 17 19 21 21 21 21 22 27
7 6 4 9 5 3 6 6 3 3 5 5 4 4 10 14 12 16 26 27 25 25 22 21 24 11 9 9 10 12 14 15 14 16 17 18 19 20 19 19 18 19 21
10 8 9 9 6 8 8 5 4 5 4 4 2 2 4 6 11 14 11 14 23 28 29 28 26 20 18 17 17 15 15 14 13 15 17 18 19 19 18 18 16 14 16
11 9 8 8 8 11 8 7 7 6 6 7 7 6 5 5 7 9 10 11 11 12 18 24 28 29 26 20 18 18 16 15 13 15 18 20 19 18 17 16 14 12 13
12 12 11 11 10 9 9 9 9 10 9 9 9 9 7 7 8 9 8 8 11 13 14 15 13 14 15 17 18 18 16 14 13 15 17 21 19 18 16 15 13 11 10
16 15 15 13 12 12 12 11 11 10 10 10 10 10 10 9 11 11 10 9 10 11 11 12 11 11 10 12 14 13 15 15 15 16 20 18 19 18 16 14 12 10 11
19 19 18 16 15 13 12 14 14 14 13 12 11 10 10 11 11 10 11 13 14 14 13 13 12 12 11 13 15 17 18 19 18 13 18 14 18 15 18 16 12 9 10
23 21 20 20 19 17 16 15 16 16 16 16 15 15 15 14 15 14 13 14 15 16 17 16 16 15 16 15 20 20 21 20 18 17 19 16 18 18 18 14 10 11 12
25 25 26 26 25 21 21 21 20 21 21 20 20 20 20 19 18 19 19 18 18 18 19 21 22 19 20 19 21 24 23 21 18 16 21 21 16 18 17 14 13 12 12
29 29 29 29 27 26 25 25 24 24 25 25 26 25 24 25 22 21 23 25 25 23 22 24 25 24 25 26 27 28 25 27 23 17 18 22 19 20 19 15 14 13 14
33 31 29 29 30 29 29 29 29 29 28 28 27 26 26 26 27 26 28 28 29 26 27 29 30 29 28 27 27 30 30 29 28 22 16 24 20 21 20 17 16 16 14

GFSMA_700_spd_090.txt.gz
Wind_Speed
15 13 13 11 12 11 12 14 11 11 12 11 17 15 14 12 13 14 17 20 22 23 23 25 25 23 23 23 22 21 20 20 20 20 19 19 18 17 17 17 17 16 15
13 10 10 13 12 13 13 14 13 12 13 10 14 16 13 11 12 16 19 21 23 23 24 24 24 23 23 22 20 20 19 19 20 21 20 20 19 18 17 17 18 19 19
10 12 10 13 12 11 12 13 15 14 15 17 13 15 15 15 15 17 20 20 20 23 23 22 23 23 22 20 19 20 20 20 21 22 22 22 21 19 17 17 18 19 19
10 10 10 11 11 12 11 10 14 14 15 16 13 15 18 18 19 17 19 20 20 21 21 21 22 23 22 21 22 22 23 23 23 24 24 25 23 19 17 17 17 18 19
7 9 7 9 8 10 11 12 12 12 14 13 12 14 16 18 19 18 18 18 19 19 20 21 21 22 22 23 22 23 24 26 26 25 26 27 25 21 16 16 17 18 19
5 7 7 8 10 10 10 12 16 10 11 15 17 17 14 16 18 18 17 17 18 18 19 20 21 21 21 21 22 23 25 27 27 27 26 27 25 22 19 17 18 19 20
8 7 7 9 10 13 11 12 11 11 9 18 18 19 16 14 16 18 18 16 15 15 16 17 18 18 19 19 20 22 23 25 26 26 26 26 26 26 22 21 20 18 20
9 6 8 6 7 10 9 10 8 10 12 16 16 13 15 14 14 15 15 15 14 13 14 14 14 14 15 15 17 20 23 24 24 25 25 26 26 28 29 26 21 18 18
12 8 5 4 7 8 14 10 9 13 17 14 15 14 13 14 14 13 13 13 14 12 10 10 12 11 12 13 15 18 20 21 22 23 25 25 26 27 30 28 23 20 18
11 9 7 5 6 8 10 11 10 12 17 10 13 13 10 11 12 12 11 10 10 9 8 7 6 7 9 12 15 16 18 18 20 21 23 23 25 26 27 30 25 22 20
8 8 8 9 9 9 9 9 9 16 16 14 13 11 10 10 11 11 11 9 6 4 5 5 5 4 6 10 11 13 15 17 19 20 21 22 23 24 25 27 28 24 22
7 6 7 8 8 7 9 10 9 12 18 18 14 13 13 8 8 9 10 9 7 6 5 2 2 2 2 5 8 12 14 16 18 19 20 21 21 22 23 24 27 25 23
5 5 7 6 7 7 8 9 13 12 15 16 16 18 16 14 10 9 10 9 7 7 5 4 2 4 4 4 6 10 14 16 18 17 18 20 20 20 20 21 23 25 23
9 6 5 6 4 4 6 8 9 16 14 13 16 20 21 17 14 12 13 11 10 9 6 6 5 8 6 3 5 9 12 15 17 17 18 19 19 18 18 18 19 23 23
9 8 5 4 4 5 6 7 7 8 12 14 15 21 26 24 21 18 18 16 14 14 10 10 11 11 11 6 5 8 12 15 17 17 17 18 18 17 16 15 15 17 20
9 11 8 5 4 4 5 5 4 5 6 8 10 15 22 27 25 25 24 23 20 19 17 15 16 16 11 6 7 11 14 15 16 17 17 17 18 18 16 14 13 13 16
9 10 8 8 6 5 6 5 6 5 6 6 7 9 17 24 28 27 26 26 25 22 23 21 20 20 11 10 12 16 17 17 16 17 16 17 17 19 17 15 13 11 12
10 10 11 9 9 6 7 6 6 6 5 6 5 5 6 9 15 17 15 20 31 29 26 27 27 25 24 22 23 21 20 19 16 16 17 17 17 19 17 15 13 11 10
12 13 12 10 10 11 12 10 10 7 7 7 5 5 5 5 7 9 13 15 17 19 21 20 22 27 28 29 30 25 22 18 16 17 17 17 17 19 17 15 14 12 9
13 13 13 12 11 12 11 10 12 11 10 8 9 7 7 8 8 9 10 9 11 13 14 16 16 15 19 22 24 21 19 18 15 14 15 19 19 17 16 15 14 13 10
17 16 15 14 13 13 12 12 11 11 12 11 11 11 12 11 10 10 12 13 10 10 12 12 11 11 11 14 16 15 16 16 13 14 16 15 17 18 16 15 16 13 11
21 20 19 17 15 14 13 13 13 13 14 14 14 14 13 13 13 12 12 13 14 13 14 14 13 12 11 14 16 18 18 18 14 12 17 11 18 16 19 19 18 13 10
25 24 23 22 20 19 17 17 16 17 17 16 17 17 17 16 15 14 15 15 15 15 15 16 15 14 15 15 18 20 21 21 18 16 19 14 17 19 20 18 17 15 11
25 25 24 25 24 23 22 21 22 22 21 19 18 18 19 19 19 20 20 20 19 19 19 20 20 18 19 18 21 23 24 23 21 18 22 21 19 17 16 15 15 14 12
22 24 25 25 25 26 26 25 26 26 26 25 24 22 21 21 20 23 26 26 26 25 25 25 25 26 26 26 27 28 27 27 25 21 23 25 20 23 19 15 16 15 13
24 24 31 31 30 31 29 29 27 28 28 28 26 25 25 25 24 24 26 27 29 27 28 30 30 30 30 29 30 31 31 32 31 27 22 29 26 27 27 19 20 20 18

GFSMA_700_spd_093.txt.gz
Wind_Speed
13 12 8 9 6 12 10 11 11 10 14 13 14 14 15 17 19 19 21 22 21 21 20 20 20 20 19 18 17 17 17 18 19 19 18 17 17 17 18 19 20 21 19
11 12 10 9 10 10 10 10 10 11 14 13 14 15 16 19 20 20 20 20 20 20 19 19 19 18 17 17 17 18 18 19 20 20 20 21 20 19 19 19 20 20 20
9 11 12 11 11 11 12 11 11 12 14 14 15 16 20 20 19 19 20 19 19 19 18 18 18 17 18 19 19 20 20 20 21 22 23 22 21 20 20 18 19 19 20
9 9 10 8 9 12 12 11 11 10 11 12 13 16 19 20 19 19 19 18 18 17 18 18 18 19 19 19 20 22 22 22 22 23 24 24 23 20 20 19 18 19 19
10 8 8 9 8 10 10 10 10 10 9 10 11 15 17 19 19 18 18 17 18 18 19 20 20 19 18 18 20 22 23 24 24 24 24 26 25 23 21 19 18 18 18
7 5 7 7 8 8 11 7 7 5 6 10 12 14 15 17 18 19 18 17 17 18 19 19 19 18 17 17 18 19 21 23 25 25 24 25 25 25 22 20 20 19 18
5 5 5 5 7 8 8 10 8 6 8 14 14 13 15 16 16 17 16 17 16 16 17 17 16 15 15 15 15 17 20 22 24 25 25 25 25 26 24 22 20 19 18
7 6 5 4 5 8 10 10 8 6 9 12 13 13 13 14 16 16 16 15 15 14 13 13 13 12 12 12 13 16 19 21 22 24 26 25 25 25 26 24 21 20 18
9 8 7 5 5 8 9 9 6 9 9 9 11 12 13 14 15 15 14 13 12 12 10 10 9 9 10 10 12 14 17 19 20 22 24 25 24 24 26 25 23 22 20
9 7 6 7 6 5 9 7 7 11 13 9 8 9 8 10 14 14 12 12 11 9 8 7 6 6 7 7 10 13 15 17 18 20 22 24 24 23 23 25 23 22 21
8 7 6 5 7 6 7 9 8 9 15 10 9 8 7 8 10 12 13 13 11 9 5 3 3 3 2 3 6 10 13 15 17 19 21 23 23 22 21 23 24 21 21
6 6 6 8 8 8 9 9 9 11 14 12 12 9 8 8 8 9 11 11 10 8 7 5 4 1 3 4 5 8 11 14 16 18 19 21 23 22 21 20 22 22 22
6 5 4 5 8 8 7 8 12 12 15 16 14 12 12 10 10 9 10 9 9 8 7 8 7 5 7 8 7 7 11 13 17 18 19 20 23 22 21 20 18 21 21
6 6 4 2 3 5 5 6 10 14 16 15 17 16 17 15 14 12 11 10 9 8 9 10 10 10 12 11 9 9 11 15 17 19 19 19 21 21 21 20 19 18 20
6 7 6 5 4 4 3 5 6 10 15 15 15 21 21 20 18 15 13 13 13 12 14 13 14 15 14 13 12 11 12 15 19 20 20 20 20 21 21 20 19 17 16
8 9 9 7 6 6 5 6 6 7 10 14 16 16 22 24 24 22 21 18 17 17 17 16 17 19 19 14 10 13 15 17 19 20 20 20 20 20 19 19 20 18 15
11 11 13 11 8 6 7 6 6 7 9 10 11 13 17 22 25 27 25 24 24 25 24 21 23 23 22 21 17 19 19 20 21 22 21 20 20 20 19 18 18 17 15
16 15 13 11 10 9 8 7 8 8 8 10 9 10 12 15 22 25 28 28 29 26 26 23 21 25 26 28 28 26 26 24 22 22 23 21 21 20 19 18 18 17 15
16 16 15 13 12 12 11 11 10 10 9 10 10 10 11 9 10 14 18 19 21 20 21 22 21 20 22 27 29 28 26 25 22 22 22 21 20 20 19 17 16 17 17
16 16 15 15 14 15 15 15 14 13 13 12 12 12 13 12 11 12 12 11 14 16 17 17 16 16 16 18 20 21 19 21 19 18 18 20 21 18 19 17 17 16 17
18 17 17 16 16 16 16 15 15 15 15 15 14 14 15 15 15 15 14 14 13 12 14 14 11 11 12 13 16 18 18 17 15 16 18 17 18 19 21 19 17 17 16
23 22 21 19 18 16 16 17 16 16 17 16 16 15 15 17 18 19 18 15 16 16 16 16 15 14 13 15 18 19 20 20 16 15 19 13 17 18 22 22 19 16 15
27 25 24 24 24 22 21 19 19 19 19 17 17 17 18 18 18 18 18 18 18 18 19 19 19 17 18 18 22 22 24 24 21 18 20 15 17 18 21 22 20 18 17
29 26 24 26 25 25 25 23 23 24 23 22 21 20 20 20 21 22 23 23 22 22 22 23 24 21 22 22 25 27 27 26 25 23 26 25 21 23 21 21 23 22 20
31 24 28 29 26 25 26 27 28 28 27 26 26 24 24 24 23 25 27 27 26 26 26 27 28 28 27 27 28 29 28 31 30 27 27 29 25 28 26 23 24 24 23
28 28 21 23 25 28 25 28 30 30 30 30 28 27 26 25 25 24 27 28 28 28 29 30 29 29 30 28 28 29 28 30 31 31 24 33 28 29 31 25 25 26 27

GFSMA_700_spd_096.txt.gz
Wind_Speed
8 7 7 8 8 10 11 12 13 12 11 13 14 15 17 20 22 22 21 20 17 17 16 15 15 15 15 16 16 17 18 19 20 19 19 18 18 18 18 18 19 18 19
8 7 6 8 9 8 6 8 11 11 10 11 13 15 18 22 22 21 20 18 17 16 16 15 15 15 16 17 19 19 20 20 21 21 22 21 21 19 19 19 18 18 17
7 5 6 9 10 9 10 9 12 13 12 13 15 17 19 20 20 19 19 16 15 15 15 14 15 17 18 19 20 21 21 22 23 24 25 25 22 21 19 19 18 19 20
9 10 8 8 7 9 9 7 11 12 12 13 15 18 19 19 19 18 17 15 15 14 15 16 17 17 17 18 19 20 22 24 25 25 26 26 25 23 21 19 18 19 19
8 6 6 7 8 9 7 6 8 8 9 12 13 15 17 18 18 18 16 15 15 17 17 16 16 15 16 16 17 19 21 24 26 27 27 26 26 24 21 20 20 20 19
8 6 5 5 6 7 7 4 3 2 4 9 12 14 15 15 16 16 15 16 17 17 16 14 13 13 14 15 16 17 19 22 24 26 27 26 26 26 23 20 21 20 19
7 8 8 6 6 6 6 5 4 4 5 7 11 13 14 14 14 14 14 14 16 15 14 12 11 11 12 13 14 16 19 21 23 25 26 27 26 26 25 22 19 20 19
7 5 7 5 7 4 7 6 3 2 2 6 10 13 13 14 14 14 14 13 12 12 11 9 8 8 8 10 12 14 17 19 21 23 25 27 27 26 27 25 23 22 22
5 6 4 3 4 6 6 8 5 3 3 5 8 10 12 13 13 12 12 11 10 9 7 7 6 4 5 8 10 12 15 17 19 21 24 27 27 26 25 27 24 24 24
7 6 6 5 4 3 8 9 5 6 6 7 8 10 9 12 12 11 11 9 9 7 5 4 2 0 3 5 8 11 13 16 18 21 23 25 27 27 26 25 25 24 24
7 5 5 4 4 4 7 7 5 5 11 7 6 8 8 9 11 11 10 11 10 8 7 5 3 4 5 6 8 10 12 15 18 21 22 23 25 26 27 26 25 23 23
3 3 3 6 5 5 4 5 7 7 12 10 9 8 7 7 9 9 10 11 10 10 8 6 6 6 8 9 11 12 13 14 16 19 21 22 23 24 25 25 24 23 22
4 4 3 3 4 5 5 7 9 9 13 14 10 9 8 7 8 8 9 9 8 9 10 10 8 9 12 12 13 13 14 15 17 18 20 21 22 23 24 24 24 21 22
5 5 3 3 1 3 5 6 8 13 14 14 14 13 11 11 11 11 10 9 9 9 11 11 12 13 14 14 15 16 14 15 17 19 20 21 22 24 24 24 23 21 19
6 7 4 3 2 4 3 3 4 7 11 14 16 17 16 17 17 15 13 12 12 13 13 14 17 18 17 15 18 19 15 14 17 20 21 21 22 23 24 23 22 21 19
9 5 7 6 6 6 5 4 3 4 7 13 16 15 15 20 21 20 19 17 16 17 17 18 20 22 22 22 19 17 17 17 19 23 24 22 22 23 23 23 22 21 19
10 9 9 11 9 8 7 6 5 5 7 9 11 13 15 16 19 22 24 24 22 23 23 22 25 24 24 25 24 24 23 23 25 25 25 22 22 22 23 22 21 20 19
13 12 12 11 11 10 10 9 7 8 8 8 9 9 12 12 14 18 21 21 23 26 26 23 22 23 24 26 28 28 28 27 27 24 22 22 21 21 21 20 19 19 19
17 17 16 14 13 12 12 10 9 9 9 10 11 11 12 12 11 12 15 18 21 21 22 20 18 17 18 20 21 22 21 20 20 20 20 20 20 21 21 19 18 19 20
17 18 17 17 16 16 16 15 13 13 12 12 13 13 14 14 13 13 14 14 16 17 17 17 16 15 15 16 18 19 18 19 17 18 19 20 21 22 22 20 18 19 21
18 18 17 17 17 17 16 16 15 14 14 15 16 15 16 17 17 17 17 17 17 17 17 17 15 14 13 14 18 19 20 19 16 17 18 18 20 20 23 21 19 19 20
22 21 20 20 19 18 16 17 16 15 15 15 15 15 16 18 18 19 20 21 21 21 21 20 18 18 18 19 20 21 22 21 18 17 20 14 18 18 23 23 21 20 19
27 26 24 24 23 20 21 20 19 18 18 18 17 18 18 18 20 21 20 20 21 21 22 23 23 21 22 22 25 24 25 25 24 20 24 18 20 19 23 24 23 21 21
29 29 28 25 24 24 24 24 23 23 23 23 23 22 22 21 23 24 23 22 22 23 25 27 27 25 26 24 27 28 28 28 27 24 27 25 23 22 22 24 26 24 23
32 27 32 29 27 28 24 22 24 25 25 25 25 26 26 26 25 25 27 27 26 25 27 29 31 30 29 29 30 31 30 32 31 28 28 31 25 27 25 22 25 27 26
43 48 34 34 31 27 25 29 28 27 25 26 27 29 30 31 29 27 28 28 29 29 29 29 30 32 32 31 31 33 33 35 34 34 25 34 31 30 31 23 23 26 28

GFSMA_700_spd_102.txt.gz
Wind_Speed
11 12 12 13 10 9 9 9 9 9 10 11 13 14 16 15 15 14 13 13 14 14 14 15 17 18 19 19 21 23 23 25 25 24 24 22 19 18 18 18 15 16 16
11 11 12 12 12 11 9 9 9 10 10 12 14 16 17 15 13 12 12 13 13 14 14 16 18 18 19 20 21 24 25 26 27 26 26 25 22 21 20 19 16 15 17
11 11 11 11 11 9 10 11 11 10 10 12 14 15 15 13 12 11 11 12 12 13 15 16 16 17 18 19 21 23 25 26 28 28 27 28 27 22 21 21 20 17 17
9 9 9 11 11 11 11 11 10 9 9 12 13 14 13 11 10 9 10 10 11 13 13 13 14 16 17 18 20 22 24 26 29 30 30 29 30 28 24 23 22 19 19
9 10 8 9 10 10 10 9 9 9 7 9 8 12 11 9 8 8 8 8 9 10 10 11 13 15 16 18 21 22 24 25 27 29 29 30 31 30 28 27 25 22 21
6 7 8 8 9 10 10 8 7 8 10 12 9 11 11 9 7 6 6 7 7 7 8 9 11 13 14 17 19 21 23 24 25 27 28 30 31 30 30 30 29 26 23
5 6 5 7 6 7 8 8 7 8 8 12 11 8 9 8 5 4 5 6 5 5 5 6 9 10 13 16 18 21 22 23 24 26 27 29 31 32 31 30 30 29 26
4 5 6 5 7 6 6 6 6 7 8 11 12 11 5 5 6 5 4 4 3 2 3 5 7 10 12 14 16 18 21 22 24 25 26 28 29 31 31 31 29 31 29
5 4 5 4 8 5 7 6 5 5 5 9 12 11 5 5 6 6 5 4 3 2 3 6 8 10 11 13 15 17 18 20 22 23 24 25 27 29 31 31 30 28 30
8 6 5 3 5 6 6 7 4 4 5 7 10 11 11 10 7 2 6 8 6 5 6 6 9 11 11 12 14 16 17 18 20 22 23 24 25 26 29 30 29 28 26
9 7 6 5 4 5 7 8 6 6 8 8 8 11 10 9 10 8 3 4 8 9 10 9 11 11 12 12 13 16 17 18 18 20 22 24 26 25 25 28 28 27 25
8 8 7 6 5 4 6 7 7 6 9 10 10 10 10 8 5 4 2 4 6 9 11 12 12 12 14 15 17 17 18 20 20 19 20 23 25 24 23 25 26 25 24
5 7 6 5 6 7 6 6 6 7 8 13 11 9 12 12 12 12 5 6 6 8 9 11 14 15 13 18 20 20 21 21 22 21 19 22 25 24 22 22 23 22 20
8 7 6 6 5 7 7 6 6 9 10 12 13 10 12 14 14 14 13 10 6 10 12 15 13 15 17 22 25 24 26 25 26 23 20 23 26 24 21 20 21 20 18
9 9 7 6 5 3 4 4 5 7 9 10 11 11 11 13 15 17 17 17 15 10 10 16 16 17 20 23 29 28 30 29 27 23 22 25 26 21 19 19 20 19 18
9 10 9 8 6 4 5 4 4 5 5 9 9 9 10 11 13 15 17 19 19 20 18 14 19 23 26 28 30 31 28 27 26 22 25 21 19 18 17 18 19 18 18
12 11 10 10 8 6 5 5 5 5 5 5 6 8 10 10 10 12 13 16 19 21 23 23 23 27 27 28 26 24 22 22 21 19 17 16 15 15 16 17 16 17 19
15 14 14 11 10 9 9 8 8 7 6 6 6 7 6 6 6 8 9 10 13 15 17 19 18 19 20 20 19 19 19 18 18 17 16 16 16 17 17 17 16 16 18
18 16 15 15 13 11 11 9 10 8 7 7 8 7 8 9 8 9 8 10 10 10 10 12 14 15 16 16 16 17 17 17 17 19 19 18 18 20 21 19 16 16 16
20 19 17 18 17 15 14 14 11 11 10 11 10 10 11 10 11 11 11 11 12 12 14 14 15 15 15 17 17 16 17 16 16 16 18 20 20 21 22 23 22 21 18
22 20 19 19 19 18 18 15 14 14 14 14 14 13 15 14 14 14 14 14 14 15 16 17 17 15 13 16 20 19 20 20 18 19 18 17 19 21 22 25 24 21 20
23 19 18 20 19 19 17 16 15 14 15 16 16 15 16 15 16 16 16 16 17 16 16 17 17 18 19 20 22 23 24 24 23 20 22 20 20 20 21 20 24 25 24
22 20 20 22 20 20 19 17 17 17 17 17 17 16 18 15 15 16 17 18 19 20 20 20 20 20 22 22 23 24 24 25 26 25 27 25 21 21 21 19 23 25 25
21 19 19 21 22 23 23 22 21 21 20 19 19 19 22 20 19 20 21 21 21 22 24 23 24 23 23 23 25 26 25 25 24 24 25 26 23 23 22 23 24 20 23
22 25 26 27 27 27 26 26 25 23 23 23 25 22 24 24 23 22 23 23 23 25 26 25 25 25 25 25 26 26 28 28 26 27 27 28 27 27 25 21 19 24 20
26 27 30 35 37 33 30 27 26 25 24 25 26 23 22 19 19 24 24 24 24 29 29 28 27 28 28 27 28 27 27 26 27 29 27 30 30 28 27 23 22 21 23

GFSMA_700_spd_105.txt.gz
Wind_Speed
13 5 13 9 13 8 8 8 8 8 11 12 11 14 16 16 17 16 15 16 15 16 17 18 19 20 22 24 25 26 26 26 25 26 27 26 23 22 23 22 20 18 17
8 11 13 9 9 9 7 4 15 11 9 10 12 15 16 14 14 16 16 15 15 17 17 18 19 21 22 24 26 26 27 27 28 27 28 29 28 25 24 24 22 19 19
12 11 11 9 2 8 12 13 19 15 11 9 11 13 12 13 13 13 14 13 15 15 16 16 18 20 21 23 24 25 26 27 29 30 31 31 30 29 28 26 23 22 21
12 13 9 8 8 12 10 14 9 9 9 4 10 6 10 11 11 10 10 11 12 15 14 15 17 19 21 23 24 24 26 27 28 30 31 32 32 30 30 29 26 24 23
10 15 9 8 10 12 12 7 7 12 9 7 11 6 8 8 9 9 8 11 10 12 13 12 15 17 19 22 23 24 25 26 27 29 30 32 33 33 31 30 30 28 26
7 9 9 10 11 12 5 11 10 15 12 20 9 6 6 7 7 6 7 9 8 9 10 11 14 15 17 20 22 23 25 26 26 28 29 30 32 33 33 32 31 30 29
5 5 5 7 12 7 5 7 8 7 3 11 12 2 5 6 6 5 5 5 4 6 6 9 12 13 17 18 19 21 23 24 25 26 27 28 30 31 33 33 32 31 30
5 6 5 5 7 7 6 7 8 10 1 15 11 8 2 5 3 1 2 2 3 1 5 7 9 12 14 12 15 18 20 22 24 25 26 27 27 29 30 32 32 30 29
4 6 6 6 9 7 3 7 9 15 5 8 13 11 10 6 2 2 1 3 2 3 4 9 12 12 14 15 19 20 19 21 22 24 25 26 27 27 28 29 30 29 27
6 5 7 5 7 9 8 6 3 11 11 4 6 14 15 11 8 2 2 6 4 4 7 5 7 16 16 6 19 18 21 22 23 23 23 25 28 28 26 26 27 25 24
7 6 6 5 5 5 8 7 7 6 14 13 6 3 8 4 12 11 4 3 6 2 5 6 6 4 16 17 15 18 21 23 25 25 24 23 25 28 25 24 24 24 22
9 7 6 5 5 5 7 8 7 6 7 13 11 12 10 12 11 6 4 6 6 9 5 9 13 4 9 9 22 21 22 23 25 26 26 23 23 26 23 22 22 22 20
4 6 5 5 6 6 5 6 7 6 8 10 10 10 8 13 15 9 9 15 5 11 13 13 3 13 11 19 22 24 26 28 28 27 24 21 22 24 19 19 20 19 20
6 3 5 5 5 7 6 6 7 8 10 11 13 12 11 5 7 7 9 14 8 7 15 13 8 11 16 20 26 28 30 33 28 24 22 20 23 17 16 15 17 18 19
8 7 6 6 5 3 4 6 7 7 10 9 11 12 11 9 10 9 11 10 11 11 7 15 21 14 22 24 31 32 30 27 23 18 18 18 16 15 14 14 14 16 17
8 14 7 6 5 4 5 4 5 4 5 7 9 12 11 12 13 8 11 12 14 14 16 16 18 19 32 30 27 26 22 19 17 17 16 15 15 15 15 14 13 15 16
9 9 9 8 8 7 5 5 5 7 5 5 6 7 9 9 10 10 12 11 12 12 14 16 22 22 23 25 18 17 16 14 15 14 14 14 14 14 14 14 13 14 15
14 11 13 11 10 10 8 8 8 8 8 7 6 6 6 6 7 7 9 8 9 10 12 13 13 13 10 21 19 14 15 12 13 17 18 13 14 16 16 14 14 14 15
18 15 14 13 12 11 9 9 10 9 9 8 7 6 7 7 7 8 8 8 9 9 6 10 12 13 13 15 22 18 20 19 14 17 15 18 16 15 15 16 16 16 16
19 17 17 16 16 14 14 12 12 11 10 10 9 8 9 10 9 10 9 10 11 11 13 11 12 12 12 13 15 17 12 14 17 15 14 17 19 18 17 16 11 12 15
21 20 19 19 18 17 19 15 14 14 13 14 14 13 12 13 12 12 12 12 12 13 13 11 13 11 10 13 17 19 17 18 17 19 19 19 20 18 15 17 21 19 18
24 23 21 20 20 21 14 15 16 16 15 15 14 14 14 14 13 12 12 11 12 13 13 14 15 15 16 17 18 19 20 20 21 19 21 21 18 19 17 13 25 21 19
21 23 22 21 19 18 17 15 16 17 16 15 15 15 14 15 15 15 15 16 16 16 17 17 18 17 18 20 20 20 20 20 20 19 21 18 16 11 15 14 23 19 16
19 21 23 21 19 18 18 18 18 19 18 18 18 18 20 20 19 19 20 20 19 20 19 19 21 21 22 21 21 21 21 20 18 17 20 18 19 19 18 18 17 20 20
32 28 22 20 20 20 22 22 21 21 20 21 21 21 22 22 21 21 21 21 20 20 22 20 22 24 24 24 25 24 23 22 21 18 20 21 21 19 19 16 16 19 21
33 31 29 21 20 27 32 31 27 24 23 22 22 22 23 23 20 19 20 22 22 23 25 30 32 27 28 27 28 27 25 25 25 24 25 26 24 27 24 19 18 18 21

GFSMA_700_spd_108.txt.gz
Wind_Speed
12 9 14 18 22 19 8 8 18 20 19 17 20 18 17 21 21 18 17 18 19 21 22 23 24 25 25 25 26 27 28 28 28 27 27 28 27 26 24 22 21 21 21
12 18 15 5 16 12 12 12 20 17 19 14 16 19 18 15 18 17 17 18 19 20 21 22 23 24 24 25 26 27 28 28 29 30 30 30 28 29 28 26 23 22 20
11 7 13 8 14 15 23 26 20 18 14 14 14 17 15 16 13 14 17 17 19 19 19 20 21 23 24 25 26 27 27 28 29 30 31 31 31 30 30 30 28 24 22
13 9 17 10 11 18 20 17 17 10 8 13 12 14 14 13 12 14 13 13 15 18 17 17 20 21 23 24 25 26 27 27 28 29 30 31 32 32 31 30 29 28 25
9 11 11 13 13 18 12 9 14 18 13 4 9 7 11 8 11 13 9 12 12 15 15 13 16 18 19 21 23 24 25 27 28 29 29 30 31 32 32 30 29 30 28
8 10 10 11 15 13 9 16 10 16 9 15 11 2 6 8 10 8 8 12 7 10 14 9 13 14 14 19 21 22 24 25 26 28 30 31 30 31 31 30 28 29 29
6 10 11 7 14 11 10 15 19 18 19 14 11 7 5 7 7 4 7 7 4 9 6 9 13 15 16 16 18 20 23 24 25 26 28 30 31 30 30 30 29 26 29
6 6 10 10 6 9 9 9 12 14 16 16 12 5 6 7 7 5 3 5 2 2 5 7 8 13 17 18 19 20 21 24 25 26 26 27 29 30 29 29 28 26 25
6 5 4 6 10 10 7 8 13 12 16 13 12 11 8 7 5 7 6 2 2 4 7 7 8 11 15 13 13 18 20 23 25 26 26 24 26 29 26 26 27 25 24
6 6 5 6 7 4 10 8 12 11 9 13 17 13 8 10 12 2 7 7 7 4 1 4 7 12 18 21 20 19 19 22 26 27 26 24 22 25 24 23 24 24 23
6 7 8 6 7 6 6 10 9 12 15 12 11 10 9 4 6 14 19 8 5 2 11 9 5 4 12 5 10 22 21 24 25 27 24 21 19 21 19 19 20 21 22
8 5 5 6 6 6 6 10 9 10 13 14 14 16 17 18 21 14 17 4 6 14 10 10 10 10 11 11 8 23 28 29 26 24 20 17 18 19 15 16 17 18 20
6 5 4 5 5 3 4 7 8 6 8 10 12 18 15 8 9 16 12 11 8 20 11 8 17 19 7 16 15 28 31 28 24 18 17 17 16 14 14 14 15 17 18
7 8 5 5 5 7 6 6 6 8 8 8 9 10 10 14 21 17 19 14 10 11 13 22 22 20 19 15 19 30 29 20 17 15 15 16 14 13 13 14 14 16 18
11 8 7 4 4 4 5 7 7 6 6 6 9 12 14 11 12 8 12 13 15 13 14 12 19 17 18 23 26 25 17 15 15 11 15 14 14 14 13 13 13 15 17
7 8 6 6 5 4 3 3 4 6 3 7 10 10 10 13 13 9 13 14 14 17 20 14 17 21 23 20 18 15 15 14 7 10 11 11 13 13 12 11 11 13 15
10 8 7 5 6 5 3 2 4 5 5 5 5 5 4 8 10 12 11 12 13 15 14 10 16 16 14 14 10 15 13 12 13 10 11 10 11 12 11 10 10 11 12
11 7 8 7 8 6 6 5 6 6 5 5 5 6 5 6 6 8 8 10 9 11 11 11 12 12 11 10 12 14 15 14 11 15 16 10 10 12 13 12 10 9 11
14 15 14 12 12 10 8 8 6 7 6 6 5 6 6 6 6 6 7 8 10 11 10 11 10 11 9 7 11 7 15 13 9 12 12 12 12 14 13 12 9 10 12
15 16 16 15 14 12 11 11 8 8 8 8 8 8 9 9 7 7 8 8 8 9 10 12 14 8 13 16 12 13 13 13 13 13 14 15 14 14 14 13 11 12 15
14 17 18 17 16 17 14 11 12 11 11 10 11 11 13 13 8 9 11 11 11 11 10 11 11 12 14 13 14 13 14 14 12 14 13 12 14 12 10 10 13 16 15
19 19 20 21 20 19 15 13 12 12 12 12 12 11 13 11 11 11 12 13 12 11 11 12 12 14 14 14 15 16 16 16 14 13 15 13 9 8 5 11 14 16 16
26 24 22 24 21 18 16 15 14 13 14 12 13 13 15 12 10 12 13 14 15 15 15 13 13 15 16 17 17 16 17 18 16 16 17 11 13 13 12 13 14 14 17
30 34 27 21 19 18 15 15 16 17 16 15 17 16 18 13 15 16 17 18 18 19 17 17 17 16 18 20 21 20 19 18 17 17 17 15 14 13 12 11 15 16 16
30 35 28 30 27 19 15 17 19 19 19 21 19 20 18 19 18 18 18 17 16 15 17 19 21 25 26 26 25 23 24 23 20 18 22 21 20 18 16 14 15 13 14
22 20 22 26 26 32 24 26 27 26 25 22 23 22 20 20 20 20 20 19 19 21 23 24 25 30 33 36 32 28 24 23 23 19 23 22 21 24 21 16 13 15 17

GFSMA_700_spd_111.txt.gz
Wind_Speed
15 16 8 13 21 24 25 24 20 16 18 22 20 20 22 22 21 21 22 22 22 22 23 24 24 24 25 25 26 26 26 25 26 26 26 26 24 25 25 24 21 19 18
11 19 14 15 19 23 23 24 24 22 17 16 19 19 18 18 20 22 22 21 21 21 22 22 23 23 24 25 25 26 26 26 27 28 28 28 28 25 25 25 25 23 20
12 14 15 21 27 24 20 16 20 21 17 16 17 18 17 15 15 19 20 20 21 20 19 20 20 21 22 23 24 25 26 26 27 28 28 29 29 28 26 26 26 26 23
15 13 14 17 25 23 18 18 14 20 22 16 15 16 14 15 13 14 16 16 18 19 17 16 18 18 20 22 23 24 25 25 27 29 30 29 29 29 29 26 27 27 25
11 10 13 21 17 19 16 19 13 13 18 15 14 10 11 12 10 14 12 13 13 15 15 13 13 15 16 19 20 22 23 25 25 26 28 30 30 29 29 27 26 27 28
9 7 9 17 14 15 16 18 17 16 9 8 7 8 6 9 9 13 9 10 12 10 14 10 11 13 13 16 19 19 21 23 25 26 25 26 29 28 27 27 25 26 27
10 9 12 10 12 11 17 17 16 13 17 12 7 9 11 11 9 8 8 7 8 6 12 12 13 14 15 15 19 19 21 22 24 25 26 24 24 27 25 26 24 23 25
7 4 11 7 11 10 16 15 18 18 18 15 10 11 8 5 8 10 11 8 7 11 12 9 17 21 19 12 11 16 21 23 24 25 25 23 21 24 22 23 22 21 22
8 6 6 7 9 10 11 15 18 23 15 14 10 6 3 4 4 6 4 5 7 8 10 8 6 4 8 4 7 14 21 25 26 26 23 21 19 21 19 20 20 20 20
7 8 8 7 7 6 8 13 14 19 19 14 13 10 9 11 9 8 9 9 7 12 11 9 12 8 10 7 10 13 14 26 29 26 19 17 17 19 16 18 19 19 19
7 6 7 7 12 6 8 10 13 10 16 17 17 10 11 11 14 12 16 11 10 11 14 11 11 7 4 9 17 14 24 31 29 23 16 14 15 14 15 16 18 19 19
10 7 5 6 6 7 11 12 9 11 13 13 14 11 10 10 9 13 9 16 17 14 11 21 9 9 12 13 10 19 27 32 26 16 14 14 15 14 14 15 17 18 19
9 10 10 9 6 5 6 10 12 11 15 15 15 12 11 10 12 13 10 5 4 8 8 9 14 20 6 9 22 23 29 25 11 9 13 14 14 13 14 14 15 17 18
6 10 10 8 7 8 6 7 9 10 8 11 15 19 19 18 12 9 7 8 10 11 12 11 11 10 11 19 24 25 18 10 7 7 12 12 11 12 12 13 14 15 16
17 10 10 9 7 7 8 9 8 8 9 10 10 13 16 16 11 12 10 10 11 15 11 12 15 16 18 15 19 16 10 11 7 10 10 9 9 10 10 11 12 13 15
9 7 11 8 7 5 5 6 5 4 4 8 8 8 10 14 13 12 8 11 14 10 9 9 11 13 15 11 5 7 11 8 6 8 9 7 8 8 9 9 11 11 12
7 7 9 5 5 5 4 4 4 3 3 2 2 3 2 8 11 13 12 10 12 12 9 5 5 3 5 4 2 8 8 4 3 3 7 3 4 7 8 7 7 9 11
10 8 6 6 9 7 7 6 5 4 4 6 4 2 2 4 3 5 6 7 8 5 5 3 4 2 7 5 4 5 7 11 10 11 9 10 5 3 3 3 3 5 10
12 13 12 10 10 9 8 8 7 4 5 5 5 5 4 4 4 3 4 6 5 5 5 4 4 7 7 7 6 7 7 6 7 8 10 8 8 8 7 6 3 4 9
13 14 14 14 14 15 12 10 8 7 7 8 7 6 6 5 2 5 6 6 7 9 8 8 5 5 8 7 5 4 5 7 7 9 9 11 9 8 6 7 7 9 12
13 16 15 16 16 15 13 11 10 11 10 10 10 10 9 8 8 6 7 7 6 6 7 7 7 8 9 9 9 10 11 9 10 10 10 10 10 10 9 9 9 11 12
15 13 15 20 18 15 14 14 13 13 13 12 11 13 9 7 7 7 7 8 8 7 8 9 9 9 10 12 13 14 14 13 11 12 9 10 8 9 8 9 11 11 14
20 19 17 17 19 21 18 16 15 14 14 14 13 15 11 9 9 10 11 11 12 11 11 13 13 13 12 12 12 15 17 17 17 14 13 10 8 9 10 10 10 11 13
21 19 19 22 23 22 18 16 16 16 16 14 15 14 14 13 15 15 14 14 14 14 14 13 15 15 16 17 16 18 19 19 20 19 15 14 12 11 14 13 13 15 13
29 29 26 27 22 26 29 28 21 15 17 18 18 19 19 18 18 18 17 17 16 16 15 16 18 19 23 24 25 28 30 27 22 23 20 20 18 13 14 15 16 16 15
31 34 29 23 25 21 23 27 26 25 20 22 22 20 19 20 20 20 19 19 19 21 20 22 28 30 28 29 26 24 21 21 20 16 22 19 19 19 15 14 14 16 17

GFSMA_700_spd_114.txt.gz
Wind_Speed
16 15 21 19 22 26 21 19 16 15 18 18 19 20 20 23 21 21 19 18 18 19 20 21 22 22 23 23 23 23 23 23 24 25 25 25 23 20 21 20 19 17 14
16 20 20 16 22 22 27 23 21 19 18 16 17 18 17 21 22 20 19 18 18 19 19 20 21 22 22 22 22 23 23 25 25 26 25 25 25 23 22 22 22 20 16
13 15 17 22 22 22 21 22 21 19 16 16 15 14 15 15 17 19 19 19 18 17 16 18 19 20 21 21 21 22 23 24 24 26 27 26 25 24 22 22 24 23 21
11 16 18 24 22 20 19 19 18 16 16 17 16 14 14 14 12 14 15 14 16 15 15 14 14 16 18 19 20 22 23 24 25 25 25 26 25 24 22 21 23 24 26
11 9 15 11 15 15 16 16 15 17 17 15 16 15 13 13 12 10 12 12 12 12 13 13 12 15 16 19 21 21 22 24 26 27 26 24 25 23 22 20 21 23 26
7 12 17 14 15 12 13 15 12 12 13 13 14 13 11 12 13 13 12 9 9 9 10 7 8 8 7 13 15 17 19 24 29 30 29 24 22 23 21 19 19 20 24
6 9 15 16 14 13 16 16 13 6 10 12 13 15 15 15 12 10 6 7 5 5 1 3 7 7 6 8 13 15 18 22 26 36 30 23 20 21 19 19 17 19 21
7 8 10 11 10 12 17 16 14 10 10 10 11 12 12 13 11 10 7 4 2 3 4 5 7 12 14 10 8 16 20 22 28 32 28 19 16 17 17 18 17 17 19
10 9 8 5 10 11 16 15 15 13 12 12 12 11 13 12 8 6 3 4 7 7 7 8 9 13 16 16 10 13 19 24 24 27 25 16 14 13 16 17 16 16 16
9 10 10 9 8 9 10 13 15 18 15 15 12 11 9 8 9 7 7 6 8 10 9 10 14 15 15 8 11 11 17 26 25 20 17 13 12 13 14 15 16 16 16
8 10 8 9 10 4 9 11 14 18 17 17 15 14 9 7 11 11 12 14 15 14 10 13 17 14 12 11 10 17 21 25 18 13 12 13 13 13 14 14 16 17 17
8 9 9 8 10 10 9 10 14 14 15 19 19 17 13 13 13 12 10 12 19 18 16 12 13 6 17 15 14 20 19 14 10 8 12 12 12 12 12 13 15 17 17
6 10 9 10 11 10 10 11 13 14 15 15 16 17 19 16 12 12 13 18 10 10 12 8 7 7 10 4 15 14 11 11 7 9 12 12 10 10 11 11 13 15 17
5 11 10 9 9 10 9 12 12 12 12 16 17 17 14 15 16 14 11 9 15 15 14 15 12 10 10 11 12 7 9 8 6 12 12 11 10 8 8 9 10 12 13
7 9 10 9 10 10 10 10 10 10 13 14 15 18 19 18 17 15 15 11 8 15 18 18 14 13 11 5 6 5 4 5 4 2 2 4 6 7 6 6 7 9 10
6 16 14 12 9 10 10 10 11 10 10 15 13 13 16 18 17 15 13 9 10 12 9 7 6 7 7 4 3 2 1 3 4 4 5 5 4 3 3 3 3 5 8
7 8 8 11 10 11 9 8 9 7 8 10 11 10 11 14 17 16 13 12 13 12 9 9 7 7 7 3 3 6 6 5 8 8 9 8 6 6 7 7 6 7 8
11 11 10 12 12 12 10 8 8 7 7 8 7 7 8 7 8 10 13 13 10 6 4 4 6 7 7 6 6 9 6 7 9 8 7 8 7 7 9 8 8 9 10
14 15 16 15 14 13 11 12 11 9 8 6 7 10 8 8 8 8 9 9 9 9 5 5 8 8 6 5 9 9 9 9 10 10 10 10 9 8 8 8 9 11 10
18 18 19 19 17 12 13 13 13 10 10 9 8 8 7 7 10 10 11 10 9 9 8 7 8 8 6 7 8 8 8 11 11 12 12 11 11 11 9 10 11 13 12
17 19 19 18 17 15 15 15 13 12 14 11 12 10 8 9 8 9 12 12 10 10 8 8 8 9 11 10 8 8 8 10 11 11 12 11 11 10 11 12 10 13 13
19 18 18 19 18 16 15 16 15 15 15 15 16 11 9 8 11 11 11 9 9 9 9 10 11 11 12 11 10 10 10 8 9 10 12 11 10 11 12 13 14 15 17
27 19 18 16 18 19 21 21 19 18 18 16 17 15 12 11 13 13 12 12 12 12 12 13 13 13 14 13 13 14 15 15 14 12 14 11 12 12 11 12 16 16 15
24 30 25 25 26 21 18 20 25 22 20 19 18 18 16 16 16 16 15 15 16 15 15 15 14 15 13 14 16 18 20 23 25 21 17 14 13 17 16 16 17 18 19
25 30 25 26 24 18 21 24 29 24 22 22 20 19 19 20 19 20 18 18 17 17 17 17 18 20 20 21 23 23 22 21 24 23 18 20 14 14 17 18 17 17 18
18 25 25 27 26 26 28 27 28 28 24 21 19 19 20 20 21 22 20 20 20 21 21 21 23 25 28 30 24 18 15 15 15 17 16 17 17 16 16 17 19 20 20

GFSMA_700_spd_117.txt.gz
Wind_Speed
10 12 13 19 20 19 17 17 16 16 17 17 17 17 19 22 21 20 19 19 17 18 18 19 19 20 21 21 22 23 23 23 25 27 26 24 23 20 19 19 18 18 12
15 20 18 20 19 19 18 17 17 16 17 17 17 18 19 21 20 19 19 17 17 18 18 19 19 20 20 20 21 21 22 24 26 27 28 28 25 23 20 20 20 20 14
18 15 13 18 18 21 19 17 15 14 18 18 17 18 17 15 15 15 16 16 16 16 15 13 14 14 16 17 17 18 19 22 25 27 29 28 26 24 21 19 20 22 18
12 11 14 18 19 18 18 17 16 15 15 17 17 18 17 15 13 11 11 12 11 11 8 9 9 11 13 14 15 18 19 21 24 25 25 25 24 23 21 18 19 23 24
11 16 18 19 15 18 16 16 16 14 13 16 16 13 15 15 13 9 9 8 7 9 6 7 8 9 10 13 18 20 20 23 24 27 24 20 21 21 20 18 19 20 25
12 14 15 12 15 14 15 14 14 15 14 14 14 13 13 15 13 11 10 8 6 5 5 6 10 14 13 17 16 18 23 27 26 26 22 18 18 18 18 18 17 20 19
10 16 14 12 10 8 11 12 12 15 15 14 13 12 12 13 12 9 8 7 5 2 3 5 8 12 15 16 18 17 20 25 29 26 20 17 16 15 16 16 16 17 19
8 12 13 8 6 11 8 14 11 11 9 8 12 12 11 11 11 10 9 8 4 4 6 7 11 12 15 17 21 17 20 24 29 24 19 16 13 13 16 17 16 15 17
10 10 13 10 10 12 12 15 14 9 11 9 11 10 9 9 7 6 6 7 7 6 10 10 16 20 18 22 12 16 18 23 27 19 17 13 12 13 14 16 16 16 15
11 9 11 9 9 9 14 16 16 15 11 14 11 10 9 10 11 11 11 9 9 9 10 9 15 26 18 17 17 13 21 23 18 12 13 11 11 12 12 15 16 16 16
10 11 9 10 10 10 10 15 15 17 17 15 14 13 10 11 14 13 15 14 15 13 15 14 19 19 17 16 16 20 26 14 9 10 9 10 10 10 11 12 14 16 17
8 9 11 11 13 13 9 9 13 15 16 20 19 16 15 14 15 14 14 17 18 14 20 17 8 13 15 13 18 20 17 6 6 7 7 8 9 10 10 10 11 12 13
7 8 8 11 11 13 11 12 13 14 14 17 19 20 19 18 17 15 13 14 14 12 9 12 9 12 12 12 16 15 7 4 5 5 4 6 8 8 9 8 9 11 12
7 7 9 11 10 11 13 13 15 15 16 14 15 17 19 17 13 14 16 15 14 17 15 15 19 20 17 18 14 8 6 7 8 9 9 9 8 8 6 6 7 9 11
7 5 10 11 11 11 13 11 11 12 14 14 13 14 16 17 16 15 14 13 12 11 11 10 9 9 10 9 9 8 5 5 8 9 11 12 12 12 9 8 9 10 10
10 10 16 15 11 11 13 14 12 12 12 14 16 15 16 16 15 13 11 9 6 10 11 9 10 8 5 5 5 6 8 8 11 9 10 13 13 13 14 10 9 11 11
10 9 11 14 13 11 9 11 13 13 13 13 11 14 16 16 15 13 11 8 8 9 8 11 8 6 5 6 7 6 13 14 12 11 11 11 12 13 15 15 9 10 16
14 12 10 12 12 12 12 12 12 12 11 10 12 12 13 12 11 10 11 11 10 9 8 9 8 9 8 7 7 8 14 12 13 13 13 14 13 12 15 15 12 13 15
15 13 13 11 14 15 13 14 14 13 12 12 10 11 13 13 12 11 11 10 8 9 9 10 11 11 9 7 8 9 11 11 13 14 15 16 15 14 12 11 10 13 12
19 17 16 18 16 15 15 15 16 16 14 13 12 10 11 13 12 12 12 12 11 11 11 11 12 12 10 10 9 9 12 12 15 15 16 15 16 15 13 12 13 17 14
19 24 23 20 21 19 18 20 18 16 16 17 14 14 12 13 14 12 15 14 13 14 13 13 12 12 10 11 10 9 11 12 13 13 14 15 16 15 13 14 16 17 17
11 24 24 24 23 22 20 19 18 18 16 16 16 16 15 16 16 17 15 15 16 15 15 14 14 14 13 13 12 9 8 9 10 11 14 18 17 16 15 15 15 16 16
28 15 25 23 23 21 21 21 19 18 17 18 18 17 17 18 18 18 17 17 17 16 16 16 17 17 16 15 14 14 15 17 16 17 17 17 19 19 20 20 20 19 19
20 22 22 31 29 26 23 22 22 21 21 22 21 21 20 20 20 20 19 19 18 18 18 19 19 17 16 16 15 17 20 24 25 23 23 19 21 22 21 21 22 21 21
26 25 23 23 29 30 29 27 24 20 22 25 24 22 20 20 22 22 21 21 21 21 20 19 20 19 19 20 23 26 26 26 26 22 19 17 17 21 22 22 22 22 22
23 21 20 18 22 25 24 28 24 24 26 31 32 33 30 19 19 21 22 23 23 22 22 22 22 23 23 26 27 24 19 18 20 21 19 17 16 18 22 22 21 22 22

GFSMA_700_spd_120.txt.gz
Wind_Speed
14 11 11 14 14 17 18 19 18 17 17 18 17 18 19 18 18 17 17 18 18 17 16 15 16 15 15 17 17 18 20 21 21 21 20 21 22 22 19 19 20 21 13
11 12 15 14 14 16 18 17 16 16 16 16 16 18 17 17 17 18 17 17 16 14 13 13 13 13 15 16 17 19 21 22 23 23 20 20 22 22 20 19 21 23 14
15 14 16 12 14 14 15 15 14 14 15 14 16 16 13 12 13 14 15 14 13 12 12 13 13 13 15 16 18 19 22 25 27 26 21 20 21 22 21 19 19 23 16
12 11 10 12 15 15 15 14 13 13 12 13 15 14 14 12 12 12 10 8 9 8 9 9 11 12 14 19 20 21 22 26 30 30 21 18 20 20 20 19 19 21 22
10 13 14 15 16 15 15 14 14 13 13 13 14 13 12 11 10 9 7 5 5 6 8 9 11 12 15 17 18 20 23 25 31 33 21 17 18 18 19 18 19 20 22
14 15 14 12 14 12 14 14 12 12 12 11 11 10 10 10 9 8 6 5 3 4 5 7 10 11 13 14 17 21 23 26 30 32 21 17 16 15 17 18 17 20 20
13 17 11 10 12 11 12 11 10 11 10 9 8 8 8 9 7 6 6 4 2 2 5 8 10 14 16 17 20 21 20 26 29 29 19 16 13 13 15 16 16 18 21
12 17 13 11 10 9 11 11 10 11 11 9 9 8 7 7 7 6 5 5 7 8 9 11 11 13 23 19 15 18 19 23 31 23 16 13 12 12 14 15 15 17 19
10 12 12 10 8 11 7 12 12 11 12 9 8 7 6 6 6 5 6 8 8 9 9 12 14 19 21 15 13 15 20 25 29 15 13 13 12 11 14 16 16 16 15
10 8 11 9 10 9 10 12 13 13 10 13 11 9 9 8 10 11 13 14 12 12 16 17 18 24 22 17 16 18 22 27 24 11 12 12 11 11 12 13 15 17 16
7 8 10 11 10 9 9 14 14 14 16 13 15 14 13 11 12 13 14 15 16 15 18 19 18 21 17 16 19 20 25 26 18 11 11 11 11 11 12 12 14 16 16
9 10 10 9 10 9 9 11 13 15 15 15 17 16 16 15 15 15 15 15 17 18 17 14 14 14 13 14 17 20 21 15 13 11 12 12 11 12 12 12 12 14 15
8 10 13 13 12 13 12 11 13 13 14 14 14 16 18 18 18 17 17 13 10 11 12 12 13 15 18 20 23 20 13 11 12 12 14 12 12 13 13 13 13 13 13
8 8 12 13 13 12 13 13 14 14 14 13 13 15 16 15 15 17 13 14 15 16 13 15 19 21 21 19 17 11 10 9 11 14 14 13 14 14 12 13 13 12 12
12 11 11 12 12 13 12 10 11 13 13 13 13 13 14 14 13 13 14 12 11 10 9 9 9 8 8 9 10 7 9 12 12 14 14 13 14 14 13 12 12 13 13
11 13 12 12 13 13 12 12 12 12 13 13 13 14 16 14 13 13 13 11 10 9 11 10 10 7 5 6 5 5 7 10 11 13 13 15 16 17 15 13 12 11 14
13 13 14 14 16 14 13 13 14 15 16 15 14 12 12 13 13 12 12 11 11 11 10 10 10 7 7 9 8 8 9 13 11 14 14 14 15 17 17 17 13 12 11
13 15 10 10 15 16 15 13 12 12 14 13 13 12 11 11 10 10 9 9 9 9 8 9 9 8 9 9 10 11 12 14 13 15 14 13 15 16 16 17 14 15 15
17 17 17 16 14 17 17 14 13 13 14 12 12 12 14 11 12 11 11 10 9 9 9 10 11 11 11 9 10 12 14 14 15 16 14 14 13 13 14 13 12 13 15
22 22 21 19 19 19 18 17 16 16 15 13 12 12 12 11 13 13 13 13 12 12 11 12 13 13 11 9 9 11 13 16 17 17 17 16 15 15 14 13 12 14 14
24 24 24 23 22 22 20 20 20 19 16 16 18 18 16 14 13 15 14 14 15 14 14 14 13 13 11 10 10 10 10 12 14 16 15 17 18 17 17 17 16 14 13
24 25 23 23 24 24 24 24 22 22 20 18 18 18 18 17 18 17 18 17 18 18 18 16 14 14 13 13 13 13 13 15 15 19 22 22 21 20 20 18 17 18 17
26 24 18 18 27 27 26 27 24 21 20 21 19 19 20 20 20 19 19 19 19 19 18 18 17 15 15 15 15 17 16 15 17 21 25 28 28 26 25 24 21 21 21
31 30 27 24 24 30 28 28 28 24 22 22 20 19 20 21 21 21 21 21 22 20 20 20 19 19 17 17 17 18 20 22 24 24 23 24 27 25 24 24 23 22 22
33 34 29 28 26 25 36 34 35 27 23 24 25 25 25 25 26 23 22 23 23 21 21 21 21 21 20 19 21 23 25 28 30 26 21 19 21 23 22 20 21 22 22
32 27 25 26 24 28 29 42 35 36 27 24 26 26 28 29 30 29 24 21 22 23 23 23 24 23 23 22 22 24 25 22 21 21 20 19 19 21 21 19 19 19 19

GFSMA_700_spd_123.txt.gz
Wind_Speed
8 7 9 9 13 16 17 16 14 13 13 13 14 15 15 16 16 16 15 13 14 15 14 13 15 15 17 17 19 20 22 25 29 28 20 19 19 20 19 19 21 25 16
5 6 11 13 15 16 16 14 13 13 12 12 14 14 13 13 14 14 13 13 14 13 12 12 13 15 17 18 20 21 23 27 32 32 22 18 20 21 20 21 22 24 13
8 12 11 11 14 14 13 12 11 10 8 9 11 11 11 10 9 10 10 10 10 10 9 11 12 12 14 16 18 20 24 27 32 35 25 18 19 20 20 21 23 25 14
13 12 11 13 14 13 12 11 10 9 8 8 9 10 10 10 9 8 7 6 6 7 8 9 11 13 15 16 16 18 22 26 32 34 25 18 18 20 19 20 23 24 16
10 11 11 14 14 13 12 11 9 8 7 8 9 9 9 8 7 6 4 2 2 3 5 8 10 13 16 20 21 23 22 24 30 32 23 18 17 20 18 18 22 22 20
10 11 12 12 13 13 12 12 11 9 7 7 9 8 6 6 4 3 2 2 3 5 8 11 12 13 15 23 19 20 20 21 30 30 20 16 17 19 19 18 19 22 21
13 14 12 10 11 11 10 10 9 8 7 6 6 6 6 4 4 5 5 6 8 10 13 13 14 14 19 26 18 16 18 24 30 25 17 15 17 18 19 19 19 19 23
12 13 12 8 12 10 10 9 9 8 8 7 6 5 4 5 5 5 7 7 10 11 12 13 15 17 19 24 20 17 20 23 29 22 16 15 16 17 19 20 19 19 18
8 13 11 10 11 10 11 10 11 11 11 8 8 6 5 5 5 5 6 8 11 13 14 17 20 21 21 19 19 17 21 25 26 17 15 14 15 15 17 19 19 19 18
9 12 14 13 11 11 12 11 14 12 12 12 10 10 9 9 9 9 10 12 14 16 18 17 18 22 18 16 17 20 23 23 19 15 15 14 14 14 15 17 17 18 18
7 6 8 9 7 9 10 10 14 15 14 13 12 14 13 13 13 13 13 14 16 16 18 18 17 15 16 17 18 23 23 17 15 13 14 15 14 13 15 17 17 17 17
8 10 10 10 10 10 10 10 11 15 15 16 16 16 16 15 15 16 16 15 14 13 12 14 14 15 16 17 21 21 18 13 11 11 13 13 13 13 13 13 14 15 15
8 9 10 12 11 12 12 11 10 12 13 15 16 16 17 17 17 16 16 14 13 14 16 16 17 19 20 19 20 15 12 9 9 10 14 13 11 12 14 13 13 13 13
10 12 12 13 14 12 12 14 14 13 13 14 14 14 14 15 15 14 14 14 14 13 12 12 13 14 13 8 9 7 7 7 7 11 14 14 14 14 13 13 13 12 13
14 12 10 13 15 14 13 13 13 13 12 13 15 15 13 12 13 13 13 12 12 11 10 9 11 11 10 7 6 2 5 8 10 12 11 11 11 13 13 12 13 11 11
10 10 10 9 12 15 15 13 14 12 11 11 11 13 14 15 14 13 13 12 11 12 10 11 10 7 5 6 7 6 8 8 10 8 10 11 12 12 11 11 10 10 11
12 14 14 15 16 19 17 14 15 14 13 14 13 14 14 12 12 12 12 10 11 11 11 10 10 7 6 7 8 7 10 12 11 10 9 10 11 11 12 11 7 9 7
16 15 16 13 12 14 17 16 16 15 13 13 13 12 12 11 10 9 8 8 9 10 9 9 8 7 8 9 10 9 11 12 11 10 11 12 12 12 12 11 8 8 8
20 20 18 17 17 16 17 18 16 16 14 12 12 12 11 10 10 10 9 9 7 8 8 9 9 9 10 11 11 11 12 14 13 12 11 10 11 11 11 11 11 11 10
25 24 23 21 19 19 17 18 18 18 16 16 15 14 13 9 11 13 13 12 11 10 11 11 11 11 11 10 11 13 15 15 15 13 13 12 12 13 14 13 12 11 12
27 27 26 25 23 23 21 21 22 22 19 18 17 18 19 18 14 13 14 15 14 16 14 14 12 11 12 12 12 12 15 17 16 17 17 17 17 17 18 18 17 16 14
25 27 27 27 26 25 24 24 25 24 23 21 20 21 18 18 18 16 16 18 18 17 15 14 13 12 13 14 15 15 16 17 19 20 22 22 22 24 25 25 23 20 18
27 26 27 26 26 26 23 28 30 28 26 25 24 23 21 20 23 21 19 19 19 18 16 15 15 14 15 15 16 17 16 17 19 22 24 25 28 29 29 28 25 23 21
31 29 27 26 26 28 27 30 34 31 28 26 26 24 23 22 22 23 23 22 22 21 19 19 19 18 17 18 18 18 19 21 23 24 27 30 28 27 25 22 19 19 19
33 32 32 33 32 34 34 29 33 34 30 29 28 27 25 26 27 26 26 26 26 25 21 22 21 22 22 21 21 21 21 23 25 26 24 24 25 25 22 21 19 17 17
31 30 29 31 32 35 29 27 31 33 40 37 34 30 29 32 31 32 32 31 29 29 26 24 24 25 25 23 22 23 24 24 26 26 24 22 22 24 24 21 17 17 16

GFSMA_700_spd_129.txt.gz
Wind_Speed
10 9 11 13 12 12 7 12 13 13 12 13 12 10 9 10 11 11 10 9 9 9 11 12 14 16 19 22 23 23 23 22 29 26 21 18 19 19 20 22 24 17 10
9 10 13 8 10 11 9 9 13 11 11 10 9 8 8 8 8 9 8 8 8 10 11 13 15 18 18 23 30 21 22 25 29 25 21 19 19 21 21 25 28 20 14
9 12 13 13 7 13 12 12 12 12 8 7 7 6 7 6 7 6 5 5 8 9 11 15 17 18 19 25 28 21 21 25 28 23 20 19 20 22 21 25 31 24 18
12 14 13 9 16 13 7 4 9 7 6 4 5 5 4 4 3 3 4 6 7 8 12 16 18 20 20 24 27 23 19 23 24 20 19 19 21 23 24 24 29 28 21
14 16 12 15 13 12 12 7 6 8 7 5 1 1 2 1 0 2 4 6 8 11 13 17 18 18 21 23 23 21 18 21 20 18 18 18 21 23 25 25 26 29 25
13 17 14 15 7 18 16 11 11 7 5 8 4 8 3 2 2 2 4 6 11 12 13 16 20 23 21 20 17 19 18 18 15 16 17 17 20 22 23 25 26 24 30
14 17 6 9 15 9 10 10 7 3 1 4 6 5 6 6 6 4 4 3 9 12 15 18 20 19 24 19 12 19 18 14 14 14 16 16 19 21 22 24 26 25 23
12 13 13 9 8 9 5 4 9 9 3 3 5 6 5 12 6 6 6 6 8 13 14 20 20 18 16 11 14 18 14 13 13 15 15 16 18 19 21 23 25 25 24
13 12 13 11 12 7 4 7 7 5 7 7 6 8 1 17 6 9 5 12 15 14 16 18 16 13 13 14 14 17 13 11 12 14 14 15 16 17 19 22 24 24 24
10 13 11 7 11 9 7 8 9 9 10 3 13 10 9 13 8 6 10 10 21 17 15 10 13 19 15 12 11 13 11 10 11 12 13 14 14 14 15 17 20 21 22
7 10 12 9 9 10 10 12 12 11 12 12 9 7 11 12 14 15 7 9 20 23 25 7 7 13 20 18 10 7 9 8 9 10 11 12 13 13 13 14 16 18 19
7 7 7 8 10 11 11 11 14 14 16 17 13 15 7 9 11 10 8 7 14 20 19 15 14 7 13 7 13 6 6 6 7 7 8 10 11 12 12 11 12 13 15
5 10 10 10 11 12 10 11 11 10 10 14 15 15 11 9 13 10 11 9 11 10 16 19 11 13 14 9 2 2 6 5 7 8 8 8 10 10 11 11 10 9 11
10 13 8 10 9 11 11 11 11 11 8 14 13 13 13 9 12 11 11 11 9 6 13 16 26 7 16 6 12 4 4 5 7 7 7 7 7 8 9 10 9 7 8
11 13 10 11 10 10 11 11 11 11 12 14 15 14 14 13 5 14 10 10 11 8 8 17 11 14 19 16 9 14 9 6 7 6 7 7 7 8 8 8 5 4 6
15 15 10 12 12 11 11 12 12 12 15 13 13 11 14 11 12 12 11 12 9 11 10 9 9 19 15 14 9 12 6 5 5 6 6 6 6 7 7 7 5 3 3
12 12 12 12 11 12 14 13 15 17 16 15 15 15 14 13 13 10 12 12 12 11 11 7 16 21 7 12 10 12 10 5 6 6 6 7 7 7 7 6 4 5 6
15 14 13 12 13 14 14 14 16 16 16 16 16 15 15 15 13 12 10 14 16 12 12 11 15 15 11 11 10 12 9 5 7 7 7 6 6 6 6 7 6 6 7
16 16 16 15 16 16 17 17 16 14 18 19 18 16 14 14 14 14 13 13 7 11 15 11 11 10 12 14 10 10 11 7 7 7 6 6 6 6 7 8 9 9 10
18 19 19 19 19 20 19 20 20 19 18 19 19 18 17 16 16 16 17 15 15 13 14 14 12 13 10 18 16 12 10 10 10 9 9 8 8 10 10 10 11 12 14
19 21 22 22 22 23 24 24 22 21 20 19 21 21 20 21 19 18 19 18 18 16 17 18 17 15 15 21 16 13 14 12 14 16 14 13 11 11 12 14 16 18 19
24 24 22 22 22 22 26 26 23 25 24 24 22 23 23 25 23 23 22 24 20 19 18 15 14 15 19 18 16 17 17 17 16 15 18 17 18 17 18 19 19 19 19
31 31 29 29 29 29 24 26 28 28 28 27 26 26 26 27 26 27 24 23 23 24 23 21 20 20 19 18 18 16 19 17 20 22 20 25 21 19 21 22 23 21 18
33 34 36 37 35 38 37 36 31 30 31 31 27 24 25 27 31 29 28 27 26 25 24 23 24 21 22 21 20 22 21 20 21 24 26 27 27 20 20 23 23 22 19
35 35 37 39 38 35 38 38 36 34 33 33 28 26 30 32 32 31 30 28 27 25 24 23 25 25 26 25 24 24 24 22 22 24 21 19 29 27 23 21 24 23 22
36 37 37 33 35 39 31 37 39 38 36 36 38 35 37 35 31 31 33 32 30 29 25 25 25 28 29 28 27 24 26 24 23 25 27 19 26 30 33 33 24 21 20